[[{"header":{"parameterUnit":"m.s-1","parameterCategory":1,"la1":30.6,"la2":29.2853,"lo1":-89.7004,"lo2":-87.6739,"dy":0.0162,"dx":0.0183,"nx":112,"ny":82,"refTime":"2023-04-15T12:00:00:Z","depth":0,"parameterNumber":2,"parameterNumberName":"U-component_of_WINDS"},"data":[0.0,0.0,0.0,0.0,0.0,0.0,0.0,0.0,0.0,0.0,0.0,0.0,0.0,0.0,0.0,0.0,0.0,0.0,0.0,0.0,0.0,0.0,0.0,0.0,0.0,0.0,0.0,0.0,0.0,0.0,0.0,0.0,0.0,0.0,0.0,0.0,0.0,0.0,0.0,0.0,0.0,0.0,0.0,0.0,0.0,0.0,0.0,0.0,0.0,0.0,0.0,0.0,0.0,0.0,0.0,0.0,0.0,0.0,0.0,0.0,0.0,0.0,0.0,0.0,0.0,0.0,0.0,0.0,0.0,0.0,0.0,0.0,0.0,0.0,0.0,0.0,0.0,0.0,0.0,0.0,0.0,0.0,0.0,0.0,0.0,0.0,0.0,0.0,0.0,0.0,-3.6417,-3.5848,-3.5699,-3.5639,-3.5639,-3.5579,-3.5519,-3.5519,0.0,0.0,0.0,0.0,0.0,0.0,0.0,0.0,0.0,0.0,0.0,0.0,0.0,0.0,0.0,0.0,0.0,0.0,0.0,0.0,0.0,0.0,0.0,0.0,0.0,0.0,0.0,0.0,0.0,0.0,0.0,0.0,0.0,0.0,0.0,0.0,0.0,0.0,0.0,0.0,0.0,0.0,0.0,0.0,0.0,0.0,0.0,0.0,0.0,0.0,0.0,0.0,0.0,0.0,0.0,0.0,0.0,0.0,0.0,0.0,0.0,0.0,0.0,0.0,0.0,0.0,0.0,0.0,0.0,0.0,0.0,0.0,0.0,0.0,0.0,0.0,0.0,0.0,0.0,0.0,0.0,0.0,0.0,0.0,0.0,0.0,0.0,0.0,0.0,0.0,0.0,0.0,0.0,0.0,0.0,0.0,0.0,0.0,0.0,0.0,0.0,0.0,0.0,0.0,-3.7225,-3.7135,-3.6656,-3.6327,-3.6327,-3.5818,-3.5519,-3.5519,0.0,0.0,0.0,0.0,0.0,0.0,0.0,0.0,0.0,0.0,0.0,0.0,0.0,0.0,0.0,0.0,0.0,0.0,0.0,0.0,0.0,0.0,0.0,0.0,0.0,0.0,0.0,0.0,0.0,0.0,0.0,0.0,0.0,0.0,0.0,0.0,0.0,0.0,0.0,0.0,0.0,0.0,0.0,0.0,0.0,0.0,0.0,0.0,0.0,0.0,0.0,0.0,0.0,0.0,0.0,0.0,0.0,0.0,0.0,0.0,0.0,0.0,0.0,0.0,0.0,0.0,0.0,0.0,0.0,0.0,0.0,0.0,0.0,0.0,0.0,0.0,0.0,0.0,0.0,0.0,0.0,0.0,0.0,0.0,0.0,0.0,0.0,0.0,0.0,0.0,0.0,0.0,0.0,0.0,0.0,0.0,0.0,0.0,0.0,0.0,0.0,0.0,0.0,-3.7614,-3.7404,-3.7404,-3.7165,-3.6985,-3.6985,-3.6417,-3.6028,-3.6028,-3.5699,0.0,0.0,0.0,0.0,0.0,0.0,0.0,0.0,0.0,0.0,0.0,0.0,0.0,0.0,0.0,0.0,0.0,0.0,0.0,0.0,0.0,0.0,0.0,0.0,0.0,0.0,0.0,0.0,0.0,0.0,0.0,0.0,0.0,0.0,0.0,0.0,0.0,0.0,0.0,0.0,0.0,0.0,0.0,0.0,0.0,0.0,0.0,0.0,0.0,0.0,0.0,0.0,0.0,0.0,0.0,0.0,0.0,0.0,0.0,0.0,0.0,0.0,0.0,0.0,0.0,0.0,0.0,0.0,0.0,0.0,0.0,0.0,0.0,0.0,0.0,0.0,0.0,0.0,0.0,0.0,0.0,0.0,0.0,0.0,0.0,0.0,0.0,0.0,0.0,0.0,0.0,0.0,0.0,0.0,0.0,0.0,0.0,0.0,0.0,0.0,0.0,0.0,-3.8182,-3.7883,-3.7883,-3.7734,-3.7644,-3.7644,-3.7075,-3.6626,-3.6507,-3.6028,0.0,0.0,0.0,0.0,0.0,0.0,0.0,0.0,0.0,0.0,0.0,0.0,0.0,0.0,0.0,0.0,0.0,0.0,0.0,0.0,0.0,0.0,0.0,0.0,0.0,0.0,0.0,0.0,0.0,0.0,0.0,0.0,0.0,0.0,0.0,0.0,0.0,0.0,0.0,0.0,0.0,0.0,0.0,0.0,0.0,0.0,0.0,0.0,0.0,0.0,0.0,0.0,0.0,0.0,0.0,0.0,0.0,0.0,0.0,0.0,0.0,0.0,0.0,0.0,0.0,0.0,0.0,0.0,0.0,0.0,0.0,0.0,0.0,0.0,0.0,0.0,0.0,0.0,0.0,0.0,0.0,0.0,0.0,0.0,0.0,0.0,0.0,0.0,0.0,0.0,0.0,0.0,0.0,0.0,0.0,0.0,0.0,0.0,0.0,0.0,0.0,0.0,-3.932,-3.9254,-3.9254,-3.8691,-3.8332,-3.8332,-3.7734,-3.7105,-3.6537,-3.6447,0.0,0.0,0.0,0.0,0.0,0.0,0.0,0.0,0.0,0.0,0.0,0.0,0.0,0.0,0.0,0.0,0.0,0.0,0.0,0.0,0.0,0.0,0.0,0.0,0.0,0.0,0.0,0.0,0.0,0.0,0.0,0.0,0.0,0.0,0.0,0.0,0.0,0.0,0.0,0.0,0.0,0.0,0.0,0.0,0.0,0.0,0.0,0.0,0.0,0.0,0.0,0.0,0.0,0.0,0.0,0.0,0.0,0.0,0.0,0.0,0.0,0.0,0.0,0.0,0.0,0.0,0.0,0.0,0.0,0.0,0.0,0.0,0.0,0.0,0.0,0.0,0.0,0.0,0.0,0.0,0.0,0.0,0.0,0.0,0.0,0.0,0.0,0.0,0.0,0.0,0.0,0.0,0.0,0.0,0.0,0.0,0.0,0.0,0.0,0.0,0.0,0.0,-3.9373,-3.9373,-3.9373,-3.92,-3.902,-3.902,-3.8422,-3.7913,-3.7674,0.0,0.0,0.0,0.0,0.0,0.0,0.0,0.0,0.0,0.0,0.0,0.0,0.0,0.0,0.0,0.0,0.0,0.0,0.0,0.0,0.0,0.0,0.0,0.0,0.0,0.0,0.0,0.0,0.0,0.0,0.0,0.0,0.0,0.0,0.0,0.0,0.0,0.0,0.0,0.0,0.0,0.0,0.0,0.0,0.0,0.0,0.0,0.0,0.0,0.0,0.0,0.0,0.0,0.0,0.0,0.0,0.0,0.0,0.0,0.0,0.0,0.0,0.0,0.0,0.0,0.0,0.0,0.0,0.0,0.0,0.0,0.0,0.0,0.0,0.0,0.0,0.0,0.0,0.0,0.0,0.0,0.0,0.0,0.0,0.0,0.0,0.0,0.0,0.0,0.0,0.0,0.0,0.0,0.0,0.0,0.0,0.0,0.0,0.0,0.0,0.0,0.0,-3.9373,-3.9373,-3.9373,-3.9373,-3.9373,-3.9373,-3.9373,-3.899,-3.8631,-3.8392,0.0,0.0,0.0,0.0,0.0,0.0,0.0,0.0,0.0,0.0,0.0,0.0,0.0,0.0,0.0,0.0,0.0,0.0,0.0,0.0,0.0,0.0,0.0,0.0,0.0,0.0,0.0,0.0,0.0,0.0,0.0,0.0,0.0,0.0,0.0,0.0,0.0,0.0,0.0,0.0,0.0,0.0,0.0,0.0,0.0,0.0,0.0,0.0,0.0,0.0,0.0,0.0,0.0,0.0,0.0,0.0,0.0,0.0,0.0,0.0,0.0,0.0,0.0,0.0,0.0,0.0,0.0,0.0,0.0,0.0,0.0,0.0,0.0,0.0,0.0,0.0,0.0,0.0,0.0,0.0,0.0,0.0,0.0,0.0,0.0,0.0,0.0,0.0,0.0,0.0,0.0,0.0,0.0,0.0,0.0,0.0,0.0,0.0,0.0,0.0,0.0,0.0,-3.9373,-3.9373,-3.9373,-3.9373,-3.9373,-3.9373,-3.9373,-3.9373,-3.914,0.0,0.0,0.0,0.0,0.0,0.0,0.0,0.0,0.0,0.0,0.0,0.0,0.0,0.0,0.0,0.0,0.0,0.0,0.0,0.0,0.0,0.0,0.0,0.0,0.0,0.0,0.0,0.0,0.0,0.0,0.0,0.0,0.0,0.0,0.0,0.0,0.0,0.0,0.0,0.0,0.0,0.0,0.0,0.0,0.0,0.0,0.0,0.0,0.0,0.0,0.0,0.0,0.0,0.0,0.0,0.0,0.0,0.0,0.0,0.0,0.0,0.0,0.0,0.0,0.0,0.0,0.0,0.0,0.0,0.0,0.0,0.0,0.0,0.0,0.0,0.0,0.0,0.0,0.0,0.0,0.0,0.0,0.0,0.0,0.0,0.0,0.0,0.0,0.0,0.0,0.0,0.0,0.0,0.0,0.0,0.0,0.0,0.0,0.0,0.0,0.0,0.0,0.0,-3.9373,-3.9373,-3.9373,-3.9373,-3.9373,-3.9373,-3.9373,-3.9373,-3.932,-3.914,0.0,0.0,0.0,0.0,0.0,0.0,0.0,0.0,0.0,0.0,0.0,0.0,0.0,0.0,0.0,0.0,0.0,0.0,0.0,0.0,0.0,0.0,0.0,0.0,0.0,0.0,0.0,0.0,0.0,0.0,0.0,0.0,0.0,0.0,0.0,0.0,0.0,0.0,0.0,0.0,0.0,0.0,0.0,0.0,0.0,0.0,0.0,0.0,0.0,0.0,0.0,0.0,0.0,0.0,0.0,0.0,0.0,0.0,0.0,0.0,0.0,0.0,0.0,0.0,0.0,0.0,0.0,0.0,0.0,0.0,0.0,0.0,0.0,0.0,0.0,0.0,0.0,0.0,0.0,0.0,0.0,0.0,0.0,0.0,0.0,0.0,0.0,0.0,0.0,0.0,0.0,0.0,0.0,0.0,0.0,0.0,0.0,0.0,0.0,0.0,0.0,0.0,-3.9373,-3.9373,-3.9373,-3.9373,-3.9373,-3.9373,-3.9373,-3.9373,-3.9373,-3.9373,0.0,0.0,0.0,0.0,0.0,0.0,0.0,0.0,0.0,0.0,0.0,0.0,0.0,0.0,0.0,0.0,0.0,0.0,0.0,0.0,0.0,0.0,0.0,0.0,0.0,0.0,0.0,0.0,0.0,0.0,0.0,0.0,0.0,0.0,0.0,0.0,0.0,0.0,0.0,0.0,0.0,0.0,0.0,0.0,0.0,0.0,0.0,0.0,0.0,0.0,0.0,0.0,0.0,0.0,0.0,0.0,0.0,0.0,0.0,0.0,0.0,0.0,0.0,0.0,0.0,0.0,0.0,0.0,0.0,0.0,0.0,0.0,0.0,0.0,0.0,0.0,0.0,0.0,0.0,0.0,0.0,0.0,0.0,0.0,0.0,0.0,0.0,0.0,0.0,0.0,0.0,0.0,0.0,0.0,0.0,0.0,0.0,0.0,0.0,0.0,0.0,0.0,-3.9373,-3.9373,-3.9373,-3.9373,-3.9373,-3.9373,-3.9373,-3.9373,-3.9373,-3.9373,0.0,0.0,0.0,0.0,0.0,0.0,0.0,0.0,0.0,0.0,0.0,0.0,0.0,0.0,0.0,0.0,0.0,0.0,0.0,0.0,0.0,0.0,0.0,0.0,0.0,0.0,0.0,0.0,0.0,0.0,0.0,0.0,0.0,0.0,0.0,0.0,0.0,0.0,0.0,0.0,0.0,0.0,0.0,0.0,0.0,0.0,0.0,0.0,0.0,0.0,0.0,0.0,0.0,0.0,0.0,0.0,0.0,0.0,0.0,0.0,-4.4889,-4.3943,0.0,0.0,0.0,0.0,0.0,0.0,0.0,0.0,0.0,0.0,0.0,0.0,0.0,0.0,0.0,0.0,0.0,0.0,0.0,0.0,0.0,0.0,0.0,0.0,0.0,0.0,0.0,0.0,0.0,0.0,0.0,0.0,0.0,0.0,0.0,0.0,0.0,0.0,0.0,0.0,-3.9373,-3.9373,-3.9373,-3.9373,-3.9373,-3.9373,-3.9373,-3.9373,-3.9373,-3.9373,-3.9373,0.0,0.0,0.0,0.0,0.0,0.0,0.0,0.0,0.0,0.0,0.0,0.0,0.0,0.0,0.0,0.0,0.0,0.0,0.0,0.0,0.0,0.0,0.0,0.0,0.0,0.0,0.0,0.0,0.0,0.0,0.0,0.0,0.0,0.0,0.0,0.0,0.0,0.0,0.0,0.0,0.0,0.0,0.0,0.0,0.0,0.0,0.0,0.0,0.0,0.0,0.0,0.0,0.0,0.0,0.0,0.0,0.0,0.0,0.0,-4.5974,-4.5428,0.0,0.0,0.0,0.0,0.0,0.0,0.0,0.0,0.0,0.0,0.0,0.0,0.0,0.0,0.0,0.0,0.0,0.0,0.0,0.0,0.0,0.0,0.0,0.0,0.0,0.0,0.0,0.0,0.0,0.0,0.0,0.0,0.0,0.0,0.0,0.0,0.0,0.0,0.0,0.0,-3.9373,-3.9373,-3.9373,-3.9373,-3.9732,-3.9915,-3.9915,-3.9915,-3.9915,-3.9915,-3.9589,0.0,0.0,0.0,0.0,0.0,0.0,0.0,0.0,0.0,0.0,0.0,0.0,0.0,0.0,0.0,0.0,0.0,0.0,0.0,0.0,0.0,0.0,0.0,0.0,0.0,0.0,0.0,0.0,0.0,0.0,0.0,0.0,0.0,0.0,0.0,0.0,0.0,0.0,0.0,0.0,0.0,0.0,0.0,0.0,0.0,0.0,0.0,0.0,0.0,0.0,0.0,0.0,0.0,-4.7192,-4.7192,-4.7192,-4.7192,-4.7192,-4.7192,-4.7192,-4.7022,-4.6786,-4.6786,0.0,0.0,0.0,0.0,0.0,0.0,0.0,0.0,0.0,0.0,0.0,0.0,0.0,0.0,0.0,0.0,0.0,0.0,0.0,0.0,0.0,0.0,-4.1873,-4.1873,-4.2462,-4.2655,-4.1502,0.0,0.0,0.0,0.0,0.0,0.0,0.0,0.0,0.0,0.0,0.0,-3.9737,-3.9773,-3.9773,-3.9773,-4.0305,-4.0684,-4.0684,-4.0581,-4.0512,-4.0512,-3.9809,-3.9373,0.0,0.0,0.0,0.0,0.0,0.0,0.0,0.0,0.0,0.0,0.0,0.0,0.0,0.0,0.0,0.0,0.0,0.0,0.0,0.0,0.0,0.0,0.0,0.0,0.0,0.0,0.0,0.0,0.0,0.0,0.0,0.0,-4.5568,-4.6413,0.0,0.0,0.0,0.0,0.0,0.0,0.0,0.0,0.0,0.0,0.0,0.0,0.0,-4.7124,-4.7767,-4.7736,-4.8105,-4.8714,-4.8714,-4.8714,-4.8714,-4.8714,-4.8714,-4.8714,-4.8714,0.0,-4.6786,-4.6786,0.0,0.0,0.0,0.0,0.0,0.0,0.0,0.0,0.0,0.0,0.0,0.0,0.0,0.0,0.0,0.0,0.0,0.0,0.0,0.0,0.0,0.0,-4.3398,-4.3398,-4.397,-4.4464,-4.4267,-4.281,-4.1459,-4.1393,-4.136,-4.116,0.0,0.0,0.0,0.0,0.0,0.0,-4.116,-4.1227,-4.1227,-4.1227,-4.1327,-4.136,-4.136,-4.0823,-4.0512,-4.0512,-3.9809,-3.9373,-3.9373,-3.9373,0.0,0.0,0.0,0.0,0.0,0.0,0.0,0.0,0.0,0.0,0.0,0.0,0.0,0.0,0.0,0.0,0.0,0.0,0.0,0.0,0.0,0.0,0.0,0.0,0.0,0.0,0.0,0.0,0.0,-4.5782,-4.6326,-4.6752,-4.6786,-4.6786,0.0,0.0,0.0,0.0,0.0,0.0,0.0,0.0,0.0,-4.8037,-4.8037,-4.8206,-4.8545,-4.8545,-4.868,-4.9018,-4.9018,-4.9221,-4.9627,-4.9627,-4.983,-5.0236,-4.9796,-4.9255,-4.8612,-4.8206,-4.8037,-4.8037,0.0,0.0,0.0,0.0,-4.665,-4.6323,-4.5832,-4.5636,-4.5473,-4.5049,0.0,0.0,0.0,0.0,0.0,0.0,0.0,-4.3336,-4.4124,-4.4325,-4.4392,-4.4789,-4.5114,-4.5371,-4.5371,-4.4592,-4.3816,-4.3426,-4.304,-4.2487,-4.1771,-4.1317,0.0,0.0,0.0,-4.0615,-4.0891,-4.0581,-4.0305,-4.0305,-4.0718,-4.0925,-4.0925,-4.0684,-4.0512,-4.0512,-3.9809,-3.9373,-3.9373,-3.9373,-3.9373,0.0,0.0,0.0,0.0,0.0,0.0,0.0,0.0,0.0,0.0,0.0,0.0,0.0,0.0,0.0,0.0,0.0,0.0,0.0,0.0,0.0,0.0,0.0,0.0,0.0,0.0,0.0,0.0,-4.6877,-4.7158,-4.7327,-4.7361,-4.7361,0.0,0.0,0.0,0.0,0.0,0.0,-4.9018,-4.9018,-4.9018,-4.9018,-4.9187,-4.9289,-4.9289,-4.9458,-4.956,-4.956,-4.956,-4.9864,-5.0371,-5.0371,-5.0676,-5.1183,-5.0608,-5.0371,-5.0304,-4.939,-4.9018,-4.9018,-4.9018,-4.9018,-4.8923,-4.8386,-4.8161,-4.8094,-4.7561,-4.7299,-4.7104,-4.657,-4.615,-4.5798,-4.5242,0.0,0.0,0.0,0.0,-4.4773,-4.5571,-4.5702,-4.5799,-4.6376,-4.6439,-4.6439,-4.647,-4.6502,-4.6213,-4.5244,-4.4593,-4.3977,-4.3207,-4.2658,0.0,-4.2282,-4.1869,-4.1659,-4.1828,-4.1196,-4.0759,-4.0759,-4.0948,-4.1093,-4.126,-4.082,-4.0581,-4.0752,-3.9915,-3.9373,-3.9373,-3.9373,-3.9373,-3.9373,0.0,0.0,0.0,0.0,0.0,0.0,0.0,0.0,0.0,0.0,0.0,0.0,0.0,0.0,0.0,0.0,0.0,0.0,0.0,0.0,0.0,0.0,0.0,0.0,0.0,0.0,0.0,0.0,0.0,-4.8815,-4.8883,0.0,0.0,0.0,0.0,-4.8951,-4.8984,-4.9018,-4.9018,-4.9018,-4.9018,-4.9018,-4.9661,-5.0033,-5.0033,-5.0744,-5.1116,-5.1116,-5.1116,-5.1083,-5.115,-5.115,-5.1151,-5.1185,-5.1151,-5.115,-5.1016,-4.9593,-4.9018,-4.9018,-4.9018,-4.9018,-4.9018,-4.8954,-4.8923,-4.8923,-4.8889,-4.8889,-4.8889,-4.8855,-4.8221,-4.7474,-4.7441,-4.6804,0.0,0.0,-4.7108,-4.7308,-4.8126,-4.8192,-4.8095,-4.8319,-4.8224,-4.8127,-4.8351,-4.8349,-4.7853,-4.6078,-4.5717,-4.5497,-4.4788,0.0,-4.4658,-4.4657,-4.4592,-4.4821,-4.543,-4.4898,-4.4438,-4.4438,-4.3256,-4.2741,-4.3386,-4.1624,-4.0786,-4.1393,-4.0165,-3.9373,-3.9373,-3.9373,-3.9373,-3.9373,-3.9373,0.0,0.0,0.0,0.0,0.0,0.0,0.0,0.0,0.0,0.0,0.0,0.0,0.0,0.0,0.0,0.0,0.0,0.0,0.0,0.0,0.0,0.0,0.0,0.0,0.0,0.0,0.0,0.0,-4.8984,-4.9018,0.0,-4.9018,-4.9018,-4.9018,-4.9018,-4.9424,-4.9695,-4.9695,-5.0168,-5.0439,-5.0439,-5.0676,-5.0811,-5.0811,-5.1082,-5.1185,-5.1185,-5.1185,-5.1454,-5.1928,-5.1928,-5.2198,-5.2672,-5.2131,-5.1928,-5.1826,-5.0845,-5.0439,-5.0439,-5.0439,-5.0439,-5.0371,-4.9864,-4.9695,-4.9627,-4.9154,-4.9018,-4.9018,-4.9018,-4.8798,-4.8482,-4.8386,-4.8162,-4.7869,-4.7869,-4.7869,-4.7934,-4.813,-4.8163,-4.8195,-4.8196,-4.8163,-4.8195,-4.8196,-4.8196,-4.7997,-4.7337,-4.6937,-4.6611,-4.632,-4.58,-4.5406,-4.5404,-4.5047,-4.4886,-4.5146,-4.4496,-4.4072,-4.4072,-4.3199,-4.2521,-4.2322,-4.1205,-4.0409,-4.0165,-3.9696,-3.9373,-3.9373,-3.9373,-3.9373,-3.9373,-3.9373,-3.9373,0.0,0.0,0.0,0.0,0.0,0.0,0.0,0.0,0.0,0.0,0.0,0.0,0.0,0.0,0.0,0.0,0.0,0.0,0.0,0.0,0.0,0.0,0.0,0.0,0.0,-4.8925,-4.9018,-4.9018,-4.9018,-4.9086,-4.9357,-4.9357,-4.9458,-4.9729,-5.0202,-5.0473,-5.0473,-5.0947,-5.1319,-5.1589,-5.186,-5.2097,-5.2334,-5.2604,-5.2706,-5.2706,-5.2706,-5.2976,-5.345,-5.345,-5.3754,-5.4194,-5.3416,-5.3078,-5.301,-5.23,-5.1995,-5.1928,-5.142,-5.1185,-5.115,-5.0642,-5.0473,-5.0405,-4.9932,-4.9763,-4.9763,-4.9763,-4.9763,-4.9664,-4.9333,-4.9234,-4.9135,-4.8614,-4.8452,-4.8452,-4.8389,-4.8389,-4.8388,-4.8357,-4.8389,-4.8388,-4.8357,-4.8357,-4.8325,-4.8293,-4.7829,-4.747,-4.7406,-4.6913,-4.6452,-4.6118,-4.5994,-4.5832,-4.5502,-4.5108,-4.4847,-4.478,-4.3936,-4.3253,-4.3051,-4.189,-4.1098,-4.0851,-4.0141,-3.9757,-3.9768,-3.9517,-3.9373,-3.9373,-3.9373,-3.9373,-3.9373,0.0,0.0,0.0,0.0,0.0,0.0,0.0,0.0,0.0,0.0,0.0,0.0,0.0,0.0,0.0,0.0,0.0,0.0,0.0,0.0,0.0,0.0,0.0,-4.8832,-4.8925,-4.9018,-4.9052,-4.9052,-4.9323,-5.0067,-5.0135,-5.0439,-5.1151,-5.1219,-5.1252,-5.1252,-5.132,-5.1691,-5.2367,-5.3179,-5.3923,-5.4634,-5.5344,-5.5681,-5.5681,-5.5681,-5.5681,-5.5681,-5.5681,-5.5681,-5.5683,-5.4938,-5.4634,-5.4566,-5.3856,-5.3585,-5.3416,-5.1894,-5.1252,-5.1252,-5.1251,-5.1219,-5.1185,-5.1185,-5.1185,-5.1185,-5.1185,-5.1185,-5.1082,-5.0338,-5.0135,-4.9965,-4.9255,-4.9086,-4.9086,-4.9021,-4.8962,-4.8899,-4.899,-4.8928,-4.8866,-4.8956,-4.8987,-4.8925,-4.8801,-4.8357,-4.8001,-4.8001,-4.8001,-4.7737,-4.6965,-4.7638,0.0,-4.6931,-4.7013,-4.71,-4.6909,-4.5636,-4.5049,-4.5689,-4.3751,-4.281,-4.3557,-4.1599,-4.0426,-4.0505,-3.9803,-3.9373,-3.9373,-3.9373,-3.9373,-3.9373,0.0,0.0,0.0,0.0,0.0,0.0,0.0,0.0,0.0,0.0,0.0,0.0,0.0,0.0,0.0,0.0,0.0,0.0,0.0,0.0,0.0,-4.9268,-4.9593,-4.9024,-4.8987,-4.9187,-4.9729,-4.9796,-5.0101,-5.0845,-5.0913,-5.098,-5.1151,-5.2266,-5.2875,-5.2875,-5.389,-5.4532,-5.4769,-5.5006,-5.5209,-5.5412,-5.5615,-5.5681,-5.5681,-5.5681,-5.5681,-5.5681,-5.5681,-5.5681,-5.5716,-5.5513,-5.5412,-5.5378,-5.5209,-5.5108,-5.4972,-5.345,-5.2875,-5.2807,-5.2232,-5.1657,-5.1185,-5.1185,-5.1185,-5.1185,-5.1185,-5.1185,-5.1151,-5.098,-5.0913,-5.0847,-5.0516,-5.0448,-5.0416,-5.0287,-5.0319,-5.025,-4.9582,-4.9384,-4.9217,-4.8585,-4.8324,-4.8261,-4.8228,-4.8099,-4.8033,-4.813,-4.8066,-4.7935,-4.7704,-4.7869,-4.777,-4.6931,-4.6871,-4.6673,-4.6086,-4.5202,-4.451,-4.4161,-4.3082,-4.2314,-4.2052,-4.1006,-4.0417,-4.0456,-3.9787,-3.9373,-3.9373,-3.9373,-3.9373,0.0,0.0,0.0,0.0,0.0,0.0,0.0,0.0,0.0,0.0,0.0,0.0,0.0,0.0,0.0,0.0,0.0,0.0,0.0,0.0,0.0,0.0,-5.0067,-5.0405,-4.9999,-4.9932,-5.0101,-5.0507,-5.0574,-5.0845,-5.1589,-5.1995,-5.23,-5.2604,-5.3754,-5.4431,-5.4431,-5.5243,-5.5817,-5.6156,-5.6156,-5.6325,-5.663,-5.663,-5.663,-5.663,-5.663,-5.663,-5.663,-5.663,-5.663,-5.6596,-5.6292,-5.6156,-5.6156,-5.5852,-5.5681,-5.5546,0.0,0.0,0.0,0.0,-5.2536,-5.2164,-5.2164,-5.2164,-5.2164,-5.2164,-5.2164,-5.2097,-5.1758,-5.1657,-5.1591,-5.1189,-5.1055,-5.1055,-5.0957,-5.099,-5.0954,-5.0386,-5.0285,-5.0051,-4.915,-4.8952,-4.8755,-4.8424,-4.8261,0.0,-4.8195,-4.8099,-4.7902,-4.7571,-4.7836,-4.7638,-4.6515,-4.6759,-4.6689,-4.5805,-4.5674,-4.5313,-4.4481,-4.4034,0.0,0.0,0.0,-4.1115,-4.0843,-3.9884,0.0,0.0,0.0,-3.9373,-3.9373,-3.9373,0.0,0.0,-3.902,-3.8661,0.0,0.0,0.0,0.0,0.0,0.0,0.0,0.0,0.0,0.0,0.0,0.0,0.0,0.0,0.0,0.0,-5.0845,-5.132,-5.132,-5.1488,-5.1522,-5.132,-5.142,-5.1758,-5.2503,-5.3281,-5.4025,-5.4668,-5.5412,-5.5817,-5.5817,-5.5919,0.0,0.0,0.0,-5.7239,-5.7881,-5.7881,-5.7881,-5.7881,-5.7881,-5.7881,-5.7881,-5.7881,-5.7881,-5.7848,-5.7205,-5.6934,-5.6867,-5.6224,-5.5919,-5.575,-5.5006,-5.4702,-5.4634,-5.389,-5.3619,-5.3619,-5.3551,0.0,0.0,-5.3518,-5.3518,-5.3382,-5.2672,-5.2435,-5.23,-5.1657,-5.1455,-5.1455,-5.1455,-5.1455,-5.1454,-5.1352,-5.132,-5.1085,-5.0308,-5.0139,-4.9841,-4.9007,-4.8681,-4.852,-4.8228,-4.8099,-4.7737,-4.7033,-4.7638,-4.7605,-4.602,-4.6689,-4.6896,-4.5805,-4.6375,0.0,-4.5624,-4.5478,-4.5123,-4.449,-4.3145,-4.2115,-4.1439,-4.019,-3.9823,-4.0462,-3.9762,-3.9373,-3.9373,-3.9373,-3.9373,-3.9373,-3.9373,-3.9116,0.0,0.0,0.0,0.0,0.0,0.0,0.0,0.0,0.0,0.0,0.0,0.0,0.0,0.0,0.0,-5.0851,-5.1623,-5.2097,-5.2097,-5.3145,-5.3484,-5.2232,-5.2672,-5.3348,-5.4059,-5.4837,-5.5344,-5.548,-5.619,-5.6596,-5.6596,-5.7137,-5.7543,-5.7679,-5.7679,-5.7746,-5.7881,-5.7881,-5.7881,-5.7881,-5.7881,0.0,-5.7881,-5.7881,-5.7881,-5.7881,-5.7746,-5.7679,-5.7679,-5.7509,-5.7137,-5.6528,-5.5784,-5.5513,-5.5412,-5.4668,-5.4397,-5.4296,-5.3721,-5.3518,-5.3518,-5.3518,-5.3518,-5.3484,-5.3315,-5.3281,0.0,-5.3112,-5.3078,-5.3078,-5.3078,-5.3078,-5.2909,-5.2232,-5.1866,-5.1464,-5.0759,-5.036,-4.9925,-4.9194,-4.9094,-4.8893,-4.8166,-4.8001,-4.7968,-4.777,-4.7935,-4.7704,-4.6724,-4.6793,-4.662,-4.5805,-4.5295,-4.4924,-4.4737,-4.4159,-4.3711,-4.3551,-4.2836,-4.2128,-4.143,-4.0621,-4.0261,-4.0407,-3.9751,-3.9373,-3.9373,-3.9373,-3.9373,-3.9373,-3.9373,-3.9642,0.0,0.0,0.0,0.0,0.0,0.0,0.0,0.0,0.0,0.0,0.0,-4.9893,-5.0354,0.0,-5.1196,-5.1693,-5.2401,-5.3044,-5.3382,-5.4093,-5.4296,-5.3551,-5.4126,-5.4769,-5.5108,-5.5818,-5.6258,-5.6258,-5.6934,-5.734,-5.734,-5.7679,-5.7881,-5.7881,-5.7881,-5.7881,-5.7881,-5.7881,-5.7881,-5.7881,-5.7881,-5.7881,-5.7881,-5.7881,-5.7881,-5.7881,-5.7881,-5.7881,-5.7881,-5.7881,-5.7679,-5.7306,-5.6934,-5.6359,-5.5683,-5.531,-5.5141,-5.5108,-5.4735,-5.4363,-5.4059,-5.4059,-5.3788,-5.3518,-5.3518,-5.3518,-5.3518,-5.3518,-5.3518,-5.3518,-5.3518,-5.3518,-5.3349,-5.2876,-5.2606,-5.2269,-5.143,-5.1128,-5.0792,-5.0059,-4.9557,-4.9021,-4.8229,-4.769,-4.7523,-4.7935,-4.8001,-4.7704,-4.6896,-4.6585,-4.6234,-4.5733,-4.5073,-4.4624,-4.451,-4.3771,-4.329,-4.329,-4.2731,-4.2385,-4.2402,-4.146,-4.0912,-4.0885,-4.022,-3.992,-3.995,-3.9589,-3.9589,-3.995,-3.9589,-3.9589,0.0,0.0,0.0,0.0,0.0,0.0,0.0,-4.9249,-4.972,-4.9887,-5.0622,-5.1258,-5.1258,-5.193,-5.2536,-5.2536,-5.3213,-5.3923,-5.4499,-5.4837,-5.5006,-5.5006,-5.5547,-5.5919,-5.5919,-5.6596,-5.7002,-5.7002,-5.7543,-5.7881,-5.7881,-5.7881,-5.7881,-5.7881,-5.7881,-5.7881,-5.7881,-5.7881,-5.7881,-5.7881,-5.7881,-5.7881,-5.7881,-5.7881,-5.7881,-5.7881,-5.7881,-5.7881,-5.7881,-5.7881,-5.7881,-5.7881,-5.7881,-5.7171,-5.6122,-5.5987,-5.5919,-5.5884,-5.5749,-5.531,-5.4803,-5.4803,-5.4296,-5.3721,-5.3721,-5.3619,-5.3518,-5.3518,-5.3518,-5.3518,-5.3518,-5.3518,-5.345,-5.3314,-5.3213,-5.2976,-5.2167,-5.1965,-5.173,-5.0961,-5.018,-4.9428,-4.8711,-4.7855,-4.7319,-4.7535,-4.7571,-4.7303,-4.6689,-4.6198,-4.5877,-4.5697,-4.511,-4.4624,-4.4282,-4.3654,-4.329,-4.329,-4.2851,-4.2793,-4.3373,-4.2236,-4.1595,-4.1612,-4.0939,-4.0516,-4.027,-3.9817,-3.9833,-4.0293,-3.9819,-3.9666,-4.8065,-4.8388,-4.8738,-4.8769,-4.8769,-4.8969,0.0,-4.9909,-5.0082,-5.085,-5.1658,-5.2131,-5.2131,-5.2841,-5.3382,-5.3382,-5.3991,-5.4499,-5.4566,-5.5716,-5.6562,-5.6562,-5.663,-5.6697,-5.6697,-5.734,-5.778,-5.778,-5.7848,-5.7881,-5.7881,-5.7881,-5.7881,-5.7881,-5.7881,-5.7881,-5.7881,-5.7881,-5.7881,-5.7881,-5.7881,-5.7881,-5.7881,-5.7881,-5.7881,-5.7881,-5.7881,-5.7881,-5.7881,-5.7881,-5.7881,-5.7881,-5.7881,-5.778,-5.7577,-5.6934,-5.6697,-5.6596,-5.5953,-5.5683,-5.5581,-5.5581,-5.5074,-5.4465,-5.4465,-5.4025,-5.3518,-5.3518,-5.3518,-5.3518,-5.3518,-5.3518,-5.3518,-5.345,-5.3348,-5.3111,-5.2837,-5.2664,-5.2256,-5.1385,-5.1219,-5.0952,-5.0119,-4.9592,-4.8529,-4.6294,-4.5949,-4.5913,-4.5841,-4.5769,-4.5733,-4.5697,-4.4999,-4.4274,-4.3488,-4.3369,-4.329,-4.329,-4.323,-4.321,-4.3289,-4.262,-4.2299,-4.2286,-4.164,-4.0703,-3.9517,-4.0044,-4.0045,-3.9619,-4.0132,-4.0718,-4.8324,-4.858,-4.8902,-4.9434,-4.9567,-4.9767,-5.0543,-5.1017,-5.139,-5.176,-5.2469,-5.301,-5.301,-5.3281,-5.3653,-5.4059,-5.4397,-5.4905,-5.575,-5.6427,-5.6968,-5.7374,-5.7442,-5.7442,-5.7442,-5.7712,-5.7881,-5.7881,-5.7881,-5.7881,-5.7881,-5.7881,-5.7881,-5.7881,-5.7881,-5.7881,-5.7881,-5.7881,-5.7881,-5.7881,-5.7881,-5.7881,-5.7881,-5.7881,-5.7881,-5.7881,-5.7881,-5.7881,-5.7881,-5.7881,-5.7881,-5.7881,-5.7881,-5.7881,-5.7848,-5.7543,-5.7442,-5.7408,-5.7103,-5.6697,-5.6359,-5.6359,-5.5852,-5.5243,-5.5243,-5.4735,-5.4126,-5.4126,-5.3822,-5.3518,-5.3518,-5.3518,-5.345,-5.3348,-5.3247,-5.3144,-5.2938,-5.2729,-5.2522,-5.2119,-5.1628,-5.1041,-5.0284,-4.9574,-4.8473,-4.6504,-4.6385,-4.634,-4.5769,-4.5295,-4.4812,-4.4358,-4.4434,-4.4167,-4.3369,-4.329,-4.329,-4.329,-4.329,-4.329,-4.329,-4.306,-4.2761,-4.241,-4.2141,-4.1701,-4.114,-4.0648,-4.0287,-4.0047,-3.9542,-3.9613,-4.8818,-4.9175,-4.9605,-5.0238,-5.0405,-5.0608,-5.1352,-5.1928,-5.2367,-5.2604,-5.3078,-5.3518,-5.3518,-5.3518,-5.3754,-5.4465,-5.4769,-5.5344,-5.663,-5.6968,-5.7306,-5.7814,-5.7881,-5.7881,-5.7881,-5.7881,-5.7881,-5.7881,-5.7881,-5.7881,-5.7881,-5.7881,-5.7881,-5.7881,-5.7881,-5.7881,-5.7881,-5.7881,-5.7881,-5.7881,-5.7881,-5.7881,-5.7881,-5.7881,-5.7881,-5.7881,-5.7881,-5.7881,-5.7881,-5.7881,-5.7881,-5.7881,-5.7881,-5.7881,-5.7881,-5.7881,-5.7881,-5.7881,-5.7881,-5.7543,-5.7103,-5.7103,-5.6596,-5.6021,-5.6021,-5.548,-5.4905,-5.4905,-5.4363,-5.3788,-5.3788,-5.3653,-5.345,-5.3314,-5.3213,-5.3144,-5.2938,-5.2729,-5.2589,-5.2553,-5.1948,-5.1234,-5.0496,-4.9721,-4.8681,-4.7119,-4.6918,-4.6606,-4.546,-4.4633,-4.3966,-4.3369,-4.381,-4.3927,-4.3369,-4.329,-4.329,-4.329,-4.329,-4.329,-4.329,-4.329,-4.312,-4.2641,-4.2641,-4.2461,-4.2145,-4.1317,-4.0891,-4.0724,-3.9889,-3.9684,-4.9782,-5.0482,-5.1117,-5.1151,-5.1183,-5.1386,-5.2097,-5.2266,-5.2536,-5.3315,-5.3484,-5.3518,-5.3518,-5.3518,-5.3754,-5.4465,-5.5209,-5.5953,-5.6697,-5.7408,-5.7848,-5.7881,-5.7881,-5.7881,-5.7881,-5.7881,-5.7881,-5.7881,-5.7881,-5.7881,-5.7881,-5.7881,-5.7881,-5.7881,-5.7881,-5.7881,-5.7881,-5.7881,-5.7881,-5.7881,-5.7881,-5.7881,-5.7881,-5.7881,-5.7881,-5.7881,-5.7881,-5.7881,-5.7881,-5.7881,-5.7881,-5.7881,-5.7881,-5.7881,-5.7881,-5.7881,-5.7881,-5.7881,-5.7881,-5.7881,-5.7848,-5.7848,-5.7374,-5.6765,-5.6765,-5.6258,-5.5683,-5.5683,-5.5141,-5.4566,-5.4566,-5.4025,-5.3518,-5.3518,-5.3348,-5.3144,-5.2938,-5.2729,-5.2553,-5.2445,-5.2373,-5.2089,-5.1215,-5.0631,-4.963,-4.7849,-4.7079,-4.6164,-4.4549,-4.3758,-4.3329,-4.329,-4.3329,-4.3329,-4.329,-4.329,-4.329,-4.329,-4.329,-4.329,-4.329,-4.329,-4.329,-4.326,-4.326,-4.2671,-4.1422,-4.2051,-4.201,-4.1366,-4.2007,-4.1945,-5.0588,-5.0919,-5.1319,-5.1826,-5.1928,-5.2131,-5.2909,-5.3112,-5.3179,-5.345,-5.3518,-5.3518,-5.3518,-5.3518,-5.3754,-5.4465,-5.5209,-5.5987,-5.6697,-5.7442,-5.7881,-5.7881,-5.7881,-5.7881,-5.7881,-5.7881,-5.7881,-5.7881,-5.7881,-5.7881,-5.7881,-5.7881,-5.7881,-5.7881,-5.7881,-5.7881,-5.7881,-5.7881,-5.7881,-5.7881,-5.7881,-5.7881,-5.7881,-5.7881,-5.7881,-5.7881,-5.7881,-5.7881,-5.7881,-5.7881,-5.7881,-5.7881,-5.7881,-5.7881,-5.7881,-5.7881,-5.7881,-5.7881,-5.7881,-5.7881,-5.7881,-5.7881,-5.7712,-5.7509,-5.7509,-5.7002,-5.6427,-5.6427,-5.5919,-5.5344,-5.5344,-5.4769,-5.4228,-5.4228,-5.3822,-5.3348,-5.3144,-5.2938,-5.2729,-5.2553,-5.248,-5.2302,-5.2017,-5.1819,-5.0949,-4.8741,-4.6902,-4.5414,-4.4447,-4.4107,-4.3768,-4.3349,-4.329,-4.329,-4.329,-4.329,-4.329,-4.329,-4.329,-4.329,-4.329,-4.329,-4.329,-4.329,-4.329,-4.308,-4.2671,-4.25,-4.2046,-4.1405,-4.1157,-4.0958,-5.1361,-5.1695,-5.2164,-5.2604,-5.2739,-5.2875,-5.3382,-5.3518,-5.3518,-5.3518,-5.3518,-5.3518,-5.3518,-5.3518,-5.3822,-5.4837,-5.5412,-5.6055,-5.7036,-5.7577,-5.7881,-5.7881,-5.7881,-5.7881,-5.7881,-5.7881,-5.7881,-5.7881,-5.7881,-5.7881,-5.7881,-5.7881,-5.7881,-5.7881,-5.7881,-5.7881,-5.7881,-5.7881,-5.7881,-5.7881,-5.7881,-5.7881,-5.7881,-5.7881,-5.7881,-5.7881,-5.7881,-5.7881,-5.7881,-5.7881,-5.7881,-5.7881,-5.7881,-5.7881,-5.7881,-5.7881,-5.7881,-5.7881,-5.7881,-5.7881,-5.7881,-5.7881,-5.7881,-5.7881,-5.7881,-5.7577,-5.7171,-5.7171,-5.6664,-5.6089,-5.6089,-5.5547,-5.5006,-5.5006,-5.4362,-5.3753,-5.3548,-5.3105,-5.2729,-5.2553,-5.248,-5.2302,-5.198,-5.1434,-5.0524,-4.8962,-4.7191,-4.5693,-4.4766,-4.4466,-4.4137,-4.3678,-4.3439,-4.329,-4.329,-4.329,-4.329,-4.329,-4.329,-4.329,-4.329,-4.329,-4.3448,-4.3732,-4.3732,-4.3732,-4.3732,-4.3348,-4.2771,-4.2073,-4.1654,-4.131,-5.2169,-5.2842,-5.3518,-5.3518,-5.3518,-5.3518,-5.3518,-5.3518,-5.3518,-5.3518,-5.3518,-5.3518,0.0,0.0,-5.4025,-5.5446,-5.5716,-5.6258,-5.7645,-5.7881,-5.7881,-5.7881,-5.7881,-5.7881,-5.7881,-5.7881,-5.7881,-5.7881,-5.7881,-5.7881,-5.7881,-5.7881,-5.7881,-5.7881,-5.7881,-5.7881,-5.7881,-5.7881,-5.7881,-5.7881,-5.7881,-5.7881,-5.7881,-5.7881,-5.7881,-5.7881,-5.7881,-5.7881,-5.7881,-5.7881,-5.7881,-5.7881,-5.7881,-5.7881,-5.7881,-5.7881,-5.7881,-5.7881,-5.7881,-5.7881,-5.7881,-5.7881,-5.7881,-5.7881,-5.7881,-5.7881,-5.7881,-5.7881,-5.7408,-5.6867,-5.6867,-5.6325,-5.5784,-5.5784,-5.5069,-5.4322,-5.4112,-5.3332,-5.262,-5.2511,-5.2442,-5.2089,-5.1177,-4.9718,-4.8656,-4.8615,-4.7849,-4.683,-4.5514,-4.4796,-4.4377,-4.4317,-4.3708,-4.3319,-4.329,-4.329,-4.329,-4.329,-4.329,-4.329,-4.329,-4.329,-4.3654,-4.4434,-4.4472,-4.4472,-4.4434,-4.4472,-4.4082,-4.329,-4.329,-4.3,-5.3112,-5.3315,-5.3518,-5.3518,-5.3518,-5.3518,-5.3518,-5.3518,-5.3518,-5.3518,-5.3518,-5.3518,-5.3518,-5.3957,-5.4431,-5.4803,-5.5818,0.0,-5.7036,-5.7543,-5.7881,-5.7881,-5.7881,-5.7881,-5.7881,-5.7881,-5.7881,-5.7881,-5.7881,-5.7881,-5.7881,-5.7881,-5.7881,-5.7881,-5.7881,-5.7881,-5.7881,-5.7881,-5.7881,-5.7881,-5.7881,-5.7881,-5.7881,-5.7881,-5.7881,-5.7881,-5.7881,-5.7881,-5.7881,-5.7881,-5.7881,-5.7881,-5.7881,-5.7881,-5.7881,-5.7881,-5.7881,-5.7881,-5.7881,-5.7881,-5.7881,-5.7881,-5.7881,-5.7881,-5.7881,-5.7881,-5.7881,-5.7881,-5.7746,-5.7611,-5.7611,-5.707,-5.6528,-5.6528,-5.5918,-5.5272,-5.5097,-5.4313,-5.3601,-5.3387,-5.2845,-5.1944,-5.0384,-4.9765,-4.9318,-4.8697,-4.7849,-4.701,-4.6172,-4.5903,-4.5424,-4.4436,-4.4167,-4.3828,-4.3319,-4.329,-4.329,-4.329,-4.329,-4.329,-4.329,-4.329,-4.3409,-4.3576,-4.4167,-4.4205,-4.3606,-4.4236,-4.4082,-4.329,-4.329,-4.32,-5.345,-5.3518,-5.3518,-5.3518,-5.3518,-5.3518,-5.3518,-5.3518,-5.3518,-5.3518,-5.3518,-5.3585,-5.3923,-5.4329,-5.4803,0.0,0.0,0.0,-5.7239,-5.7645,-5.7881,0.0,-5.7881,-5.7881,-5.7881,-5.7881,-5.7881,-5.7881,-5.7881,-5.7881,-5.7881,-5.7881,-5.7881,-5.7881,-5.7881,-5.7881,-5.7881,-5.7881,-5.7881,-5.7881,-5.7881,-5.7881,-5.7881,-5.7881,-5.7881,-5.7881,-5.7881,-5.7881,-5.7881,-5.7881,-5.7881,-5.7881,-5.7881,-5.7881,-5.7881,-5.7881,-5.7881,-5.7881,-5.7881,-5.7881,-5.7881,-5.7881,-5.7881,-5.7881,-5.7881,-5.7628,-5.7406,-5.7808,-5.7591,-5.7406,-5.7808,-5.7577,-5.7273,-5.7273,-5.6731,-5.6119,-5.5907,-5.5156,-5.4305,-5.3684,-5.2656,-5.1508,-5.0538,-4.9726,-4.9116,-4.8697,-4.7849,-4.716,-4.68,-4.6459,-4.598,-4.5274,-4.4676,-4.4167,-4.3768,-4.3469,-4.329,-4.329,-4.329,-4.329,-4.329,-4.329,-4.3488,-4.381,-4.4243,-4.4312,-4.381,-4.4624,-4.4434,-4.329,-4.3654,-4.3615,-5.3518,-5.3518,-5.3518,-5.3518,-5.3518,-5.3518,-5.3518,-5.3518,-5.3518,-5.3518,-5.3518,-5.3721,-5.4465,-5.4668,-5.5209,-5.6596,0.0,-5.7171,-5.7814,-5.7881,-5.7881,-5.7881,-5.7881,-5.7881,-5.7881,-5.7881,-5.7881,-5.7881,-5.7881,-5.7881,-5.7881,-5.7881,-5.7881,-5.7881,-5.7881,-5.7881,-5.7881,-5.7881,-5.7881,-5.7881,-5.7881,-5.7881,-5.7881,-5.7881,-5.7881,-5.7881,-5.7881,-5.7881,-5.7881,-5.7881,-5.7881,-5.7881,-5.7881,-5.7881,-5.7881,-5.7881,-5.7881,-5.7881,-5.7881,-5.7881,-5.7881,-5.7881,-5.7881,-5.7881,-5.7881,-5.7368,-5.6882,-5.7554,-5.7181,-5.6768,-5.7517,-5.7735,-5.7772,-5.7881,-5.7408,-5.6898,-5.6718,-5.5928,-5.4834,-5.3493,-5.2249,-5.1269,-5.0838,-4.9638,-4.8666,-4.8449,-4.7764,-4.7309,-4.7309,-4.68,-4.6369,-4.6279,-4.5233,-4.4496,-4.4317,-4.3738,-4.3379,-4.329,-4.329,-4.329,-4.329,-4.329,-4.3615,-4.432,-4.4434,-4.4434,-4.432,-4.5258,-4.4924,-4.3488,-4.4282,-4.4205,-5.3518,-5.3518,-5.3518,-5.3518,-5.3518,-5.3518,-5.3518,-5.3518,0.0,0.0,-5.3518,-5.3721,-5.4465,-5.5108,-5.5818,-5.6664,-5.7306,-5.7746,-5.7881,-5.7881,-5.7881,0.0,-5.7881,-5.7881,-5.7881,-5.7881,-5.7881,-5.7881,-5.7881,-5.7881,-5.7881,-5.7881,-5.7881,-5.7881,-5.7881,-5.7881,-5.7881,-5.7881,-5.7881,-5.7881,-5.7881,-5.7881,-5.7881,-5.7881,-5.7881,-5.7881,-5.7881,-5.7881,-5.7881,-5.7881,-5.7881,-5.7881,-5.7881,-5.7881,-5.7881,-5.7881,-5.7881,-5.7881,-5.7881,-5.7881,-5.7881,-5.7881,-5.7881,-5.7881,-5.7881,-5.7808,-5.7554,-5.6992,-5.6729,-5.6614,-5.6768,-5.6806,-5.6996,-5.7735,-5.778,-5.7712,-5.7642,-5.6777,-5.5322,-5.2888,-5.2716,-5.216,-4.9493,-4.9358,-4.9116,-4.7752,-4.7396,-4.7309,-4.7309,-4.7219,-4.692,-4.6339,-4.607,-4.5514,-4.4407,-4.4197,-4.3858,-4.3319,-4.329,-4.329,-4.329,-4.329,-4.3369,-4.3527,-4.4128,-4.4197,-4.3527,-4.4999,-4.5221,-4.4282,-4.511,-4.5073,-5.3518,-5.3518,-5.3518,-5.3518,-5.3518,-5.3518,-5.3518,0.0,0.0,0.0,-5.3822,-5.4296,-5.504,-5.5784,0.0,-5.7239,-5.7645,-5.7881,-5.7881,-5.7881,-5.7881,-5.7881,-5.7881,-5.7881,-5.7881,-5.7881,-5.7881,-5.7881,-5.8254,-5.8287,-5.7915,-5.7881,-5.7881,-5.7881,-5.7881,-5.7881,-5.7881,-5.7881,-5.7881,-5.7881,-5.7881,-5.7881,-5.7881,-5.7881,-5.7881,-5.7881,-5.7881,-5.7881,-5.7881,-5.7881,-5.7881,-5.7881,-5.7881,-5.7881,-5.7881,-5.7881,-5.7881,-5.7881,-5.7881,-5.7881,-5.7881,-5.7881,-5.7591,-5.7293,-5.7772,-5.7293,-5.6542,-5.6575,-5.627,-5.5915,-5.5915,-5.6231,-5.6691,-5.711,-5.7554,-5.7845,-5.7625,-5.6868,-5.5662,-5.3752,-5.3039,-5.2172,-5.0239,-4.9519,-4.8913,-4.8103,-4.7581,-4.7309,-4.7309,-4.7309,-4.7189,-4.686,-4.6488,-4.601,-4.5424,-4.4706,-4.4167,-4.3828,-4.3469,-4.329,-4.329,-4.329,-4.329,-4.329,-4.3654,-4.3693,-4.329,-4.4472,-4.4662,-4.3888,-4.5147,-4.5258,-5.3518,-5.3518,-5.3518,-5.3518,-5.3518,-5.3518,-5.3518,-5.3518,0.0,-5.3518,-5.4093,-5.4837,-5.5581,-5.6325,-5.7036,0.0,-5.7881,-5.7881,-5.7881,-5.7881,-5.7881,0.0,-5.7881,0.0,-5.7881,-5.8017,-5.8118,-5.8118,-5.8829,-5.8998,-5.8389,-5.8355,-5.8355,-5.8355,-5.822,-5.8118,-5.8118,-5.7983,-5.7881,-5.7881,-5.7881,-5.7881,-5.7881,-5.7881,-5.7881,-5.7881,-5.7881,-5.7881,-5.7881,-5.7881,-5.7881,-5.7881,-5.7881,-5.7881,-5.7881,-5.7698,-5.7625,-5.7625,-5.7625,-5.7625,-5.7662,-5.7845,-5.7443,-5.6958,-5.748,-5.6658,-5.5676,-5.6152,-5.5716,-5.5035,-5.5271,-5.5636,-5.6074,-5.6426,-5.6958,-5.7331,-5.7327,-5.6705,-5.5846,-5.4703,-5.3346,-5.2094,-5.0929,-4.9693,-4.8738,-4.8366,-4.7892,-4.7495,-4.7309,-4.7309,-4.7309,-4.7309,-4.683,-4.6471,-4.6279,-4.5323,-4.4616,-4.4347,-4.3838,-4.3439,-4.329,-4.329,-4.329,-4.329,-4.329,-4.329,-4.329,-4.412,-4.4197,-4.3576,-4.5036,-4.5369,-5.3518,-5.3518,-5.3518,-5.3518,-5.3518,-5.3518,-5.3518,0.0,-5.3518,-5.3518,-5.4093,-5.4837,-5.5581,-5.6325,-5.7036,-5.778,-5.7881,-5.7881,0.0,0.0,0.0,0.0,0.0,0.0,-5.7881,-5.8524,-5.893,-5.893,-5.9573,-5.9979,-5.9911,-5.9911,-5.9911,-5.9911,-5.9268,-5.893,-5.893,-5.822,-5.7881,-5.7881,-5.7881,-5.7881,-5.7881,-5.7881,-5.7881,-5.7881,-5.7881,-5.7881,-5.7881,-5.7881,-5.7881,-5.7881,-5.7881,-5.7881,-5.7808,-5.6996,-5.6729,-5.6729,-5.6729,-5.6729,-5.6844,-5.7662,-5.7845,-5.7662,-5.692,-5.6614,-5.6309,-5.5636,-5.4819,-5.4317,-5.5076,-5.4579,-5.4285,-5.585,-5.5883,-5.5876,-5.703,-5.6652,-5.5693,-5.454,-5.3707,-5.2452,-5.0061,-4.9684,-4.9197,-4.7666,-4.8019,-4.8198,-4.7396,-4.7309,-4.7309,-4.7309,-4.7249,-4.698,-4.6339,-4.6202,-4.5603,-4.4407,-4.4257,-4.3958,-4.3319,-4.329,-4.329,-4.329,-4.329,-4.329,-4.329,-4.412,-4.4472,-4.4396,-4.5295,-4.566,-5.3518,-5.3518,-5.3518,-5.3518,-5.3518,-5.3518,-5.3518,-5.3518,-5.3619,-5.4059,-5.4735,-5.548,-5.6224,-5.6968,-5.7543,-5.7848,0.0,0.0,-5.7881,0.0,0.0,0.0,-5.7881,0.0,0.0,0.0,-5.9404,-6.0317,-6.0655,-6.1028,-6.1467,-6.0588,-6.0114,-6.0114,-5.981,-5.9471,-5.9032,-5.8727,-5.8355,-5.7881,-5.7881,-5.7881,-5.7881,-5.7881,-5.7881,-5.7881,-5.7881,-5.7881,-5.7881,-5.7881,-5.7881,-5.7845,-5.7331,-5.7443,-5.7735,-5.6309,-5.6152,-5.6536,-5.5995,-5.6152,-5.6652,-5.6996,-5.7143,-5.7034,-5.6691,-5.5876,-5.4952,-5.4611,-5.4653,-5.4611,-5.3922,-5.3793,-5.4115,-5.5361,-5.5482,-5.5434,-5.5829,-5.5515,-5.4873,-5.3912,-5.3012,-5.1995,-5.0526,-4.9593,-4.8831,-4.8187,-4.8019,-4.7807,-4.7352,-4.7439,-4.7409,-4.7309,-4.7309,-4.7189,-4.692,-4.6518,-4.5903,-4.4975,-4.4526,-4.4018,-4.3319,-4.329,-4.329,-4.329,-4.329,-4.329,-4.329,-4.3615,-4.3771,-4.381,-4.4586,-4.4999,-5.3518,-5.3518,-5.3518,-5.3518,-5.3518,-5.3518,-5.3518,-5.3518,-5.3721,-5.4431,-5.5209,-5.5953,-5.6664,-5.7408,-5.7881,-5.7881,0.0,-5.7881,-5.7881,0.0,0.0,0.0,0.0,-5.7881,-5.7881,-5.8761,-5.9979,-6.1501,-6.1637,-6.1839,-6.2347,-6.1366,-6.0791,-6.0791,-6.0554,-6.008,-5.9336,-5.9133,-5.8626,-5.7881,-5.7881,-5.7881,-5.7881,-5.7881,-5.7881,-5.7881,-5.7881,-5.7881,-5.7881,-5.7881,-5.7881,-5.7845,-5.7218,-5.7218,-5.7331,-5.5876,-5.5555,-5.5756,-5.5149,-5.5312,-5.5915,-5.6459,-5.642,-5.6192,-5.6192,-5.519,-5.3976,-5.3976,-5.4443,-5.4569,-5.298,-5.3113,-5.3836,-5.4579,-5.4653,-5.4611,-5.4902,-5.4569,-5.4031,-5.3418,-5.2387,-5.1393,-5.0601,-4.9461,-4.8573,-4.824,-4.8103,-4.7807,-4.7409,-4.7495,-4.7538,-4.7396,-4.7352,-4.7309,-4.7309,-4.689,-4.6322,-4.5633,-4.4975,-4.4317,-4.3618,-4.3409,-4.329,-4.329,-4.329,-4.329,-4.329,-4.329,-4.329,-4.3329,-4.3888,-4.4159,-5.3518,-5.3518,-5.3518,-5.3518,-5.3518,-5.3518,0.0,-5.3518,-5.3721,-5.4431,-5.5209,-5.5953,-5.6664,-5.7408,-5.7881,-5.7881,-5.7881,0.0,-5.7881,0.0,0.0,0.0,0.0,-5.7881,-5.7881,-5.9235,-6.0723,-6.2245,-6.2381,-6.2381,-6.2381,-6.2381,-6.2381,-6.2381,-6.167,-6.0892,-6.0114,-5.937,-5.8626,-5.7881,-5.7881,-5.7881,-5.7881,-5.7881,-5.7881,-5.7881,-5.7881,-5.7881,-5.7881,-5.7881,-5.7881,-5.7881,-5.7881,-5.7368,-5.6498,-5.5636,-5.4778,-5.4019,-5.4019,-5.4019,-5.4317,-5.6034,-5.5995,-5.5312,-5.5312,-5.4694,-5.3976,-5.3976,-5.4019,-5.3719,-5.2592,-5.2518,-5.2877,-5.3459,-5.317,-5.3157,-5.4685,-5.4105,-5.3315,-5.3315,-5.2063,-5.0734,-4.9761,-4.9212,-4.8532,-4.7452,-4.8229,-4.8573,-4.7709,-4.7581,-4.7581,-4.7581,-4.7439,-4.7309,-4.7309,-4.7309,-4.701,-4.6309,-4.5663,-4.4975,-4.4317,-4.3648,-4.329,-4.329,-4.329,-4.329,-4.329,-4.329,-4.329,-4.329,-4.329,-4.3329,-5.3348,-5.3382,-5.3518,-5.3518,-5.3518,-5.3518,-5.3518,-5.389,-5.4465,-5.5209,-5.5953,-5.6697,-5.7408,-5.7712,-5.7881,-5.7881,-5.7881,0.0,0.0,0.0,0.0,-5.7881,-5.7881,-5.8287,0.0,-5.9844,-6.0723,-6.2279,-6.2381,-6.2381,-6.2381,-6.2381,-6.2381,-6.2381,-6.2178,-6.14,-6.0114,-5.9877,-5.9133,-5.7881,-5.7881,-5.7881,-5.7881,-5.7881,-5.7881,-5.7881,-5.7881,-5.7881,-5.7881,-5.7881,-5.7881,-5.7845,-5.7256,-5.7218,-5.7256,-5.5158,-5.4611,-5.4736,-5.3521,-5.3521,-5.4105,-5.4653,-5.4653,-5.4401,-5.4401,-5.4232,-5.3976,-5.3976,-5.3976,-5.4062,-5.4317,-5.3976,-5.362,-5.3805,-5.3258,-5.2833,-5.3334,-5.2993,-5.2592,-5.2592,-5.1707,-5.0706,-4.9762,-4.9078,-4.8438,-4.7628,-4.7964,-4.8218,-4.7922,-4.788,-4.7794,-4.7624,-4.7439,-4.7309,-4.7309,-4.7309,-4.701,-4.6309,-4.5663,-4.5005,-4.4347,-4.3648,-4.329,-4.329,-4.329,-4.329,-4.329,-4.329,-4.329,-4.329,-4.329,-4.329,0.0,-5.3348,-5.3518,-5.3518,-5.3518,0.0,0.0,-5.4059,-5.4803,-5.5547,-5.6292,-5.7036,-5.7746,-5.7881,-5.7881,-5.7881,-5.7881,0.0,0.0,0.0,0.0,-5.7881,-5.7881,-5.8457,-5.9945,-6.0114,-6.0723,-6.2279,-6.2381,-6.2381,-6.2381,-6.2144,-6.1975,-6.1975,-6.1975,-6.1366,-6.0114,-5.981,-5.9066,-5.7881,-5.7881,-5.7881,-5.7881,-5.7881,-5.7881,-5.7881,-5.7881,-5.7881,0.0,-5.7881,-5.7881,-5.7845,-5.7293,-5.7218,-5.7181,-5.5198,-5.4653,-5.4611,-5.3201,-5.3069,-5.3533,-5.3891,-5.3976,-5.3976,-5.3976,-5.3793,-5.3521,-5.3521,-5.3521,-5.362,-5.4179,-5.3922,-5.3577,-5.3891,-5.3346,-5.2788,-5.3113,-5.2757,-5.2352,-5.2442,-5.1651,-5.0743,-4.9912,-4.9202,-4.8494,-4.7744,-4.788,-4.8133,-4.8133,-4.8049,-4.7922,-4.7752,-4.7452,-4.7309,-4.7309,-4.7309,-4.713,-4.6711,-4.6052,-4.5394,-4.4706,-4.4007,-4.3559,-4.329,-4.329,-4.329,-4.329,-4.329,-4.329,-4.329,-4.329,-4.329,0.0,-5.3348,-5.3518,-5.3518,-5.3518,-5.3518,-5.3585,-5.416,0.0,-5.5649,-5.6359,-5.7103,-5.7746,-5.7881,-5.7881,-5.7881,-5.7881,-5.7881,-5.7881,-5.7881,0.0,0.0,-5.7881,-5.8457,-5.9877,-6.008,-6.0723,-6.2212,-6.2313,-6.2313,-6.2313,-6.1603,-6.1231,-6.1231,-6.1163,-6.0791,-6.0047,-5.9336,-5.8626,-5.7881,-5.7881,-5.7881,-5.7881,-5.7881,-5.7881,-5.7881,-5.7881,-5.7881,-5.7881,-5.7881,-5.7881,-5.7881,-5.7881,-5.7406,-5.6575,-5.5716,-5.4861,-5.3965,-5.3113,-5.2743,-5.2833,-5.362,-5.3891,-5.3891,-5.3891,-5.3346,-5.2698,-5.2698,-5.2743,-5.2788,-5.2788,-5.2788,-5.298,-5.3836,-5.339,-5.298,-5.375,-5.3095,-5.2487,-5.2653,-5.1848,-5.0863,-5.0134,-4.9452,-4.8728,-4.7787,-4.8007,-4.8301,-4.8343,-4.8133,-4.8007,-4.8007,-4.7581,-4.7309,-4.7309,-4.7309,-4.7309,-4.7309,-4.6681,-4.6022,-4.5394,-4.4676,-4.3977,-4.3379,-4.3319,-4.329,-4.329,-4.329,-4.329,-4.329,-4.329,-4.329,-5.2938,0.0,-5.3518,-5.3518,-5.3518,-5.3653,0.0,-5.4905,-5.5649,-5.6393,-5.7137,-5.7679,-5.7848,-5.7881,-5.7881,-5.7881,-5.7881,-5.7881,-5.7881,-5.7881,-5.7881,-5.7881,-5.7881,-5.8254,-5.9167,-5.9776,-6.052,-6.1467,-6.1569,-6.1569,-6.1569,-6.0825,-6.0385,-6.0385,-5.9844,-5.9471,-5.9268,-5.9099,-5.8626,-5.7881,-5.7881,-5.7881,-5.7881,-5.7881,-5.7881,-5.7881,-5.7881,-5.7881,-5.7881,-5.7881,-5.7881,-5.7881,-5.7881,-5.7772,-5.748,-5.6614,-5.5756,-5.4902,-5.4008,-5.3258,-5.2743,-5.2966,-5.298,-5.298,-5.298,-5.2877,-5.2698,-5.2698,-5.3201,-5.3707,-5.3707,-5.3707,-5.375,-5.3934,-5.3836,-5.3577,-5.3113,-5.3346,-5.3403,-5.2833,-5.235,-5.156,-5.0239,-4.9847,-4.9361,-4.8104,-4.8133,-4.8385,-4.848,-4.8218,-4.8007,-4.8007,-4.7581,-4.7309,-4.7309,-4.7309,-4.7309,-4.7309,-4.6681,-4.6219,-4.6082,-4.4945,-4.4257,-4.4077,-4.3559,-4.329,-4.329,-4.329,-4.329,-4.329,-4.329,-4.329,-5.2972,-5.3212,-5.3382,-5.3484,-5.3754,-5.4093,-5.4499,-5.5446,-5.6325,-5.6731,-5.7374,-5.7881,-5.7881,-5.7881,-5.7881,-5.7881,-5.7881,-5.7881,-5.7881,0.0,-5.7881,-5.7881,-5.7881,-5.8186,-5.893,-5.937,-5.9911,-6.0689,-6.0757,-6.0757,-6.0757,-6.0013,-5.9607,-5.9607,-5.8896,-5.866,-5.9032,-5.866,-5.8287,-5.7881,-5.7881,-5.7881,-5.7881,-5.7881,-5.7881,-5.7881,-5.7881,-5.7881,-5.7881,-5.7881,-5.7881,-5.7881,-5.7881,-5.7881,-5.7772,-5.6465,-5.5716,-5.5149,-5.3836,-5.3113,-5.2698,-5.2698,-5.2698,-5.2698,-5.2698,-5.2698,-5.2698,-5.2698,-5.3024,-5.339,-5.339,-5.339,-5.349,-5.3891,-5.3707,-5.339,-5.3302,-5.3346,-5.3258,-5.2788,-5.2427,-5.182,-5.0753,-5.0269,-4.9678,-4.8743,-4.8485,-4.848,-4.8563,-4.826,-4.8007,-4.8007,-4.7581,-4.7309,-4.7309,-4.7309,-4.7309,-4.7309,-4.698,-4.6651,-4.6279,-4.5592,-4.4945,-4.4317,-4.3618,-4.329,-4.329,-4.329,-4.329,-4.329,-4.329,-4.329,-5.3041,-5.328,-5.3449,-5.3619,-5.4126,-5.4634,-5.4871,-5.5886,-5.6833,-5.6934,-5.7476,-5.7881,-5.7881,-5.7881,-5.7881,-5.7881,-5.7881,-5.7881,-5.7881,-5.7881,-5.7881,-5.7881,-5.7881,-5.8152,-5.8795,-5.893,-5.9268,-5.9877,-5.9945,-5.9945,-5.9945,-5.9235,-5.8829,-5.8829,-5.822,-5.8186,-5.8829,-5.822,-5.7881,-5.7881,-5.7881,-5.7881,-5.7881,-5.7881,-5.7881,-5.7881,-5.7881,-5.7881,-5.7881,-5.7881,-5.7881,-5.7881,-5.7881,-5.7881,-5.7735,-5.6231,-5.5555,-5.5067,-5.3302,-5.2698,-5.2698,-5.2698,-5.2698,-5.2698,-5.2698,-5.2698,-5.2698,-5.2698,-5.2698,-5.2698,-5.2698,-5.2698,-5.2877,-5.362,-5.3346,-5.3069,-5.3664,-5.3302,-5.2877,-5.2698,-5.2322,-5.185,-5.1375,-5.0526,-4.9769,-4.9359,-4.8898,-4.8604,-4.8604,-4.826,-4.8007,-4.8007,-4.7581,-4.7309,-4.7309,-4.7309,-4.7309,-4.7309,-4.7309,-4.701,-4.6309,-4.6279,-4.5723,-4.4496,-4.3768,-4.3439,-4.3439,-4.3349,-4.329,-4.329,-4.329,-4.329,-5.2868,-5.3511,-5.4156,-5.4397,-5.4499,-5.4905,-5.619,-5.663,-5.6968,-5.7577,-5.7814,-5.7881,-5.7881,-5.7881,-5.7881,-5.7881,-5.7881,-5.7881,-5.7881,-5.7881,-5.7881,-5.7881,-5.7881,-5.7915,-5.8051,-5.8626,-5.9066,-5.9167,-5.9167,-5.9167,-5.9167,-5.8457,-5.8051,-5.8051,-5.7949,-5.7949,-5.8051,-5.7949,-5.7881,-5.7881,-5.7881,-5.7881,-5.7881,-5.7881,-5.7881,-5.7881,-5.7881,-5.7881,-5.7881,-5.7881,-5.7881,-5.7881,-5.7881,-5.7881,-5.7881,-5.7591,-5.6542,-5.5067,-5.3302,-5.2698,-5.2698,-5.2698,-5.2698,-5.2698,-5.2698,-5.2698,-5.2698,-5.2698,-5.2698,-5.2698,-5.2698,-5.2698,-5.2743,-5.2877,-5.3346,-5.362,-5.3024,-5.339,-5.3577,-5.2833,-5.2322,-5.185,-5.1375,-5.0526,-4.9769,-4.9359,-4.8898,-4.8604,-4.8604,-4.826,-4.8007,-4.8007,-4.7581,-4.7309,-4.7309,-4.7309,-4.7309,-4.7309,-4.7309,-4.701,-4.6309,-4.6279,-4.5963,-4.5155,-4.4496,-4.4167,-4.4167,-4.3559,-4.329,-4.329,-4.329,-4.329,-5.2834,-5.3612,-5.4425,-5.5038,-5.548,-5.5953,-5.6664,-5.7103,-5.7476,-5.7814,-5.7881,-5.7881,-5.7881,-5.7881,-5.7881,-5.7881,-5.7881,-5.7881,-5.7881,-5.7881,-5.7881,-5.7881,-5.7881,-5.7881,-5.7881,-5.822,-5.8423,-5.8423,-5.8423,-5.8423,-5.8423,-5.8084,-5.7881,-5.7881,-5.7881,-5.7881,-5.7881,-5.7881,-5.7881,-5.7881,-5.7881,-5.7881,-5.7881,-5.7881,-5.7881,-5.7881,-5.7881,-5.7881,-5.7881,-5.7881,-5.7881,-5.7881,-5.7881,-5.7881,-5.7808,-5.6844,-5.5683,-5.4401,-5.3157,-5.2698,-5.2698,-5.2698,-5.2698,-5.2698,-5.2698,-5.2698,-5.2698,-5.2698,-5.2698,-5.2698,-5.2698,-5.3069,-5.3258,-5.2788,-5.3346,-5.375,-5.2877,-5.3024,-5.3201,-5.2788,-5.2427,-5.2154,-5.2044,-5.0992,-5.011,-5.0064,-4.9228,-4.8604,-4.8604,-4.826,-4.8007,-4.8007,-4.7581,-4.7309,-4.7309,-4.7309,-4.7309,-4.7309,-4.7309,-4.716,-4.686,-4.6501,-4.6172,-4.5873,-4.5185,-4.4855,-4.4855,-4.4197,-4.3828,-4.3828,-4.3469,-4.329,-5.3104,-5.3882,-5.4762,-5.5714,-5.6393,-5.6833,-5.7036,-5.7476,-5.7881,-5.7881,-5.7881,-5.7881,-5.7881,-5.7881,-5.7881,-5.7881,-5.7881,-5.7881,-5.7881,-5.7881,-5.7881,-5.7881,-5.7881,-5.7881,-5.7881,-5.7881,-5.7881,-5.7881,-5.7881,-5.7881,-5.7881,-5.7881,-5.7881,-5.7881,-5.7881,-5.7881,-5.7881,-5.7881,-5.7881,-5.7881,-5.7881,-5.7881,-5.7881,-5.7881,-5.7881,-5.7881,-5.7881,-5.7881,-5.7881,-5.7881,-5.7881,-5.7881,-5.7881,-5.7881,-5.7698,-5.5955,-5.4902,-5.4147,-5.3069,-5.2698,-5.2698,-5.2698,-5.2698,-5.2698,-5.2698,-5.2698,-5.2698,-5.2698,-5.2698,-5.2698,-5.2698,-5.3201,-5.3521,-5.2877,-5.3201,-5.3521,-5.2833,-5.2698,-5.2698,-5.2698,-5.2473,-5.2397,-5.2653,-5.1506,-5.0559,-5.0654,-4.9651,-4.882,-4.8635,-4.8301,-4.8049,-4.8007,-4.7624,-4.7352,-4.7309,-4.7309,-4.7309,-4.7309,-4.7309,-4.7309,-4.7309,-4.683,-4.6518,-4.6518,-4.5873,-4.5544,-4.5544,-4.4855,-4.4556,-4.4526,-4.3977,-4.3738,-5.3881,-5.476,-5.5572,-5.6493,-5.6765,-5.6968,-5.7645,-5.7848,-5.7881,-5.7881,-5.7881,-5.7881,-5.7881,-5.7881,-5.7881,-5.7881,-5.7881,-5.7881,-5.7881,-5.7881,-5.7881,-5.7881,-5.7881,-5.7881,-5.7881,-5.7881,-5.7881,-5.7881,-5.7881,-5.7881,-5.7881,-5.7881,-5.7881,-5.7881,-5.7881,-5.7881,-5.7881,-5.7881,-5.7881,-5.7881,-5.7881,-5.7881,-5.7881,-5.7881,-5.7881,-5.7881,-5.7881,-5.7881,-5.7881,-5.7881,-5.7881,-5.7881,-5.7881,-5.7881,-5.7698,-5.5955,-5.5271,-5.4985,-5.329,-5.2698,-5.2698,-5.2698,-5.2698,-5.2698,-5.2698,-5.2698,-5.2698,-5.2698,-5.2698,-5.2698,-5.2698,-5.2743,-5.2788,-5.2698,-5.2743,-5.2788,-5.2698,-5.2698,-5.2698,-5.2698,-5.2473,-5.2397,-5.2653,-5.186,-5.1111,-5.0746,-5.0082,-4.9374,-4.8696,-4.8396,-4.8218,-4.8007,-4.7752,-4.7495,-4.7309,-4.7309,-4.7309,-4.7309,-4.7309,-4.7309,-4.7309,-4.7249,-4.7249,-4.7249,-4.6591,-4.6219,-4.6262,-4.5544,-4.5214,-4.5214,-4.5185,-4.5155,-5.4548,-5.5535,-5.6389,-5.6696,-5.7137,-5.7543,-5.7814,-5.7881,-5.7881,-5.7881,-5.7881,-5.7881,-5.7881,-5.7881,-5.7881,-5.7881,-5.7881,-5.7881,-5.7881,-5.7881,-5.7881,-5.7881,-5.7881,-5.7881,-5.7881,-5.7881,-5.7881,-5.7881,-5.7881,-5.7881,-5.7881,-5.7881,-5.7881,-5.7881,-5.7881,-5.7881,-5.7881,-5.7881,-5.7881,-5.7881,-5.7881,-5.7881,-5.7881,-5.7881,-5.7881,-5.7881,-5.7881,-5.7881,-5.7881,-5.7881,-5.7881,-5.7881,-5.7881,-5.7554,-5.692,-5.5756,-5.4985,-5.4317,-5.3113,-5.2698,-5.2698,-5.2698,-5.2698,-5.2698,-5.2698,-5.2698,-5.2698,-5.2698,-5.2698,-5.2698,-5.2698,-5.3113,-5.339,-5.2833,-5.3113,-5.3346,-5.2833,-5.2698,-5.2698,-5.2698,-5.2608,-5.2563,-5.2653,-5.2055,-5.1379,-5.079,-5.0112,-4.9435,-4.8696,-4.8396,-4.826,-4.8218,-4.7837,-4.7495,-4.7309,-4.7309,-4.7309,-4.7309,-4.7309,-4.7309,-4.7309,-4.7309,-4.7309,-4.7309,-4.707,-4.692,-4.692,-4.6262,-4.5933,-4.5933,-4.5484,-4.5304,-5.5391,-5.6143,-5.6795,-5.707,-5.7509,-5.7881,-5.7881,-5.7881,-5.7881,-5.7881,-5.7881,-5.7881,-5.7881,-5.7881,-5.7881,-5.7881,-5.7881,-5.7881,-5.7881,-5.7881,-5.7881,-5.7881,-5.7881,-5.7881,-5.7881,-5.7881,-5.7881,-5.7881,-5.7881,-5.7881,-5.7881,-5.7881,-5.7881,-5.7881,-5.7881,-5.7881,-5.7881,-5.7881,-5.7881,-5.7881,-5.7881,-5.7881,-5.7881,-5.7881,-5.7881,-5.7881,-5.7881,-5.7881,-5.7881,-5.7881,-5.7881,-5.7881,-5.7881,-5.7368,-5.6498,-5.5636,-5.4778,-5.3879,-5.298,-5.2698,-5.2698,-5.2698,-5.2698,-5.2698,-5.2698,-5.2698,-5.2698,-5.2698,-5.2698,-5.2698,-5.2698,-5.3157,-5.3434,-5.2833,-5.3157,-5.3434,-5.2833,-5.2698,-5.2698,-5.2698,-5.2698,-5.2698,-5.2698,-5.2329,-5.1805,-5.1128,-5.0451,-4.9743,-4.9035,-4.855,-4.826,-4.8091,-4.7794,-4.7495,-4.7309,-4.7309,-4.7309,-4.7309,-4.7309,-4.7309,-4.7309,-4.7309,-4.7309,-4.7309,-4.7309,-4.7309,-4.7309,-4.686,-4.6621,-4.6621,-4.6142,-4.5933,-5.6453,-5.6655,-5.6715,-5.7676,-5.7881,-5.7881,-5.7881,-5.7881,-5.7881,-5.7881,-5.7881,-5.7881,-5.7881,-5.7881,-5.7881,-5.7881,-5.7881,-5.7881,-5.7881,-5.7881,-5.7881,-5.7881,-5.7881,-5.7881,-5.7881,-5.7881,-5.7881,-5.7881,-5.7881,-5.7881,-5.7881,-5.7881,-5.7881,-5.7881,-5.7881,-5.7881,-5.7881,-5.7881,-5.7881,-5.7881,-5.7881,-5.7881,-5.7881,-5.7881,-5.7881,-5.7881,-5.7881,-5.7881,-5.7881,-5.7881,-5.7881,-5.7881,-5.7881,-5.7368,-5.6498,-5.5636,-5.4736,-5.3879,-5.298,-5.2698,-5.2698,-5.2698,-5.2698,-5.2698,-5.2698,-5.2698,-5.2698,-5.2698,-5.2698,-5.2698,-5.2698,-5.2698,-5.2698,-5.2698,-5.2698,-5.2698,-5.2698,-5.2698,-5.2698,-5.2698,-5.2698,-5.2698,-5.2698,-5.2698,-5.2483,-5.1805,-5.1128,-5.0451,-4.9774,-4.8898,-4.8133,-4.7624,-4.7581,-4.7495,-4.7309,-4.7309,-4.7309,-4.7309,-4.7309,-4.7309,-4.7309,-4.7309,-4.7309,-4.7309,-4.7309,-4.7309,-4.7309,-4.7309,-4.7309,-4.7309,-4.7309,-4.7309,-5.7083,-5.7398,-5.7538,-5.7848,-5.7881,-5.7881,-5.7881,-5.7881,-5.7881,-5.7881,-5.7881,-5.7881,-5.7881,-5.7881,-5.7881,-5.7881,-5.7881,-5.7881,-5.7881,-5.7881,-5.7881,-5.7881,-5.7881,-5.7881,-5.7881,-5.7881,-5.7881,-5.7881,-5.7881,-5.7881,-5.7881,-5.7881,-5.7881,-5.7881,-5.7881,-5.7881,-5.7881,-5.7881,-5.7881,-5.7881,-5.7881,-5.7881,-5.7881,-5.7881,-5.7881,-5.7881,-5.7881,-5.7881,-5.7881,-5.7881,-5.7881,-5.7845,-5.7218,-5.6426,-5.5595,-5.4736,-5.3836,-5.3069,-5.2788,-5.2698,-5.2698,-5.2698,-5.2698,-5.2698,-5.2698,-5.2698,-5.2698,-5.2698,-5.2698,-5.2698,-5.2698,-5.2698,-5.2698,-5.2698,-5.2698,-5.2698,-5.2698,-5.2698,-5.2698,-5.2698,-5.2698,-5.2653,-5.2442,-5.2563,-5.2438,-5.1553,-5.144,-5.0931,-4.9592,-4.8741,-4.8133,-4.7624,-4.7581,-4.7495,-4.7309,-4.7309,-4.7309,-4.7309,-4.7309,-4.7309,-4.7309,-4.7309,-4.7309,-4.7309,-4.7309,-4.7309,-4.7309,-4.7309,-4.7309,-4.7309,-4.7309,-4.7309,-5.749,-5.7808,-5.7881,-5.7881,-5.7881,-5.7881,-5.7881,-5.7881,-5.7881,-5.7881,-5.7881,-5.7881,-5.7881,-5.7881,-5.7881,-5.7881,-5.7881,-5.7881,-5.7881,-5.7881,-5.7881,-5.7881,-5.7881,-5.7881,-5.7881,-5.7881,-5.7881,-5.7881,-5.7881,-5.7881,-5.7881,-5.7881,-5.7881,-5.7881,-5.7881,-5.7881,-5.7881,-5.7881,-5.7881,-5.7881,-5.7881,-5.7881,-5.7881,-5.7881,-5.7881,-5.7881,-5.7881,-5.7881,-5.7881,-5.7881,-5.7881,-5.7845,-5.7331,-5.6348,-5.5271,-5.4736,-5.375,-5.2698,-5.2698,-5.2698,-5.2698,-5.2698,-5.2698,-5.2698,-5.2698,-5.2698,-5.2698,-5.2698,-5.2698,-5.2698,-5.2698,-5.2698,-5.2698,-5.2698,-5.2698,-5.2698,-5.2698,-5.2698,-5.2698,-5.2698,-5.2608,-5.2518,-5.2352,-5.2442,-5.2365,-5.1801,-5.1615,-5.1019,-4.9613,-4.8956,-4.8402,-4.7959,-4.7688,-4.7495,-4.7309,-4.7309,-4.7309,-4.7309,-4.7309,-4.7309,-4.7309,-4.7309,-4.7309,-4.7309,-4.7309,-4.7309,-4.7309,-4.7309,-4.7309,-4.7309,-4.7309,-4.7309,-5.7772,-5.7881,-5.7881,-5.7881,-5.7881,-5.7881,-5.7881,-5.7881,-5.7881,-5.7881,-5.7881,-5.7881,-5.7881,-5.7881,-5.7881,-5.7881,-5.7881,-5.7881,-5.7881,-5.7881,-5.7881,-5.7881,-5.7881,-5.7881,-5.7881,-5.7881,-5.7881,-5.7881,-5.7881,-5.7881,-5.7881,-5.7881,-5.7881,-5.7881,-5.7881,-5.7881,-5.7881,-5.7881,-5.7881,-5.7881,-5.7881,-5.7881,-5.7881,-5.7881,-5.7881,-5.7881,-5.7881,-5.7881,-5.7881,-5.7881,-5.7881,-5.7881,-5.7808,-5.6768,-5.5312,-5.5231,-5.4136,-5.2698,-5.2698,-5.2698,-5.2698,-5.2698,-5.2698,-5.2698,-5.2698,-5.2698,-5.2698,-5.2698,-5.2698,-5.2698,-5.2698,-5.2698,-5.2698,-5.2698,-5.2698,-5.2698,-5.2698,-5.2698,-5.2698,-5.2698,-5.2518,-5.2306,-5.2261,-5.2306,-5.2306,-5.2261,-5.168,-5.0906,-4.9808,-4.9307,-4.887,-4.8431,-4.7932,-4.7585,-4.7399,-4.7339,-4.7309,-4.7309,-4.7309,-4.7309,-4.7309,-4.7309,-4.7309,-4.7309,-4.7309,-4.7309,-4.7309,-4.7309,-4.7309,-4.7309,-4.7309,-4.7309,-5.7588,-5.7772,0.0,-5.7881,-5.7881,-5.7881,-5.7881,-5.7881,-5.7881,-5.7881,-5.7881,-5.7881,-5.7881,-5.7881,-5.7881,-5.7881,-5.7881,-5.7881,-5.7881,-5.7881,-5.7881,-5.7881,-5.7881,-5.7881,-5.7881,-5.7881,-5.7881,-5.7881,-5.7881,-5.7881,-5.7881,-5.7881,-5.7881,-5.7881,-5.7881,-5.7881,-5.7881,-5.7881,-5.7881,-5.7881,-5.7881,-5.7881,-5.7881,-5.7881,-5.7881,-5.7881,-5.7881,-5.7881,-5.7881,-5.7881,-5.7881,-5.7845,-5.7143,-5.6231,-5.5231,-5.4527,-5.3577,-5.2698,-5.2698,-5.2698,-5.2698,-5.2698,-5.2698,-5.2698,-5.2698,-5.2698,-5.2698,-5.2698,-5.2698,-5.2698,-5.2698,-5.2698,-5.2698,-5.2698,-5.2698,-5.2698,-5.2698,-5.2698,-5.2698,-5.2698,-5.2653,-5.2473,-5.2109,-5.217,-5.2261,-5.2063,-5.1516,-5.0894,-5.0442,-4.9869,-4.9357,-4.909,-4.852,-4.8131,-4.8087,-4.7608,-4.7309,-4.7309,-4.7309,-4.7309,-4.7309,-4.7309,-4.7309,-4.7309,-4.7309,-4.7309,-4.7309,-4.7309,-4.7309,-4.7309,-4.7309,-4.7309,-5.7551,0.0,0.0,-5.7881,0.0,-5.7881,-5.7881,-5.7881,-5.7881,-5.7881,-5.7881,-5.7881,-5.7881,-5.7881,-5.7881,-5.7881,-5.7881,-5.7881,-5.7881,-5.7881,-5.7881,-5.7881,-5.7881,-5.7881,-5.7881,-5.7881,-5.7881,-5.7881,-5.7881,-5.7881,-5.7881,-5.7881,-5.7881,-5.7881,-5.7881,-5.7881,-5.7881,-5.7881,-5.7881,-5.7881,-5.7881,-5.7881,-5.7881,-5.7881,-5.7881,-5.7881,-5.7881,-5.7881,-5.7881,-5.7881,-5.7881,-5.7845,-5.7406,-5.6691,-5.5836,-5.4911,-5.4062,-5.3258,-5.2833,-5.2698,-5.2698,-5.2698,-5.2698,-5.2698,-5.2698,-5.2698,-5.2698,-5.2698,-5.2698,-5.2698,-5.2698,-5.2698,-5.2698,-5.2698,-5.2698,-5.2698,-5.2698,-5.2698,-5.2698,-5.2698,-5.2608,-5.2427,-5.22,-5.2155,-5.2109,-5.2048,-5.1607,-5.1182,-5.0922,-5.0305,-4.9869,-4.9733,-4.9134,-4.879,-4.879,-4.8446,-4.8117,-4.7788,-4.7788,-4.7638,-4.7309,-4.7309,-4.7309,-4.7309,-4.7309,-4.7309,-4.7309,-4.7309,-4.7309,-4.7309,-4.7309,-4.7309,-5.7476,0.0,-5.7881,-5.7881,-5.7881,0.0,-5.7881,-5.7881,-5.7881,-5.7881,-5.7881,-5.7881,-5.7881,-5.7881,-5.7881,-5.7881,-5.7881,-5.7881,-5.7881,-5.7881,-5.7881,-5.7881,-5.7881,-5.7881,-5.7881,-5.7881,-5.7881,-5.7881,-5.7881,-5.7881,-5.7881,-5.7881,-5.7881,-5.7881,-5.7881,-5.7881,-5.7881,-5.7881,-5.7881,-5.7881,-5.7881,-5.7881,-5.7881,-5.7881,-5.7881,-5.7881,-5.7881,-5.7881,-5.7881,-5.7881,-5.7881,-5.7881,-5.7881,-5.7368,-5.6498,-5.5756,-5.4819,-5.3805,-5.3113,-5.2743,-5.2653,-5.2653,-5.2698,-5.2698,-5.2698,-5.2698,-5.2698,-5.2698,-5.2698,-5.2698,-5.2698,-5.2698,-5.2698,-5.2698,-5.2698,-5.2698,-5.2698,-5.2698,-5.2698,-5.2698,-5.2473,-5.2306,-5.2306,-5.2155,-5.2002,-5.2002,-5.1787,-5.1526,-5.1323,-5.075,-5.0375,-5.0375,-4.9823,-4.9434,-4.9434,-4.9389,-4.909,-4.8506,-4.8446,-4.8147,-4.7489,-4.7502,-4.7472,-4.7309,-4.7309,-4.7309,-4.7309,-4.7309,-4.7309,-4.7309,-4.7309,-4.7309,0.0,0.0,-5.7881,0.0,-5.7881,-5.7881,0.0,0.0,-5.7881,0.0,-5.7881,-5.7881,-5.7881,-5.7881,-5.7881,-5.7881,-5.7881,-5.7881,-5.7881,-5.7881,-5.7881,-5.7881,-5.7881,-5.7881,-5.7881,-5.7881,-5.7881,-5.7881,-5.7881,-5.7881,-5.7881,-5.7881,-5.7881,-5.7881,-5.7881,-5.7881,-5.7881,-5.7881,-5.7881,-5.7881,-5.7881,-5.7881,-5.7881,-5.7881,-5.7881,-5.7881,-5.7881,-5.7881,-5.7881,-5.7881,-5.7881,-5.7881,-5.7881,-5.7368,-5.6575,-5.6264,-5.5108,-5.3632,-5.3577,-5.3038,-5.2397,-5.2608,-5.2698,-5.2698,-5.2698,-5.2698,-5.2698,-5.2698,-5.2698,-5.2698,-5.2698,-5.2698,-5.2698,-5.2698,-5.2698,-5.2698,-5.2698,-5.2698,-5.2698,-5.2698,-5.2473,-5.2306,-5.2306,-5.2155,-5.2002,-5.2002,-5.1787,-5.1572,-5.1526,-5.1279,-5.1079,-5.1079,-5.0465,-5.0076,-5.0076,-4.9583,-4.9269,-4.9179,-4.9179,-4.888,-4.8177,-4.8323,-4.8053,-4.7309,-4.7309,-4.7309,-4.7309,-4.7309,-4.7309,-4.7309,-4.7309,-4.7309,-5.7402,-5.7662,-5.7881,0.0,-5.7881,-5.7881,-5.7881,-5.7881,-5.7881,-5.7881,-5.7881,-5.7881,-5.7881,-5.7881,-5.7881,-5.7881,-5.7881,-5.7881,-5.7881,-5.7881,-5.7881,-5.7881,-5.7881,-5.7881,-5.7881,-5.7881,-5.7881,-5.7881,-5.7881,-5.7881,-5.7881,-5.7881,-5.7881,-5.7881,-5.7881,-5.7881,-5.7881,-5.7881,-5.7881,-5.7881,-5.7881,-5.7881,-5.7881,-5.7881,-5.7881,-5.7881,-5.7881,-5.7881,-5.7881,-5.7881,-5.7881,-5.7881,-5.7881,-5.7662,-5.7256,-5.6652,-5.5563,-5.4285,-5.3976,-5.3183,-5.2352,-5.2608,-5.2698,-5.2698,-5.2698,-5.2698,-5.2698,-5.2698,-5.2698,-5.2698,-5.2698,-5.2698,-5.2698,-5.2698,-5.2698,-5.2698,-5.2698,-5.2698,-5.2698,-5.2698,-5.2608,-5.2518,-5.2518,-5.2337,-5.22,-5.22,-5.1972,-5.1787,-5.1618,-5.1479,-5.1369,-5.1229,-5.096,-5.0734,-5.0734,-5.0541,-5.0212,-4.9823,-4.9793,-4.9523,-4.891,-4.8565,-4.8323,-4.8022,-4.7662,-4.7439,-4.7309,-4.7309,-4.7309,-4.7309,-4.7309,-4.7309,0.0,0.0,-5.7881,-5.7881,-5.7881,-5.7881,0.0,0.0,-5.7881,0.0,-5.7881,-5.7881,-5.7881,-5.7881,-5.7881,-5.7881,-5.7881,-5.7881,-5.7881,-5.7881,-5.7881,-5.7881,-5.7881,-5.7881,-5.7881,-5.7881,-5.7881,-5.7881,-5.7881,-5.7881,-5.7881,-5.7881,-5.7881,-5.7881,-5.7881,-5.7881,-5.7881,-5.7881,-5.7881,-5.7881,-5.7881,-5.7881,-5.7881,-5.7881,-5.7881,-5.7881,-5.7881,-5.7881,-5.7881,-5.7881,-5.7881,-5.7881,-5.7881,-5.7881,-5.7808,-5.7105,-5.6001,-5.4796,-5.4359,-5.3359,-5.2352,-5.2518,-5.2653,-5.2698,-5.2698,-5.2698,-5.2698,-5.2698,-5.2698,-5.2698,-5.2698,-5.2698,-5.2698,-5.2698,-5.2698,-5.2698,-5.2698,-5.2698,-5.2698,-5.2698,-5.2653,-5.2608,-5.2608,-5.2442,-5.2306,-5.2215,-5.2109,-5.188,-5.1618,-5.1572,-5.1479,-5.1229,-5.1276,-5.1276,-5.1229,-5.1229,-5.102,-5.0465,-5.0435,-5.0182,-4.9523,-4.9134,-4.8819,-4.8802,-4.8226,-4.7761,-4.7396,-4.7309,-4.7309,-4.7309,-4.7309,-4.7309,0.0,-5.7588,0.0,-5.7881,0.0,0.0,0.0,0.0,-5.7881,-5.7881,-5.7881,-5.7881,-5.7881,-5.7881,-5.7881,-5.7881,-5.7881,-5.7881,-5.7881,-5.7881,-5.7881,-5.7881,-5.7881,-5.7881,-5.7881,-5.7881,-5.7881,-5.7881,-5.7881,-5.7881,-5.7881,-5.7881,-5.7881,-5.7881,-5.7881,-5.7881,-5.7881,-5.7881,-5.7881,-5.7881,-5.7881,-5.7881,-5.7881,-5.7881,-5.7881,-5.7881,-5.7881,-5.7881,-5.7881,-5.7881,-5.7881,-5.7881,-5.7881,-5.7881,-5.7881,-5.7625,-5.6426,-5.4838,-5.4662,-5.3589,-5.2306,-5.2306,-5.2518,-5.2698,-5.2698,-5.2698,-5.2698,-5.2698,-5.2698,-5.2698,-5.2698,-5.2698,-5.2698,-5.2698,-5.2698,-5.2698,-5.2698,-5.2698,-5.2698,-5.2698,-5.2518,-5.2306,-5.2306,-5.2306,-5.2215,-5.2017,-5.2002,-5.188,-5.1618,-5.1572,-5.1479,-5.1229,-5.1463,-5.1479,-5.1229,-5.1229,-5.1199,-5.1169,-5.1169,-5.0823,-5.0166,-5.0381,-5.0125,-4.9269,-4.9008,-4.8503,-4.7581,-4.7396,-4.7309,-4.7309,-4.7309,-4.7309,0.0,0.0,0.0,-5.7662,-5.7698,-5.7735,-5.7881,-5.7881,-5.7881,-5.7881,-5.7881,-5.7881,-5.7881,-5.7881,-5.7881,-5.7881,-5.7881,-5.7881,-5.7881,-5.7881,-5.7881,-5.7881,-5.7881,-5.7881,-5.7881,-5.7881,-5.7881,-5.7881,-5.7881,-5.7881,-5.7881,-5.7881,-5.7881,-5.7881,-5.7881,-5.7881,-5.7881,-5.7881,-5.7881,-5.7881,-5.7881,-5.7881,-5.7881,-5.7881,-5.7881,-5.7881,-5.7881,-5.7881,-5.7881,-5.7881,-5.7881,-5.7881,-5.7881,-5.7881,-5.7881,-5.7808,-5.6581,-5.4879,-5.4828,-5.3719,-5.2306,-5.2306,-5.2473,-5.2698,-5.2698,-5.2698,-5.2698,-5.2698,-5.2698,-5.2698,-5.2698,-5.2698,-5.2698,-5.2698,-5.2698,-5.2698,-5.2698,-5.2698,-5.2698,-5.2698,-5.2608,-5.2563,-5.2563,-5.2397,-5.2261,-5.217,-5.2063,-5.188,-5.1618,-5.1572,-5.1479,-5.1229,-5.1323,-5.1293,-5.1229,-5.1229,-5.1229,-5.1229,-5.1229,-5.1109,-5.0823,-5.0497,-5.0259,-5.0155,-4.9524,-4.8862,-4.8257,-4.792,-4.7666,-4.7495,-4.7495,-4.7439,-5.6987,0.0,0.0,0.0,0.0,-5.7735,-5.7881,0.0,-5.7881,-5.7881,-5.7881,-5.7881,-5.7881,-5.7881,-5.7881,-5.7881,-5.7881,-5.7881,-5.7881,-5.7881,-5.7881,-5.7881,-5.7881,-5.7881,-5.7881,-5.7881,-5.7881,-5.7881,-5.7881,-5.7881,-5.7881,-5.7881,-5.7881,-5.7881,-5.7881,-5.7881,-5.7881,-5.7881,-5.7881,-5.7881,-5.7881,-5.7881,-5.7881,-5.7881,-5.7881,-5.7881,-5.7881,-5.7881,-5.7881,-5.7881,-5.7881,-5.7881,-5.7881,-5.7881,-5.7881,-5.7881,-5.6696,-5.5035,-5.492,-5.3848,-5.2397,-5.2352,-5.2473,-5.2698,-5.2698,-5.2698,-5.2698,-5.2698,-5.2698,-5.2698,-5.2698,-5.2698,-5.2698,-5.2698,-5.2698,-5.2698,-5.2698,-5.2698,-5.2698,-5.2698,-5.2608,-5.2563,-5.2563,-5.2397,-5.2261,-5.2215,-5.2155,-5.2017,-5.1787,-5.1741,-5.1649,-5.1369,-5.1339,-5.1323,-5.1229,-5.1229,-5.1229,-5.1229,-5.1229,-5.1229,-5.1229,-5.0764,-5.0617,-5.0801,-5.0095,-4.9599,-4.9281,-4.8551,-4.8049,-4.7709,-4.7624,-4.7495,0.0,0.0,0.0,0.0,0.0,0.0,-5.7881,0.0,-5.7881,-5.7881,-5.7881,-5.7881,-5.7881,-5.7881,-5.7881,-5.7881,-5.7881,-5.7881,-5.7881,-5.7881,-5.7881,-5.7881,-5.7881,-5.7881,-5.7881,-5.7881,-5.7881,-5.7881,-5.7881,-5.7881,-5.7881,-5.7881,-5.7881,-5.7881,-5.7881,-5.7881,-5.7881,-5.7881,-5.7881,-5.7881,-5.7881,-5.7881,-5.7881,-5.7881,-5.7881,-5.7881,-5.7881,-5.7881,-5.7881,-5.7881,-5.7881,-5.7881,-5.7881,-5.7881,-5.7881,-5.7881,-5.6806,-5.5239,-5.4994,-5.3934,-5.2653,-5.2397,-5.2473,-5.2698,-5.2698,-5.2698,-5.2698,-5.2698,-5.2698,-5.2698,-5.2698,-5.2698,-5.2698,-5.2698,-5.2698,-5.2698,-5.2698,-5.2698,-5.2698,-5.2698,-5.2518,-5.2306,-5.2306,-5.2306,-5.2215,-5.2048,-5.22,-5.2215,-5.2048,-5.2002,-5.188,-5.1618,-5.1572,-5.1479,-5.1229,-5.1199,-5.1229,-5.1229,-5.1229,-5.1229,-5.1229,-5.1229,-5.1229,-5.1229,-5.0801,-5.0608,-5.0608,-4.9281,-4.8447,-4.8025,-4.7739,-4.7525,-5.6796,0.0,0.0,0.0,0.0,0.0,0.0,0.0,-5.7881,-5.7881,-5.7881,-5.7881,-5.7881,-5.7881,-5.7881,-5.7881,-5.7881,-5.7881,-5.7881,-5.7881,-5.7881,-5.7881,-5.7881,-5.7881,-5.7881,-5.7881,-5.7881,0.0,-5.7881,-5.7881,-5.7881,-5.7881,-5.7881,-5.7881,-5.7881,-5.7881,-5.7881,-5.7881,-5.7881,-5.7881,-5.7881,-5.7881,-5.7881,-5.7881,-5.7881,-5.7881,-5.7881,-5.7881,-5.7881,-5.7881,-5.7881,-5.7881,-5.7881,-5.7881,-5.7881,-5.7881,-5.6806,-5.5239,-5.4994,-5.3934,-5.2653,-5.2397,-5.2473,-5.2698,-5.2698,-5.2698,-5.2698,-5.2698,-5.2698,-5.2698,-5.2698,-5.2698,-5.2698,-5.2698,-5.2698,-5.2698,-5.2698,-5.2698,-5.2698,-5.2698,-5.2653,-5.2608,-5.2608,-5.2442,-5.2306,-5.2215,-5.2155,-5.2063,-5.2002,-5.2002,-5.2002,-5.188,-5.1741,-5.1572,-5.1479,-5.1323,-5.1229,-5.1229,-5.1229,-5.1323,-5.1479,-5.1479,-5.1479,-5.1479,-5.1391,-5.106,-5.0608,-4.9867,-4.9398,-4.9128,-4.8558,-4.8032,0.0,0.0,0.0,0.0,0.0,0.0,-5.7406,-5.7662,-5.7881,0.0,-5.7881,-5.7881,-5.7881,-5.7881,-5.7881,-5.7881,-5.7881,-5.7881,-5.7881,-5.7881,-5.7881,-5.7881,-5.7881,-5.7881,-5.7881,-5.7881,-5.7881,-5.7881,-5.7881,-5.7881,-5.7881,-5.7881,-5.7881,-5.7881,-5.7881,-5.7881,-5.7881,-5.7881,-5.7881,-5.7881,-5.7881,-5.7881,-5.7881,-5.7881,-5.7881,-5.7881,-5.7881,-5.7881,-5.7881,-5.7881,-5.7881,-5.7881,-5.7881,-5.7881,-5.7881,-5.7881,-5.6806,-5.5312,-5.5117,-5.4051,-5.2653,-5.2518,-5.2563,-5.2698,-5.2698,-5.2698,-5.2698,-5.2698,-5.2698,-5.2698,-5.2698,-5.2698,-5.2698,-5.2698,-5.2698,-5.2698,-5.2698,-5.2698,-5.2698,-5.2698,-5.2698,-5.2698,-5.2698,-5.2563,-5.2442,-5.2442,-5.2382,-5.2291,-5.2291,-5.22,-5.2109,-5.2109,-5.1926,-5.1787,-5.1787,-5.1556,-5.1369,-5.1369,-5.1276,-5.1276,-5.1463,-5.1526,-5.1572,-5.1572,-5.1741,-5.153,-5.0999,-5.0472,-5.0019,-4.9583,-4.9221,-4.8741,0.0,0.0,0.0,0.0,-5.6839,0.0,-5.6844,-5.7331,-5.7881,-5.7881,-5.7881,-5.7881,-5.7881,-5.7808,-5.7808,-5.7881,-5.7808,-5.7808,-5.7881,-5.7881,-5.7881,-5.7881,-5.7881,-5.7881,-5.7881,-5.7881,-5.7881,-5.7881,-5.7881,-5.7881,-5.7881,-5.7881,-5.7881,-5.7881,-5.7881,-5.7881,-5.7881,-5.7881,-5.7881,-5.7881,-5.7881,-5.7881,-5.7881,-5.7881,-5.7881,-5.7881,-5.7881,-5.7881,-5.7881,-5.7881,-5.7881,-5.7881,-5.7881,-5.7881,-5.7881,-5.7808,-5.6696,-5.5312,-5.519,-5.4094,-5.2698,-5.2698,-5.2698,-5.2698,-5.2698,-5.2698,-5.2698,-5.2698,-5.2698,-5.2698,-5.2698,-5.2698,-5.2698,-5.2698,-5.2698,-5.2698,-5.2653,-5.2653,-5.2653,-5.2608,-5.2608,-5.2653,-5.2653,-5.2653,-5.2653,-5.2698,-5.2653,-5.2653,-5.2653,-5.2427,-5.2261,-5.2261,-5.2063,-5.2002,-5.2002,-5.1741,-5.1618,-5.1618,-5.1416,-5.1323,-5.1323,-5.1526,-5.1618,-5.1665,-5.188,-5.188,-5.1618,-5.1045,-5.0366,-4.9703,-4.9703,-4.9584,0.0,0.0,-5.6987,-5.6834,-5.7214,0.0,-5.7406,-5.7662,-5.7881,0.0,-5.7881,-5.7881,-5.7881,-5.7331,-5.7105,-5.7772,-5.7293,-5.7105,-5.7808,-5.7881,-5.7881,-5.7881,-5.7881,-5.7881,-5.7881,-5.7881,-5.7881,-5.7881,-5.7881,-5.7881,-5.7881,-5.7881,-5.7881,-5.7881,-5.7881,-5.7881,-5.7881,-5.7881,-5.7881,-5.7881,-5.7881,-5.7881,-5.7881,-5.7881,-5.7881,-5.7881,-5.7881,-5.7881,-5.7881,-5.7881,-5.7881,-5.7881,-5.7881,-5.7881,-5.7808,-5.7143,-5.6192,-5.5231,-5.4527,-5.3565,-5.2698,-5.2698,-5.2698,-5.2698,-5.2698,-5.2698,-5.2698,-5.2698,-5.2698,-5.2698,-5.2698,-5.2698,-5.2698,-5.2698,-5.2698,-5.2653,-5.2397,-5.2397,-5.2306,-5.2155,-5.2291,-5.2397,-5.2397,-5.2397,-5.2442,-5.2653,-5.2518,-5.2397,-5.2397,-5.22,-5.2063,-5.2063,-5.1834,-5.1787,-5.2002,-5.1741,-5.1695,-5.188,-5.1834,-5.1926,-5.2079,-5.1972,-5.2017,-5.217,-5.2063,-5.2002,-5.1926,-5.1544,-5.106,-5.0397,-5.0397,-5.008,-5.6719,-5.6834,-5.6911,-5.6569,-5.6954,0.0,0.0,-5.6768,-5.703,-5.6691,-5.6503,-5.6393,-5.6393,-5.5962,-5.5883,-5.6773,-5.6619,-5.6734,-5.7625,-5.7845,-5.7881,-5.7881,-5.7881,-5.7881,-5.7881,-5.7881,-5.7881,-5.7881,-5.7881,-5.7881,-5.7881,-5.7881,-5.7881,-5.7881,-5.7881,-5.7881,-5.7881,-5.7881,-5.7881,-5.7881,-5.7881,-5.7881,-5.7881,-5.7881,-5.7881,-5.7881,-5.7881,-5.7881,-5.7881,-5.7881,-5.7881,-5.7881,-5.7881,-5.7881,-5.7808,-5.692,-5.6034,-5.519,-5.4317,-5.3434,-5.2698,-5.2698,-5.2698,-5.2698,-5.2698,-5.2698,-5.2698,-5.2698,-5.2698,-5.2698,-5.2698,-5.2698,-5.2698,-5.2698,-5.2698,-5.2653,-5.2518,-5.2518,-5.2427,-5.22,-5.2155,-5.2155,-5.2155,-5.2155,-5.22,-5.2337,-5.2246,-5.2155,-5.2155,-5.2063,-5.2002,-5.2002,-5.188,-5.1834,-5.2002,-5.1741,-5.1741,-5.2002,-5.188,-5.1926,-5.2155,-5.2155,-5.217,-5.2306,-5.2109,-5.1956,-5.1787,-5.1695,-5.1514,-5.1273,-5.1136,-5.0909,-5.6757,-5.6834,-5.6834,-5.6336,-5.6724,-5.703,0.0,0.0,0.0,-5.5676,-5.5239,-5.4961,-5.4879,-5.463,-5.464,0.0,0.0,0.0,0.0,-5.7047,0.0,-5.7808,-5.7881,-5.7881,-5.7845,-5.7845,-5.7845,-5.7881,-5.7845,-5.7845,-5.7881,-5.7881,-5.7881,-5.7881,-5.7881,-5.7881,-5.7881,-5.7881,-5.7881,-5.7881,-5.7881,-5.7881,-5.7881,-5.7881,-5.7881,-5.7881,-5.7881,-5.7881,-5.7881,-5.7881,-5.7881,-5.7881,-5.7881,-5.7881,-5.7808,-5.692,-5.6034,-5.519,-5.4317,-5.3434,-5.2698,-5.2698,-5.2698,-5.2698,-5.2698,-5.2698,-5.2698,-5.2698,-5.2698,-5.2698,-5.2698,-5.2698,-5.2698,-5.2698,-5.2698,-5.2698,-5.2608,-5.2608,-5.2563,-5.2261,-5.2109,-5.2002,-5.2002,-5.1956,-5.1956,-5.2002,-5.1956,-5.1926,-5.1926,-5.191,-5.1864,-5.1864,-5.1864,-5.1864,-5.1926,-5.1741,-5.1741,-5.2002,-5.1787,-5.1787,-5.2048,-5.2261,-5.2352,-5.2306,-5.22,-5.2017,-5.1711,-5.1711,-5.1787,-5.1926,-5.1695,-5.1618,0.0,0.0,-5.6757,-5.6872,-5.7101,-5.7327,-5.7331,0.0,-5.6536,-5.6459,0.0,-5.5158,-5.492,0.0,0.0,0.0,0.0,0.0,-5.4043,-5.4615,-5.5611,-5.7406,-5.7772,-5.7808,-5.7662,-5.7625,-5.7698,-5.7881,-5.7735,-5.7698,-5.7881,-5.7881,-5.7881,-5.7881,-5.7881,-5.7881,-5.7881,-5.7881,-5.7881,-5.7881,-5.7881,-5.7881,-5.7881,-5.7881,-5.7881,-5.7881,-5.7881,-5.7881,-5.7881,-5.7881,-5.7881,-5.7881,-5.7881,-5.7881,-5.7808,-5.692,-5.6034,-5.519,-5.4317,-5.3434,-5.2698,-5.2698,-5.2698,-5.2698,-5.2698,-5.2698,-5.2698,-5.2698,-5.2698,-5.2698,-5.2698,-5.2698,-5.2698,-5.2698,-5.2698,-5.2608,-5.2397,-5.2352,-5.2261,-5.2063,-5.2048,-5.2002,-5.2002,-5.1787,-5.1741,-5.1956,-5.1787,-5.1649,-5.1649,-5.1463,-5.1276,-5.1276,-5.1276,-5.1416,-5.1649,-5.1618,-5.1741,-5.2002,-5.2002,-5.2063,-5.2261,-5.2518,-5.2563,-5.2306,-5.2518,-5.2473,-5.2215,-5.2215,-5.2033,-5.1618,-5.1618,-5.1741,0.0,0.0,0.0,0.0,-5.7327,-5.7218,-5.6303,-5.5876,-5.5393,-5.4485,0.0,0.0,0.0,0.0,0.0,0.0,-5.3283,0.0,0.0,0.0,-5.492,0.0,0.0,0.0,-5.7551,-5.7588,-5.7698,-5.7881,-5.7698,-5.7698,-5.7881,-5.7881,-5.7881,-5.7881,-5.7881,-5.7881,-5.7881,-5.7881,-5.7881,-5.7881,-5.7881,-5.7881,-5.7881,-5.7881,-5.7881,-5.7881,-5.7881,-5.7881,-5.7881,-5.7881,-5.7881,-5.7845,-5.7331,-5.7443,-5.7735,-5.6348,-5.5636,-5.5108,-5.3707,-5.298,-5.2698,-5.2698,-5.2698,-5.2698,-5.2698,-5.2698,-5.2698,-5.2698,-5.2698,-5.2698,-5.2698,-5.2698,-5.2698,-5.2698,-5.2698,-5.2653,-5.2563,-5.2518,-5.2518,-5.2427,-5.2291,-5.22,-5.22,-5.1972,-5.188,-5.2002,-5.1787,-5.1572,-5.1572,-5.1369,-5.1229,-5.1229,-5.1229,-5.1276,-5.1369,-5.1369,-5.1509,-5.1741,-5.188,-5.2048,-5.2109,-5.2109,-5.2109,-5.2109,-5.2109,-5.2109,-5.2109,-5.2109,-5.2079,-5.1987,-5.1711,-5.1741,-5.7101,0.0,0.0,0.0,-5.7439,-5.7143,-5.5756,-5.519,-5.4643,-5.3302,-5.2712,0.0,0.0,0.0,-5.2094,0.0,0.0,-5.2825,0.0,0.0,0.0,0.0,0.0,0.0,0.0,-5.6958,-5.7147,-5.7409,-5.748,-5.7625,-5.7881,-5.7881,-5.7881,-5.7881,-5.7881,-5.7772,-5.7554,-5.7517,-5.7406,-5.7185,-5.7443,-5.7517,-5.7554,-5.7808,-5.7881,-5.7881,-5.7881,-5.7881,-5.7881,-5.7881,-5.7772,-5.748,-5.6844,-5.6844,-5.7034,-5.5796,-5.5149,-5.4778,-5.3521,-5.2922,-5.2698,-5.2698,-5.2698,-5.2698,-5.2698,-5.2698,-5.2698,-5.2698,-5.2698,-5.2698,-5.2698,-5.2653,-5.2608,-5.2608,-5.2563,-5.2503,-5.2503,-5.2503,-5.2503,-5.2503,-5.2337,-5.2215,-5.2215,-5.2063,-5.188,-5.188,-5.1649,-5.1479,-5.1479,-5.1323,-5.1229,-5.1229,-5.1229,-5.1229,-5.1229,-5.1229,-5.1276,-5.1479,-5.1741,-5.188,-5.188,-5.1787,-5.1787,-5.2002,-5.188,-5.1803,-5.188,-5.1956,-5.2017,-5.2124,-5.1895,-5.1926,0.0,0.0,0.0,-5.7551,0.0,0.0,-5.6652,-5.5756,-5.4778,0.0,0.0,-5.2608,-5.2352,-5.2155,0.0,0.0,0.0,0.0,0.0,0.0,0.0,0.0,0.0,0.0,0.0,-5.5288,-5.5843,0.0,-5.692,-5.7476,-5.7881,-5.7881,-5.7881,-5.7881,-5.7881,-5.748,-5.6652,-5.6652,-5.6192,-5.5393,-5.6231,-5.6652,-5.6652,-5.7517,-5.7881,-5.7881,-5.7881,-5.7881,-5.7881,-5.7881,-5.7406,-5.6652,-5.6614,-5.6074,-5.5393,-5.5312,-5.4778,-5.4019,-5.3976,-5.3434,-5.2698,-5.2698,-5.2698,-5.2698,-5.2698,-5.2698,-5.2698,-5.2698,-5.2698,-5.2698,-5.2698,-5.2518,-5.2306,-5.2306,-5.2155,-5.2048,-5.2048,-5.2048,-5.2048,-5.2048,-5.2002,-5.2002,-5.2002,-5.1787,-5.1618,-5.1618,-5.1386,-5.1229,-5.1229,-5.1229,-5.1229,-5.1229,-5.1229,-5.1229,-5.1229,-5.1229,-5.1229,-5.1229,-5.1433,-5.1618,-5.1618,-5.1834,-5.2002,-5.2002,-5.217,-5.2079,-5.1618,-5.188,-5.188,-5.1618,-5.2079,-5.2306,0.0,0.0,-5.7514,-5.7588,0.0,0.0,0.0,0.0,0.0,0.0,0.0,0.0,0.0,0.0,0.0,0.0,0.0,0.0,0.0,0.0,0.0,0.0,0.0,0.0,0.0,0.0,0.0,0.0,-5.6465,0.0,-5.703,-5.6465,-5.6192,-5.6192,-5.6729,-5.6614,-5.5756,-5.6309,-5.6152,-5.528,-5.5595,-5.5756,-5.5756,-5.6034,-5.6192,-5.6192,-5.6192,-5.6192,-5.6192,-5.6192,-5.5995,-5.5676,-5.5108,-5.4694,-5.4443,-5.4443,-5.4274,-5.3922,-5.3346,-5.2966,-5.2698,-5.2698,-5.2698,-5.2698,-5.2698,-5.2698,-5.2698,-5.2698,-5.2698,-5.2698,-5.2698,-5.2608,-5.2518,-5.2352,-5.2261,-5.2155,-5.2048,-5.2002,-5.2002,-5.2002,-5.2002,-5.2002,-5.2002,-5.1787,-5.1695,-5.1834,-5.1649,-5.1433,-5.1433,-5.1323,-5.1229,-5.1229,-5.1229,-5.1229,-5.1229,-5.1229,-5.1229,-5.1229,-5.1323,-5.1369,-5.1369,-5.1416,-5.1556,-5.1741,-5.1803,-5.188,-5.1834,-5.1956,-5.1956,-5.188,-5.2017,-5.22,-5.7662,-5.7698,0.0,-5.7698,-5.7735,0.0,-5.6614,0.0,-5.5198,0.0,0.0,0.0,0.0,0.0,0.0,0.0,0.0,0.0,0.0,-5.1229,0.0,0.0,0.0,0.0,0.0,0.0,0.0,0.0,0.0,0.0,0.0,-5.5636,-5.5312,-5.5312,-5.5836,-5.5716,-5.4861,-5.5393,-5.5231,-5.4359,-5.4694,-5.4861,-5.4861,-5.519,-5.5312,-5.5312,-5.5312,-5.5312,-5.5312,-5.5312,-5.5149,-5.4778,-5.4232,-5.3836,-5.3565,-5.3565,-5.3565,-5.3477,-5.2922,-5.2698,-5.2698,-5.2698,-5.2698,-5.2698,-5.2698,-5.2698,-5.2667,-5.2421,-5.2513,-5.2667,-5.2421,-5.2424,-5.2518,-5.2246,-5.217,-5.2109,-5.1787,-5.1787,-5.1834,-5.1741,-5.1695,-5.1695,-5.1695,-5.1556,-5.1556,-5.1834,-5.1649,-5.1463,-5.1463,-5.1323,-5.1229,-5.1229,-5.1229,-5.1229,-5.1229,-5.1229,-5.1229,-5.1229,-5.1229,-5.1229,-5.1229,-5.1229,-5.1276,-5.1433,-5.1526,-5.1649,-5.1695,-5.1787,-5.1834,-5.1834,-5.1834,-5.1972]},{"header":{"parameterUnit":"m.s-1","parameterCategory":1,"la1":30.6,"la2":29.2853,"lo1":-89.7004,"lo2":-87.6739,"dy":0.0162,"dx":0.0183,"nx":112,"ny":82,"refTime":"2023-04-15T12:00:00:Z","depth":0,"parameterNumber":3,"parameterNumberName":"V-component_of_WINDS"},"data":[0.0,0.0,0.0,0.0,0.0,0.0,0.0,0.0,0.0,0.0,0.0,0.0,0.0,0.0,0.0,0.0,0.0,0.0,0.0,0.0,0.0,0.0,0.0,0.0,0.0,0.0,0.0,0.0,0.0,0.0,0.0,0.0,0.0,0.0,0.0,0.0,0.0,0.0,0.0,0.0,0.0,0.0,0.0,0.0,0.0,0.0,0.0,0.0,0.0,0.0,0.0,0.0,0.0,0.0,0.0,0.0,0.0,0.0,0.0,0.0,0.0,0.0,0.0,0.0,0.0,0.0,0.0,0.0,0.0,0.0,0.0,0.0,0.0,0.0,0.0,0.0,0.0,0.0,0.0,0.0,0.0,0.0,0.0,0.0,0.0,0.0,0.0,0.0,0.0,0.0,3.0557,3.008,2.9955,2.9905,2.9905,2.9854,2.9804,2.9804,0.0,0.0,0.0,0.0,0.0,0.0,0.0,0.0,0.0,0.0,0.0,0.0,0.0,0.0,0.0,0.0,0.0,0.0,0.0,0.0,0.0,0.0,0.0,0.0,0.0,0.0,0.0,0.0,0.0,0.0,0.0,0.0,0.0,0.0,0.0,0.0,0.0,0.0,0.0,0.0,0.0,0.0,0.0,0.0,0.0,0.0,0.0,0.0,0.0,0.0,0.0,0.0,0.0,0.0,0.0,0.0,0.0,0.0,0.0,0.0,0.0,0.0,0.0,0.0,0.0,0.0,0.0,0.0,0.0,0.0,0.0,0.0,0.0,0.0,0.0,0.0,0.0,0.0,0.0,0.0,0.0,0.0,0.0,0.0,0.0,0.0,0.0,0.0,0.0,0.0,0.0,0.0,0.0,0.0,0.0,0.0,0.0,0.0,0.0,0.0,0.0,0.0,0.0,0.0,3.1235,3.116,3.0758,3.0482,3.0482,3.0055,2.9804,2.9804,0.0,0.0,0.0,0.0,0.0,0.0,0.0,0.0,0.0,0.0,0.0,0.0,0.0,0.0,0.0,0.0,0.0,0.0,0.0,0.0,0.0,0.0,0.0,0.0,0.0,0.0,0.0,0.0,0.0,0.0,0.0,0.0,0.0,0.0,0.0,0.0,0.0,0.0,0.0,0.0,0.0,0.0,0.0,0.0,0.0,0.0,0.0,0.0,0.0,0.0,0.0,0.0,0.0,0.0,0.0,0.0,0.0,0.0,0.0,0.0,0.0,0.0,0.0,0.0,0.0,0.0,0.0,0.0,0.0,0.0,0.0,0.0,0.0,0.0,0.0,0.0,0.0,0.0,0.0,0.0,0.0,0.0,0.0,0.0,0.0,0.0,0.0,0.0,0.0,0.0,0.0,0.0,0.0,0.0,0.0,0.0,0.0,0.0,0.0,0.0,0.0,0.0,0.0,3.1562,3.1386,3.1386,3.1185,3.1035,3.1035,3.0557,3.0231,3.0231,2.9955,0.0,0.0,0.0,0.0,0.0,0.0,0.0,0.0,0.0,0.0,0.0,0.0,0.0,0.0,0.0,0.0,0.0,0.0,0.0,0.0,0.0,0.0,0.0,0.0,0.0,0.0,0.0,0.0,0.0,0.0,0.0,0.0,0.0,0.0,0.0,0.0,0.0,0.0,0.0,0.0,0.0,0.0,0.0,0.0,0.0,0.0,0.0,0.0,0.0,0.0,0.0,0.0,0.0,0.0,0.0,0.0,0.0,0.0,0.0,0.0,0.0,0.0,0.0,0.0,0.0,0.0,0.0,0.0,0.0,0.0,0.0,0.0,0.0,0.0,0.0,0.0,0.0,0.0,0.0,0.0,0.0,0.0,0.0,0.0,0.0,0.0,0.0,0.0,0.0,0.0,0.0,0.0,0.0,0.0,0.0,0.0,0.0,0.0,0.0,0.0,0.0,0.0,3.2039,3.1788,3.1788,3.1662,3.1587,3.1587,3.111,3.0733,3.0633,3.0231,0.0,0.0,0.0,0.0,0.0,0.0,0.0,0.0,0.0,0.0,0.0,0.0,0.0,0.0,0.0,0.0,0.0,0.0,0.0,0.0,0.0,0.0,0.0,0.0,0.0,0.0,0.0,0.0,0.0,0.0,0.0,0.0,0.0,0.0,0.0,0.0,0.0,0.0,0.0,0.0,0.0,0.0,0.0,0.0,0.0,0.0,0.0,0.0,0.0,0.0,0.0,0.0,0.0,0.0,0.0,0.0,0.0,0.0,0.0,0.0,0.0,0.0,0.0,0.0,0.0,0.0,0.0,0.0,0.0,0.0,0.0,0.0,0.0,0.0,0.0,0.0,0.0,0.0,0.0,0.0,0.0,0.0,0.0,0.0,0.0,0.0,0.0,0.0,0.0,0.0,0.0,0.0,0.0,0.0,0.0,0.0,0.0,0.0,0.0,0.0,0.0,0.0,3.2993,3.3011,3.3011,3.2466,3.2164,3.2164,3.1662,3.1135,3.0658,3.0583,0.0,0.0,0.0,0.0,0.0,0.0,0.0,0.0,0.0,0.0,0.0,0.0,0.0,0.0,0.0,0.0,0.0,0.0,0.0,0.0,0.0,0.0,0.0,0.0,0.0,0.0,0.0,0.0,0.0,0.0,0.0,0.0,0.0,0.0,0.0,0.0,0.0,0.0,0.0,0.0,0.0,0.0,0.0,0.0,0.0,0.0,0.0,0.0,0.0,0.0,0.0,0.0,0.0,0.0,0.0,0.0,0.0,0.0,0.0,0.0,0.0,0.0,0.0,0.0,0.0,0.0,0.0,0.0,0.0,0.0,0.0,0.0,0.0,0.0,0.0,0.0,0.0,0.0,0.0,0.0,0.0,0.0,0.0,0.0,0.0,0.0,0.0,0.0,0.0,0.0,0.0,0.0,0.0,0.0,0.0,0.0,0.0,0.0,0.0,0.0,0.0,0.0,3.3111,3.3111,3.3111,3.2893,3.2742,3.2742,3.224,3.1813,3.1612,0.0,0.0,0.0,0.0,0.0,0.0,0.0,0.0,0.0,0.0,0.0,0.0,0.0,0.0,0.0,0.0,0.0,0.0,0.0,0.0,0.0,0.0,0.0,0.0,0.0,0.0,0.0,0.0,0.0,0.0,0.0,0.0,0.0,0.0,0.0,0.0,0.0,0.0,0.0,0.0,0.0,0.0,0.0,0.0,0.0,0.0,0.0,0.0,0.0,0.0,0.0,0.0,0.0,0.0,0.0,0.0,0.0,0.0,0.0,0.0,0.0,0.0,0.0,0.0,0.0,0.0,0.0,0.0,0.0,0.0,0.0,0.0,0.0,0.0,0.0,0.0,0.0,0.0,0.0,0.0,0.0,0.0,0.0,0.0,0.0,0.0,0.0,0.0,0.0,0.0,0.0,0.0,0.0,0.0,0.0,0.0,0.0,0.0,0.0,0.0,0.0,0.0,3.3111,3.3111,3.3111,3.3111,3.3111,3.3111,3.3111,3.2717,3.2416,3.2215,0.0,0.0,0.0,0.0,0.0,0.0,0.0,0.0,0.0,0.0,0.0,0.0,0.0,0.0,0.0,0.0,0.0,0.0,0.0,0.0,0.0,0.0,0.0,0.0,0.0,0.0,0.0,0.0,0.0,0.0,0.0,0.0,0.0,0.0,0.0,0.0,0.0,0.0,0.0,0.0,0.0,0.0,0.0,0.0,0.0,0.0,0.0,0.0,0.0,0.0,0.0,0.0,0.0,0.0,0.0,0.0,0.0,0.0,0.0,0.0,0.0,0.0,0.0,0.0,0.0,0.0,0.0,0.0,0.0,0.0,0.0,0.0,0.0,0.0,0.0,0.0,0.0,0.0,0.0,0.0,0.0,0.0,0.0,0.0,0.0,0.0,0.0,0.0,0.0,0.0,0.0,0.0,0.0,0.0,0.0,0.0,0.0,0.0,0.0,0.0,0.0,0.0,3.3111,3.3111,3.3111,3.3111,3.3111,3.3111,3.3111,3.3111,3.2842,0.0,0.0,0.0,0.0,0.0,0.0,0.0,0.0,0.0,0.0,0.0,0.0,0.0,0.0,0.0,0.0,0.0,0.0,0.0,0.0,0.0,0.0,0.0,0.0,0.0,0.0,0.0,0.0,0.0,0.0,0.0,0.0,0.0,0.0,0.0,0.0,0.0,0.0,0.0,0.0,0.0,0.0,0.0,0.0,0.0,0.0,0.0,0.0,0.0,0.0,0.0,0.0,0.0,0.0,0.0,0.0,0.0,0.0,0.0,0.0,0.0,0.0,0.0,0.0,0.0,0.0,0.0,0.0,0.0,0.0,0.0,0.0,0.0,0.0,0.0,0.0,0.0,0.0,0.0,0.0,0.0,0.0,0.0,0.0,0.0,0.0,0.0,0.0,0.0,0.0,0.0,0.0,0.0,0.0,0.0,0.0,0.0,0.0,0.0,0.0,0.0,0.0,0.0,3.3111,3.3111,3.3111,3.3111,3.3111,3.3111,3.3111,3.3111,3.2993,3.2842,0.0,0.0,0.0,0.0,0.0,0.0,0.0,0.0,0.0,0.0,0.0,0.0,0.0,0.0,0.0,0.0,0.0,0.0,0.0,0.0,0.0,0.0,0.0,0.0,0.0,0.0,0.0,0.0,0.0,0.0,0.0,0.0,0.0,0.0,0.0,0.0,0.0,0.0,0.0,0.0,0.0,0.0,0.0,0.0,0.0,0.0,0.0,0.0,0.0,0.0,0.0,0.0,0.0,0.0,0.0,0.0,0.0,0.0,0.0,0.0,0.0,0.0,0.0,0.0,0.0,0.0,0.0,0.0,0.0,0.0,0.0,0.0,0.0,0.0,0.0,0.0,0.0,0.0,0.0,0.0,0.0,0.0,0.0,0.0,0.0,0.0,0.0,0.0,0.0,0.0,0.0,0.0,0.0,0.0,0.0,0.0,0.0,0.0,0.0,0.0,0.0,0.0,3.3111,3.3111,3.3111,3.3111,3.3111,3.3111,3.3111,3.3111,3.3111,3.3111,0.0,0.0,0.0,0.0,0.0,0.0,0.0,0.0,0.0,0.0,0.0,0.0,0.0,0.0,0.0,0.0,0.0,0.0,0.0,0.0,0.0,0.0,0.0,0.0,0.0,0.0,0.0,0.0,0.0,0.0,0.0,0.0,0.0,0.0,0.0,0.0,0.0,0.0,0.0,0.0,0.0,0.0,0.0,0.0,0.0,0.0,0.0,0.0,0.0,0.0,0.0,0.0,0.0,0.0,0.0,0.0,0.0,0.0,0.0,0.0,0.0,0.0,0.0,0.0,0.0,0.0,0.0,0.0,0.0,0.0,0.0,0.0,0.0,0.0,0.0,0.0,0.0,0.0,0.0,0.0,0.0,0.0,0.0,0.0,0.0,0.0,0.0,0.0,0.0,0.0,0.0,0.0,0.0,0.0,0.0,0.0,0.0,0.0,0.0,0.0,0.0,0.0,3.3111,3.3111,3.3111,3.3111,3.3111,3.3111,3.3111,3.3111,3.3111,3.3111,0.0,0.0,0.0,0.0,0.0,0.0,0.0,0.0,0.0,0.0,0.0,0.0,0.0,0.0,0.0,0.0,0.0,0.0,0.0,0.0,0.0,0.0,0.0,0.0,0.0,0.0,0.0,0.0,0.0,0.0,0.0,0.0,0.0,0.0,0.0,0.0,0.0,0.0,0.0,0.0,0.0,0.0,0.0,0.0,0.0,0.0,0.0,0.0,0.0,0.0,0.0,0.0,0.0,0.0,0.0,0.0,0.0,0.0,0.0,0.0,2.631,2.66,0.0,0.0,0.0,0.0,0.0,0.0,0.0,0.0,0.0,0.0,0.0,0.0,0.0,0.0,0.0,0.0,0.0,0.0,0.0,0.0,0.0,0.0,0.0,0.0,0.0,0.0,0.0,0.0,0.0,0.0,0.0,0.0,0.0,0.0,0.0,0.0,0.0,0.0,0.0,0.0,3.3111,3.3111,3.3111,3.3111,3.3111,3.3111,3.3111,3.3111,3.3111,3.3111,3.3111,0.0,0.0,0.0,0.0,0.0,0.0,0.0,0.0,0.0,0.0,0.0,0.0,0.0,0.0,0.0,0.0,0.0,0.0,0.0,0.0,0.0,0.0,0.0,0.0,0.0,0.0,0.0,0.0,0.0,0.0,0.0,0.0,0.0,0.0,0.0,0.0,0.0,0.0,0.0,0.0,0.0,0.0,0.0,0.0,0.0,0.0,0.0,0.0,0.0,0.0,0.0,0.0,0.0,0.0,0.0,0.0,0.0,0.0,0.0,2.6543,2.6626,0.0,0.0,0.0,0.0,0.0,0.0,0.0,0.0,0.0,0.0,0.0,0.0,0.0,0.0,0.0,0.0,0.0,0.0,0.0,0.0,0.0,0.0,0.0,0.0,0.0,0.0,0.0,0.0,0.0,0.0,0.0,0.0,0.0,0.0,0.0,0.0,0.0,0.0,0.0,0.0,3.3111,3.3111,3.3111,3.3111,3.268,3.2394,3.2394,3.2394,3.2394,3.2394,3.2853,0.0,0.0,0.0,0.0,0.0,0.0,0.0,0.0,0.0,0.0,0.0,0.0,0.0,0.0,0.0,0.0,0.0,0.0,0.0,0.0,0.0,0.0,0.0,0.0,0.0,0.0,0.0,0.0,0.0,0.0,0.0,0.0,0.0,0.0,0.0,0.0,0.0,0.0,0.0,0.0,0.0,0.0,0.0,0.0,0.0,0.0,0.0,0.0,0.0,0.0,0.0,0.0,0.0,2.7246,2.7246,2.7246,2.7246,2.7246,2.7246,2.7246,2.7148,2.7012,2.7012,0.0,0.0,0.0,0.0,0.0,0.0,0.0,0.0,0.0,0.0,0.0,0.0,0.0,0.0,0.0,0.0,0.0,0.0,0.0,0.0,0.0,0.0,3.0422,3.0422,2.9663,2.9385,3.0991,0.0,0.0,0.0,0.0,0.0,0.0,0.0,0.0,0.0,0.0,0.0,3.2612,3.2568,3.2568,3.2568,3.1845,3.1359,3.1359,3.1492,3.1581,3.1581,3.2525,3.3111,0.0,0.0,0.0,0.0,0.0,0.0,0.0,0.0,0.0,0.0,0.0,0.0,0.0,0.0,0.0,0.0,0.0,0.0,0.0,0.0,0.0,0.0,0.0,0.0,0.0,0.0,0.0,0.0,0.0,0.0,0.0,0.0,2.6774,2.6797,0.0,0.0,0.0,0.0,0.0,0.0,0.0,0.0,0.0,0.0,0.0,0.0,0.0,2.7207,2.7578,2.763,2.7773,2.8125,2.8125,2.8125,2.8125,2.8125,2.8125,2.8125,2.8125,0.0,2.7012,2.7012,0.0,0.0,0.0,0.0,0.0,0.0,0.0,0.0,0.0,0.0,0.0,0.0,0.0,0.0,0.0,0.0,0.0,0.0,0.0,0.0,0.0,0.0,3.1314,3.1314,3.0574,2.9991,3.0211,3.0255,3.026,3.0351,3.0396,3.0666,0.0,0.0,0.0,0.0,0.0,0.0,3.0666,3.0576,3.0576,3.0576,3.0441,3.0396,3.0396,3.1113,3.1581,3.1581,3.2525,3.3111,3.3111,3.3111,0.0,0.0,0.0,0.0,0.0,0.0,0.0,0.0,0.0,0.0,0.0,0.0,0.0,0.0,0.0,0.0,0.0,0.0,0.0,0.0,0.0,0.0,0.0,0.0,0.0,0.0,0.0,0.0,0.0,2.7103,2.6949,2.6992,2.7012,2.7012,0.0,0.0,0.0,0.0,0.0,0.0,0.0,0.0,0.0,2.7734,2.7734,2.7832,2.8027,2.8027,2.8105,2.8301,2.8301,2.8418,2.8652,2.8652,2.8769,2.9004,2.875,2.8437,2.8066,2.7832,2.7734,2.7734,0.0,0.0,0.0,0.0,2.9719,3.0083,2.9978,2.9992,3.0098,2.9747,0.0,0.0,0.0,0.0,0.0,0.0,0.0,3.1994,3.0967,3.0678,3.0581,2.9998,2.9578,2.9254,2.9254,2.9305,2.9485,3.0056,2.9927,3.0305,3.2124,3.1561,0.0,0.0,0.0,3.1448,3.1024,3.1492,3.1845,3.1845,3.1315,3.0979,3.0979,3.1359,3.1581,3.1581,3.2525,3.3111,3.3111,3.3111,3.3111,0.0,0.0,0.0,0.0,0.0,0.0,0.0,0.0,0.0,0.0,0.0,0.0,0.0,0.0,0.0,0.0,0.0,0.0,0.0,0.0,0.0,0.0,0.0,0.0,0.0,0.0,0.0,0.0,2.7475,2.7226,2.7324,2.7344,2.7344,0.0,0.0,0.0,0.0,0.0,0.0,2.8301,2.8301,2.8301,2.8301,2.8398,2.8457,2.8457,2.8555,2.8613,2.8613,2.8613,2.8789,2.9082,2.9082,2.9258,2.9551,2.9219,2.9082,2.9043,2.8516,2.8301,2.8301,2.8301,2.8301,2.8388,2.9217,2.9513,2.9472,2.9146,2.9198,2.9291,2.8818,2.9048,2.96,3.0373,0.0,0.0,0.0,0.0,3.106,3.0091,2.9892,2.9742,2.8909,2.8807,2.8807,2.8757,2.8706,2.8948,2.9593,2.9445,2.9873,3.1972,3.1135,0.0,3.1645,3.1479,3.1108,3.088,3.1397,3.1773,3.1773,3.1208,3.0756,3.0531,3.1181,3.1492,3.127,3.2394,3.3111,3.3111,3.3111,3.3111,3.3111,0.0,0.0,0.0,0.0,0.0,0.0,0.0,0.0,0.0,0.0,0.0,0.0,0.0,0.0,0.0,0.0,0.0,0.0,0.0,0.0,0.0,0.0,0.0,0.0,0.0,0.0,0.0,0.0,0.0,2.8184,2.8223,0.0,0.0,0.0,0.0,2.8262,2.8281,2.8301,2.8301,2.8301,2.8301,2.8301,2.8672,2.8887,2.8887,2.9297,2.9512,2.9512,2.9512,2.9567,2.9531,2.9531,2.9607,2.9626,2.9607,2.9531,2.9528,2.8633,2.8301,2.8301,2.8301,2.8301,2.8301,2.8335,2.8388,2.8388,2.8368,2.8368,2.8368,2.8349,2.9189,3.0244,3.0296,3.12,0.0,0.0,3.0739,3.0502,2.942,2.9387,2.9545,2.9177,2.9335,2.9493,2.9124,2.9051,2.8967,2.8723,2.8636,2.8985,3.0068,0.0,3.0122,3.0193,3.0219,2.9808,2.8872,2.8397,2.8174,2.8174,2.8563,2.8491,2.7573,3.0034,3.1226,3.0351,3.2021,3.3111,3.3111,3.3111,3.3111,3.3111,3.3111,0.0,0.0,0.0,0.0,0.0,0.0,0.0,0.0,0.0,0.0,0.0,0.0,0.0,0.0,0.0,0.0,0.0,0.0,0.0,0.0,0.0,0.0,0.0,0.0,0.0,0.0,0.0,0.0,2.8281,2.8301,0.0,2.8301,2.8301,2.8301,2.8301,2.8535,2.8691,2.8691,2.8965,2.9121,2.9121,2.9258,2.9336,2.9336,2.9492,2.9626,2.9626,2.9626,2.9707,2.998,2.998,3.0137,3.041,3.0098,2.998,2.9922,2.9355,2.9121,2.9121,2.9121,2.9121,2.9082,2.8789,2.8691,2.8652,2.8379,2.8301,2.8301,2.8301,2.8601,2.9059,2.9217,2.9586,2.9984,2.9984,2.9984,2.9953,2.9711,2.9659,2.9606,2.9679,2.9659,2.9606,2.9679,2.9679,2.9629,2.9508,2.9116,2.9196,3.0586,2.9885,2.9487,3.0482,3.0313,2.9992,2.9599,2.9942,3.0219,3.0219,3.0108,3.019,3.0468,3.1192,3.1713,3.2021,3.2723,3.3111,3.3111,3.3111,3.3111,3.3111,3.3111,3.3111,0.0,0.0,0.0,0.0,0.0,0.0,0.0,0.0,0.0,0.0,0.0,0.0,0.0,0.0,0.0,0.0,0.0,0.0,0.0,0.0,0.0,0.0,0.0,0.0,0.0,2.8461,2.8301,2.8301,2.8301,2.834,2.8496,2.8496,2.8555,2.8711,2.8984,2.9141,2.9141,2.9414,2.9629,2.9785,2.9941,3.0078,3.0215,3.0371,3.0507,3.0507,3.0507,3.0586,3.0859,3.0859,3.1035,3.1289,3.084,3.0644,3.0605,3.0195,3.0019,2.998,2.9687,2.9626,2.9531,2.9238,2.9141,2.9101,2.8828,2.873,2.873,2.873,2.873,2.8746,2.877,2.8785,2.8799,2.9066,2.9185,2.9185,2.9363,2.9363,2.929,2.9416,2.9363,2.929,2.9416,2.9416,2.9469,2.9522,2.9381,2.9591,3.0639,2.9815,2.9522,3.0961,3.0443,3.012,3.0547,3.0641,3.0678,3.0776,3.0622,3.071,3.0993,3.171,3.2037,3.1845,3.2797,3.3139,3.2636,3.2939,3.3111,3.3111,3.3111,3.3111,3.3111,0.0,0.0,0.0,0.0,0.0,0.0,0.0,0.0,0.0,0.0,0.0,0.0,0.0,0.0,0.0,0.0,0.0,0.0,0.0,0.0,0.0,0.0,0.0,2.8621,2.8461,2.8301,2.832,2.832,2.8476,2.8906,2.8945,2.9121,2.9607,2.9646,2.9665,2.9665,2.9704,2.9844,3.0234,3.0703,3.1133,3.1543,3.1953,3.2229,3.2229,3.2229,3.2229,3.2229,3.2229,3.2229,3.2148,3.1719,3.1543,3.1504,3.1094,3.0937,3.084,2.9961,2.9665,2.9665,2.959,2.9646,2.9626,2.9626,2.9626,2.9626,2.9626,2.9626,2.9492,2.9062,2.8945,2.8848,2.8437,2.834,2.834,2.8374,2.8554,2.866,2.8427,2.8534,2.8641,2.8408,2.8354,2.8461,2.8674,2.9416,2.9994,2.9994,2.9994,3.0339,3.1381,3.0422,0.0,3.1432,3.0095,2.9075,2.9383,2.9849,2.9817,2.8828,3.1424,3.2113,2.9727,3.2282,3.3251,3.1717,3.2593,3.3111,3.3111,3.3111,3.3111,3.3111,0.0,0.0,0.0,0.0,0.0,0.0,0.0,0.0,0.0,0.0,0.0,0.0,0.0,0.0,0.0,0.0,0.0,0.0,0.0,0.0,0.0,2.8804,2.8633,2.8447,2.8354,2.8398,2.8711,2.875,2.8926,2.9355,2.9394,2.9434,2.9607,3.0176,3.0527,3.0527,3.1113,3.1563,3.1621,3.1758,3.1875,3.1992,3.2109,3.2229,3.2229,3.2229,3.2229,3.2229,3.2229,3.2229,3.2168,3.2051,3.1992,3.1973,3.1875,3.1816,3.1738,3.0859,3.0527,3.0488,3.0156,2.9824,2.9626,2.9626,2.9626,2.9626,2.9626,2.9626,2.9607,2.9434,2.9394,2.943,2.9534,2.9494,2.9549,2.9769,2.9714,2.96,2.9425,2.9453,2.9427,2.9265,2.9396,2.9574,2.9627,2.9837,2.9942,2.9711,2.9889,3.0099,3.0391,3.013,3.0287,3.1432,3.117,3.1186,3.2046,3.1946,3.2042,3.2455,3.2983,3.3208,3.3225,3.3653,3.369,3.3275,3.3164,3.3111,3.3111,3.3111,3.3111,0.0,0.0,0.0,0.0,0.0,0.0,0.0,0.0,0.0,0.0,0.0,0.0,0.0,0.0,0.0,0.0,0.0,0.0,0.0,0.0,0.0,0.0,2.8906,2.9101,2.8867,2.8828,2.8926,2.916,2.9199,2.9355,2.9785,3.0019,3.0195,3.0371,3.1035,3.1426,3.1426,3.1894,3.2307,3.2422,3.2422,3.2519,3.2695,3.2695,3.2695,3.2695,3.2695,3.2695,3.2695,3.2695,3.2695,3.2676,3.25,3.2422,3.2422,3.2246,3.2229,3.215,0.0,0.0,0.0,0.0,3.0332,3.0117,3.0117,3.0117,3.0117,3.0117,3.0117,3.0078,2.9883,2.9824,2.9861,2.9852,2.9849,2.9849,3.0016,2.996,2.979,2.9754,2.9694,2.963,2.9387,2.9413,2.9513,2.9457,2.9574,0.0,2.9606,2.9837,3.0151,3.0599,3.0183,3.0422,3.2044,3.1688,3.179,3.3051,3.2429,3.2396,3.3595,3.3409,0.0,0.0,0.0,3.4195,3.3296,3.3171,0.0,0.0,0.0,3.3111,3.3111,3.3111,0.0,0.0,3.2742,3.2441,0.0,0.0,0.0,0.0,0.0,0.0,0.0,0.0,0.0,0.0,0.0,0.0,0.0,0.0,0.0,0.0,2.9355,2.9704,2.9704,2.9726,2.9746,2.9704,2.9687,2.9883,3.0312,3.0762,3.1191,3.1562,3.1992,3.2307,3.2307,3.2285,0.0,0.0,0.0,3.3047,3.3418,3.3418,3.3418,3.3418,3.3418,3.3418,3.3418,3.3418,3.3418,3.3398,3.3027,3.2871,3.2832,3.2461,3.2285,3.2187,3.1758,3.1582,3.1543,3.1113,3.0957,3.0957,3.0918,0.0,0.0,3.0898,3.0898,3.082,3.041,3.0273,3.0195,2.9824,2.9783,2.9783,2.9783,2.9783,2.9707,2.9648,2.9704,2.9643,2.9192,2.9094,2.9139,2.8939,2.9106,2.9298,2.9627,2.9837,3.0339,3.1278,3.0422,3.0474,3.275,3.179,3.1483,3.3051,3.2246,0.0,3.33,3.3499,3.3389,3.2996,3.455,3.464,3.2741,3.2983,3.2754,3.1898,3.2705,3.3111,3.3111,3.3111,3.3111,3.3111,3.3111,3.2749,0.0,0.0,0.0,0.0,0.0,0.0,0.0,0.0,0.0,0.0,0.0,0.0,0.0,0.0,0.0,2.9656,2.9805,3.0078,3.0078,3.0684,3.0879,3.0156,3.041,3.0801,3.1211,3.166,3.1953,3.2031,3.2441,3.2676,3.2676,3.2988,3.3223,3.3301,3.3301,3.334,3.3418,3.3418,3.3418,3.3418,3.3418,0.0,3.3418,3.3418,3.3418,3.3418,3.334,3.3301,3.3301,3.3203,3.2988,3.2637,3.2207,3.2051,3.1992,3.1562,3.1406,3.1348,3.1016,3.0898,3.0898,3.0898,3.0898,3.0879,3.0781,3.0762,0.0,3.0664,3.0644,3.0644,3.0644,3.0644,3.0547,3.0156,3.0475,3.0694,3.0274,3.0559,3.0819,3.0368,3.0158,2.9962,2.9951,2.9994,3.0047,3.0287,3.0099,3.0391,3.1739,3.1637,3.1891,3.3051,3.3747,3.4239,3.4483,3.5283,3.5713,3.5662,3.5547,3.5115,3.4304,3.3934,3.3633,3.3457,3.3208,3.3111,3.3111,3.3111,3.3111,3.3111,3.3111,3.2605,0.0,0.0,0.0,0.0,0.0,0.0,0.0,0.0,0.0,0.0,0.0,3.0499,2.9809,0.0,3.0685,2.9996,3.0254,3.0625,3.082,3.123,3.1348,3.0918,3.125,3.1621,3.1816,3.2226,3.248,3.248,3.2871,3.3105,3.3105,3.3301,3.3418,3.3418,3.3418,3.3418,3.3418,3.3418,3.3418,3.3418,3.3418,3.3418,3.3418,3.3418,3.3418,3.3418,3.3418,3.3418,3.3418,3.3418,3.3301,3.3086,3.2871,3.2539,3.2148,3.1934,3.1836,3.1816,3.1601,3.1387,3.1211,3.1211,3.1055,3.0898,3.0898,3.0898,3.0898,3.0898,3.0898,3.0898,3.0898,3.0898,3.0878,3.0759,3.0988,3.1097,3.0826,3.1025,3.1125,3.0676,3.1042,3.1305,3.0948,3.149,3.1529,3.0172,2.9994,3.0391,3.1483,3.1942,3.2448,3.3151,3.4042,3.4629,3.4775,3.5763,3.6405,3.6405,3.5855,3.5173,3.4413,3.4329,3.395,3.3182,3.3377,3.3127,3.2351,3.2853,3.2853,3.2351,3.2853,3.2853,0.0,0.0,0.0,0.0,0.0,0.0,0.0,2.9373,2.9728,2.9753,2.9893,3.0043,3.0043,3.0209,3.0332,3.0332,3.0723,3.1133,3.1465,3.166,3.1758,3.1758,3.207,3.2285,3.2285,3.2676,3.291,3.291,3.3223,3.3418,3.3418,3.3418,3.3418,3.3418,3.3418,3.3418,3.3418,3.3418,3.3418,3.3418,3.3418,3.3418,3.3418,3.3418,3.3418,3.3418,3.3418,3.3418,3.3418,3.3418,3.3418,3.3418,3.3418,3.3008,3.2402,3.2324,3.2285,3.2346,3.2268,3.1934,3.1641,3.1641,3.1348,3.1016,3.1016,3.0957,3.0898,3.0898,3.0898,3.0898,3.0898,3.0898,3.0937,3.117,3.1267,3.1283,3.1268,3.1301,3.1236,3.0848,3.1738,3.233,3.1785,3.2507,3.2598,3.087,3.0599,3.094,3.179,3.2499,3.2951,3.3201,3.3993,3.4629,3.5066,3.5906,3.6405,3.6405,3.5956,3.5354,3.4577,3.4739,3.4289,3.3026,3.3672,3.3325,3.1889,3.2823,3.2618,3.148,3.2389,3.2698,2.9816,2.929,2.8781,2.8727,2.8727,2.8773,0.0,2.9179,2.9501,2.9581,2.99,3.0174,3.0174,3.0508,3.082,3.082,3.1172,3.1465,3.1504,3.2168,3.2656,3.2656,3.2695,3.2734,3.2734,3.3105,3.3359,3.3359,3.3398,3.3418,3.3418,3.3418,3.3418,3.3418,3.3418,3.3418,3.3418,3.3418,3.3418,3.3418,3.3418,3.3418,3.3418,3.3418,3.3418,3.3418,3.3418,3.3418,3.3418,3.3418,3.3418,3.3418,3.3418,3.3359,3.3242,3.2871,3.2734,3.2676,3.2305,3.2148,3.209,3.209,3.1797,3.1445,3.1445,3.1191,3.0898,3.0898,3.0898,3.0898,3.0898,3.0898,3.0898,3.0937,3.1112,3.1363,3.1669,3.1957,3.2101,3.1875,3.1773,3.1684,3.147,3.0764,3.0842,3.2566,3.2851,3.2901,3.3001,3.3101,3.3151,3.3201,3.4141,3.5138,3.6168,3.631,3.6405,3.6405,3.6355,3.6257,3.6163,3.5683,3.5336,3.5169,3.4785,3.4079,3.2939,3.3527,3.2791,3.0884,3.1496,3.1315,2.9396,2.9046,2.8734,2.8829,2.8834,2.8878,2.9254,2.9603,2.9895,2.9959,3.0293,3.0605,3.0605,3.0762,3.0976,3.1211,3.1406,3.1699,3.2187,3.2578,3.2891,3.3125,3.3164,3.3164,3.3164,3.332,3.3418,3.3418,3.3418,3.3418,3.3418,3.3418,3.3418,3.3418,3.3418,3.3418,3.3418,3.3418,3.3418,3.3418,3.3418,3.3418,3.3418,3.3418,3.3418,3.3418,3.3418,3.3418,3.3418,3.3418,3.3418,3.3418,3.3418,3.3418,3.3398,3.3223,3.3164,3.3144,3.2969,3.2734,3.2539,3.2539,3.2246,3.1894,3.1894,3.1601,3.125,3.125,3.1074,3.0898,3.0898,3.0898,3.0937,3.1112,3.1208,3.1383,3.173,3.2076,3.2264,3.2174,3.2811,3.3146,3.2733,3.289,3.3471,3.4805,3.3315,3.2297,3.3101,3.3747,3.4385,3.4969,3.4872,3.521,3.631,3.6405,3.6405,3.6405,3.6405,3.6405,3.6405,3.6132,3.5881,3.5508,3.5282,3.4529,3.324,3.3657,3.2989,3.1288,3.1736,3.1019,2.9333,2.9039,2.9001,2.9078,2.9101,2.9219,2.9648,2.998,3.0234,3.0371,3.0644,3.0898,3.0898,3.0898,3.1035,3.1445,3.1621,3.1953,3.2695,3.2891,3.3086,3.3379,3.3418,3.3418,3.3418,3.3418,3.3418,3.3418,3.3418,3.3418,3.3418,3.3418,3.3418,3.3418,3.3418,3.3418,3.3418,3.3418,3.3418,3.3418,3.3418,3.3418,3.3418,3.3418,3.3418,3.3418,3.3418,3.3418,3.3418,3.3418,3.3418,3.3418,3.3418,3.3418,3.3418,3.3418,3.3418,3.3418,3.3418,3.3223,3.2969,3.2969,3.2676,3.2344,3.2344,3.2031,3.1699,3.1699,3.1387,3.1055,3.1055,3.0976,3.0937,3.117,3.1267,3.1383,3.173,3.2076,3.2305,3.2363,3.3254,3.3991,3.39,3.4413,3.5207,3.6319,3.4244,3.2938,3.4179,3.4871,3.5523,3.631,3.5715,3.5571,3.631,3.6405,3.6405,3.6405,3.6405,3.6405,3.6405,3.6405,3.6182,3.578,3.578,3.508,3.3674,3.4135,3.3484,3.1817,3.2302,3.1496,2.947,2.9514,2.9587,2.9607,2.9551,2.9668,3.0078,3.0176,3.0332,3.0781,3.0879,3.0898,3.0898,3.0898,3.1035,3.1445,3.1875,3.2305,3.2734,3.3144,3.3398,3.3418,3.3418,3.3418,3.3418,3.3418,3.3418,3.3418,3.3418,3.3418,3.3418,3.3418,3.3418,3.3418,3.3418,3.3418,3.3418,3.3418,3.3418,3.3418,3.3418,3.3418,3.3418,3.3418,3.3418,3.3418,3.3418,3.3418,3.3418,3.3418,3.3418,3.3418,3.3418,3.3418,3.3418,3.3418,3.3418,3.3418,3.3418,3.3418,3.3398,3.3398,3.3125,3.2773,3.2773,3.248,3.2148,3.2148,3.1836,3.1504,3.1504,3.1191,3.0898,3.0898,3.1112,3.1383,3.173,3.2076,3.2363,3.2612,3.2727,3.3105,3.4302,3.391,3.427,3.6716,3.6371,3.6148,3.6969,3.6636,3.6358,3.6405,3.6358,3.6358,3.6405,3.6405,3.6405,3.6405,3.6405,3.6405,3.6405,3.6405,3.6405,3.638,3.638,3.5805,3.468,3.5207,3.44,3.2391,3.2967,3.2919,2.9873,2.9695,2.9629,2.9922,2.998,3.0098,3.0547,3.0664,3.0703,3.0859,3.0898,3.0898,3.0898,3.0898,3.1035,3.1445,3.1875,3.2324,3.2734,3.3164,3.3418,3.3418,3.3418,3.3418,3.3418,3.3418,3.3418,3.3418,3.3418,3.3418,3.3418,3.3418,3.3418,3.3418,3.3418,3.3418,3.3418,3.3418,3.3418,3.3418,3.3418,3.3418,3.3418,3.3418,3.3418,3.3418,3.3418,3.3418,3.3418,3.3418,3.3418,3.3418,3.3418,3.3418,3.3418,3.3418,3.3418,3.3418,3.3418,3.3418,3.3418,3.3418,3.332,3.3203,3.3203,3.291,3.2578,3.2578,3.2285,3.1953,3.1953,3.1621,3.1309,3.1309,3.1152,3.1112,3.1383,3.173,3.2076,3.2363,3.2555,3.2841,3.3218,3.3092,3.3643,3.5656,3.6726,3.7271,3.7213,3.701,3.6807,3.6455,3.6405,3.6405,3.6405,3.6405,3.6405,3.6405,3.6405,3.6405,3.6405,3.6405,3.6405,3.6405,3.6405,3.6229,3.5805,3.5583,3.4969,3.3905,3.3776,3.3093,3.0254,3.0148,3.0117,3.0371,3.0449,3.0527,3.082,3.0898,3.0898,3.0898,3.0898,3.0898,3.0898,3.0898,3.1074,3.166,3.1992,3.2363,3.293,3.3242,3.3418,3.3418,3.3418,3.3418,3.3418,3.3418,3.3418,3.3418,3.3418,3.3418,3.3418,3.3418,3.3418,3.3418,3.3418,3.3418,3.3418,3.3418,3.3418,3.3418,3.3418,3.3418,3.3418,3.3418,3.3418,3.3418,3.3418,3.3418,3.3418,3.3418,3.3418,3.3418,3.3418,3.3418,3.3418,3.3418,3.3418,3.3418,3.3418,3.3418,3.3418,3.3418,3.3418,3.3418,3.3418,3.3242,3.3008,3.3008,3.2715,3.2383,3.2383,3.207,3.1758,3.1758,3.1544,3.1348,3.1621,3.183,3.2076,3.2363,3.2555,3.2841,3.3275,3.4043,3.4968,3.6147,3.7621,3.8341,3.7563,3.7312,3.7036,3.6732,3.6531,3.6405,3.6405,3.6405,3.6405,3.6405,3.6405,3.6405,3.6405,3.6405,3.6216,3.581,3.581,3.581,3.581,3.5417,3.5258,3.5303,3.4951,3.4205,3.0653,3.0739,3.0898,3.0898,3.0898,3.0898,3.0898,3.0898,3.0898,3.0898,3.0898,3.0898,0.0,0.0,3.1191,3.2012,3.2168,3.248,3.3281,3.3418,3.3418,3.3418,3.3418,3.3418,3.3418,3.3418,3.3418,3.3418,3.3418,3.3418,3.3418,3.3418,3.3418,3.3418,3.3418,3.3418,3.3418,3.3418,3.3418,3.3418,3.3418,3.3418,3.3418,3.3418,3.3418,3.3418,3.3418,3.3418,3.3418,3.3418,3.3418,3.3418,3.3418,3.3418,3.3418,3.3418,3.3418,3.3418,3.3418,3.3418,3.3418,3.3418,3.3418,3.3418,3.3418,3.3418,3.3418,3.3418,3.3144,3.2832,3.2832,3.2519,3.2207,3.2207,3.2116,3.2078,3.2353,3.2362,3.2404,3.2653,3.269,3.3105,3.4357,3.6371,3.7844,3.7897,3.8921,3.9295,3.8191,3.7588,3.7236,3.7186,3.6757,3.643,3.6405,3.6405,3.6405,3.6405,3.6405,3.6405,3.6405,3.6405,3.5906,3.4872,3.4824,3.4824,3.4872,3.4824,3.5379,3.6405,3.6405,3.6081,3.0897,3.0859,3.0898,3.0898,3.0898,3.0898,3.0898,3.0898,3.0898,3.0898,3.0898,3.0898,3.0898,3.1152,3.1426,3.1641,3.2226,0.0,3.293,3.3223,3.3418,3.3418,3.3418,3.3418,3.3418,3.3418,3.3418,3.3418,3.3418,3.3418,3.3418,3.3418,3.3418,3.3418,3.3418,3.3418,3.3418,3.3418,3.3418,3.3418,3.3418,3.3418,3.3418,3.3418,3.3418,3.3418,3.3418,3.3418,3.3418,3.3418,3.3418,3.3418,3.3418,3.3418,3.3418,3.3418,3.3418,3.3418,3.3418,3.3418,3.3418,3.3418,3.3418,3.3418,3.3418,3.3418,3.3418,3.3418,3.334,3.3262,3.3262,3.2949,3.2637,3.2637,3.2366,3.2234,3.2455,3.2474,3.2446,3.2796,3.2782,3.3332,3.5443,3.624,3.6911,3.7791,3.8921,3.9446,3.8743,3.8517,3.8115,3.7287,3.7061,3.6857,3.643,3.6405,3.6405,3.6405,3.6405,3.6405,3.6405,3.6405,3.6263,3.6001,3.521,3.5162,3.6026,3.5187,3.5379,3.6405,3.6405,3.6329,3.0937,3.0898,3.0898,3.0898,3.0898,3.0898,3.0898,3.0898,3.0898,3.0898,3.0898,3.0937,3.1133,3.1367,3.1641,0.0,0.0,0.0,3.3047,3.3281,3.3418,0.0,3.3418,3.3418,3.3418,3.3418,3.3418,3.3418,3.3418,3.3418,3.3418,3.3418,3.3418,3.3418,3.3418,3.3418,3.3418,3.3418,3.3418,3.3418,3.3418,3.3418,3.3418,3.3418,3.3418,3.3418,3.3418,3.3418,3.3418,3.3418,3.3418,3.3418,3.3418,3.3418,3.3418,3.3418,3.3418,3.3418,3.3418,3.3418,3.3418,3.3418,3.3418,3.3418,3.3418,3.3776,3.4153,3.3544,3.3839,3.4153,3.3544,3.3242,3.3066,3.3066,3.2754,3.2564,3.285,3.2815,3.2791,3.3059,3.3304,3.3931,3.5223,3.6294,3.718,3.7791,3.8921,3.9572,3.927,3.907,3.8668,3.799,3.7487,3.7061,3.6807,3.6556,3.6405,3.6405,3.6405,3.6405,3.6405,3.6405,3.6168,3.5715,3.5114,3.509,3.5715,3.4629,3.4872,3.6405,3.5906,3.5953,3.0898,3.0898,3.0898,3.0898,3.0898,3.0898,3.0898,3.0898,3.0898,3.0898,3.0898,3.1016,3.1445,3.1562,3.1875,3.2676,0.0,3.3008,3.3379,3.3418,3.3418,3.3418,3.3418,3.3418,3.3418,3.3418,3.3418,3.3418,3.3418,3.3418,3.3418,3.3418,3.3418,3.3418,3.3418,3.3418,3.3418,3.3418,3.3418,3.3418,3.3418,3.3418,3.3418,3.3418,3.3418,3.3418,3.3418,3.3418,3.3418,3.3418,3.3418,3.3418,3.3418,3.3418,3.3418,3.3418,3.3418,3.3418,3.3418,3.3418,3.3418,3.3418,3.3418,3.3418,3.3418,3.4215,3.4943,3.3902,3.4528,3.5129,3.3965,3.367,3.3607,3.3418,3.3144,3.2933,3.3243,3.3274,3.3274,3.3589,3.4012,3.45,3.4858,3.648,3.7767,3.8108,3.9025,3.9697,3.9697,3.927,3.8994,3.8919,3.8039,3.7337,3.7186,3.6782,3.648,3.6405,3.6405,3.6405,3.6405,3.6405,3.5953,3.5017,3.4872,3.4872,3.5017,3.3796,3.4239,3.6168,3.5066,3.5162,3.0898,3.0898,3.0898,3.0898,3.0898,3.0898,3.0898,3.0898,0.0,0.0,3.0898,3.1016,3.1445,3.1816,3.2226,3.2715,3.3086,3.334,3.3418,3.3418,3.3418,0.0,3.3418,3.3418,3.3418,3.3418,3.3418,3.3418,3.3418,3.3418,3.3418,3.3418,3.3418,3.3418,3.3418,3.3418,3.3418,3.3418,3.3418,3.3418,3.3418,3.3418,3.3418,3.3418,3.3418,3.3418,3.3418,3.3418,3.3418,3.3418,3.3418,3.3418,3.3418,3.3418,3.3418,3.3418,3.3418,3.3418,3.3418,3.3418,3.3418,3.3418,3.3418,3.3418,3.3418,3.3544,3.3902,3.4839,3.5191,3.5376,3.5129,3.5067,3.4757,3.367,3.3359,3.332,3.3364,3.3528,3.3901,3.4675,3.4153,3.4361,3.6874,3.6858,3.718,3.9102,3.9594,3.9697,3.9697,3.9622,3.9371,3.8969,3.8743,3.8191,3.7262,3.7086,3.6883,3.643,3.6405,3.6405,3.6405,3.6405,3.631,3.6121,3.5259,3.5235,3.6121,3.4141,3.3845,3.5066,3.3993,3.4042,3.0898,3.0898,3.0898,3.0898,3.0898,3.0898,3.0898,0.0,0.0,0.0,3.1074,3.1348,3.1777,3.2207,0.0,3.3047,3.3281,3.3418,3.3418,3.3418,3.3418,3.3418,3.3418,3.3418,3.3418,3.3418,3.3418,3.3418,3.3633,3.3652,3.3437,3.3418,3.3418,3.3418,3.3418,3.3418,3.3418,3.3418,3.3418,3.3418,3.3418,3.3418,3.3418,3.3418,3.3418,3.3418,3.3418,3.3418,3.3418,3.3418,3.3418,3.3418,3.3418,3.3418,3.3418,3.3418,3.3418,3.3418,3.3418,3.3418,3.3418,3.3418,3.3839,3.434,3.3607,3.434,3.5417,3.5438,3.5848,3.6399,3.6399,3.5909,3.5253,3.457,3.3902,3.3481,3.3859,3.3833,3.3943,3.4492,3.4444,3.4696,3.5918,3.6642,3.7447,3.8607,3.931,3.9697,3.9697,3.9697,3.9597,3.932,3.9095,3.8693,3.8115,3.7513,3.7061,3.6857,3.6556,3.6405,3.6405,3.6405,3.6405,3.6405,3.5906,3.5858,3.6405,3.4824,3.4581,3.5619,3.3944,3.3796,3.0898,3.0898,3.0898,3.0898,3.0898,3.0898,3.0898,3.0898,0.0,3.0898,3.123,3.166,3.209,3.2519,3.293,0.0,3.3418,3.3418,3.3418,3.3418,3.3418,0.0,3.3418,0.0,3.3418,3.3496,3.3555,3.3555,3.3965,3.4062,3.3711,3.3691,3.3691,3.3691,3.3613,3.3555,3.3555,3.3476,3.3418,3.3418,3.3418,3.3418,3.3418,3.3418,3.3418,3.3418,3.3418,3.3418,3.3418,3.3418,3.3418,3.3418,3.3418,3.3418,3.3418,3.3733,3.3859,3.3859,3.3859,3.3859,3.3796,3.3481,3.409,3.4819,3.4027,3.5232,3.6764,3.6032,3.6703,3.7648,3.7369,3.6824,3.6154,3.5602,3.4819,3.4278,3.436,3.4409,3.439,3.4599,3.4975,3.5303,3.5413,3.6603,3.7737,3.8214,3.8868,3.9413,3.9697,3.9697,3.9697,3.9697,3.9295,3.8994,3.8919,3.8114,3.7437,3.7211,3.6784,3.6531,3.6405,3.6405,3.6405,3.6405,3.6405,3.6405,3.6405,3.5331,3.5235,3.6001,3.4091,3.3648,3.0898,3.0898,3.0898,3.0898,3.0898,3.0898,3.0898,0.0,3.0898,3.0898,3.123,3.166,3.209,3.2519,3.293,3.3359,3.3418,3.3418,0.0,0.0,0.0,0.0,0.0,0.0,3.3418,3.3789,3.4023,3.4023,3.4394,3.4629,3.459,3.459,3.459,3.459,3.4219,3.4023,3.4023,3.3613,3.3418,3.3418,3.3418,3.3418,3.3418,3.3418,3.3418,3.3418,3.3418,3.3418,3.3418,3.3418,3.3418,3.3418,3.3418,3.3418,3.3544,3.4757,3.5191,3.5191,3.5191,3.5191,3.5005,3.3796,3.3481,3.3796,3.4881,3.5376,3.5786,3.6824,3.8029,3.8744,3.7588,3.8305,3.8721,3.6356,3.6377,3.646,3.4777,3.5314,3.6167,3.6356,3.6056,3.6302,3.8067,3.727,3.7073,3.9206,3.8712,3.8425,3.9594,3.9697,3.9697,3.9697,3.9647,3.9421,3.8969,3.8768,3.8266,3.7262,3.7136,3.6885,3.643,3.6405,3.6405,3.6405,3.6405,3.6405,3.6405,3.5331,3.4824,3.4921,3.3747,3.325,3.0898,3.0898,3.0898,3.0898,3.0898,3.0898,3.0898,3.0898,3.0957,3.1211,3.1601,3.2031,3.2461,3.2891,3.3223,3.3398,0.0,0.0,3.3418,0.0,0.0,0.0,3.3418,0.0,0.0,0.0,3.4297,3.4824,3.5019,3.5234,3.5488,3.498,3.4707,3.4707,3.4531,3.4336,3.4082,3.3906,3.3691,3.3418,3.3418,3.3418,3.3418,3.3418,3.3418,3.3418,3.3418,3.3418,3.3418,3.3418,3.3418,3.3481,3.4278,3.409,3.367,3.5786,3.6032,3.55,3.6276,3.6032,3.5314,3.4757,3.459,3.4694,3.5253,3.646,3.7768,3.8328,3.8268,3.8328,3.9357,3.9533,3.8957,3.7166,3.6985,3.7127,3.6603,3.7006,3.7537,3.7487,3.7206,3.7088,3.7644,3.7456,3.7554,3.8502,3.8712,3.8973,3.9645,3.9542,3.9517,3.9697,3.9697,3.9597,3.9371,3.912,3.8517,3.7739,3.7362,3.6935,3.643,3.6405,3.6405,3.6405,3.6405,3.6405,3.6405,3.5953,3.5763,3.5715,3.4678,3.4141,3.0898,3.0898,3.0898,3.0898,3.0898,3.0898,3.0898,3.0898,3.1016,3.1426,3.1875,3.2305,3.2715,3.3144,3.3418,3.3418,0.0,3.3418,3.3418,0.0,0.0,0.0,0.0,3.3418,3.3418,3.3926,3.4629,3.5508,3.5586,3.5703,3.5996,3.543,3.5098,3.5098,3.4961,3.4687,3.4258,3.4141,3.3848,3.3418,3.3418,3.3418,3.3418,3.3418,3.3418,3.3418,3.3418,3.3418,3.3418,3.3418,3.3418,3.3481,3.4465,3.4465,3.4278,3.646,3.6946,3.6642,3.755,3.7309,3.6399,3.5623,3.5684,3.5971,3.5971,3.7489,3.9216,3.9216,3.8566,3.8387,4.0745,4.0571,3.9474,3.8305,3.8268,3.8328,3.791,3.8387,3.8807,3.8722,3.8412,3.8115,3.8131,3.7952,3.795,3.8372,3.8607,3.8973,3.9517,3.9413,3.9362,3.9594,3.9645,3.9697,3.9697,3.9346,3.8868,3.8291,3.7739,3.7186,3.6681,3.6505,3.6405,3.6405,3.6405,3.6405,3.6405,3.6405,3.6405,3.6358,3.5619,3.5283,3.0898,3.0898,3.0898,3.0898,3.0898,3.0898,0.0,3.0898,3.1016,3.1426,3.1875,3.2305,3.2715,3.3144,3.3418,3.3418,3.3418,0.0,3.3418,0.0,0.0,0.0,0.0,3.3418,3.3418,3.4199,3.5059,3.5937,3.6016,3.6016,3.6016,3.6016,3.6016,3.6016,3.5605,3.5156,3.4707,3.4277,3.3848,3.3418,3.3418,3.3418,3.3418,3.3418,3.3418,3.3418,3.3418,3.3418,3.3418,3.3418,3.3418,3.3418,3.3418,3.4215,3.5561,3.6824,3.8089,3.9157,3.9157,3.9157,3.8744,3.6215,3.6276,3.7309,3.7309,3.8209,3.9216,3.9216,3.9157,3.9569,4.1182,4.1402,4.0942,3.9919,4.0432,4.0513,3.8291,3.9039,4.0176,4.0176,3.95,3.9371,4.0656,3.897,3.8003,3.9465,3.8449,3.795,3.9154,3.931,3.931,3.931,3.9542,3.9697,3.9697,3.9697,3.9446,3.8944,3.8316,3.7739,3.7186,3.6707,3.6405,3.6405,3.6405,3.6405,3.6405,3.6405,3.6405,3.6405,3.6405,3.6358,3.1112,3.1054,3.0898,3.0898,3.0898,3.0898,3.0898,3.1113,3.1445,3.1875,3.2305,3.2734,3.3144,3.332,3.3418,3.3418,3.3418,0.0,0.0,0.0,0.0,3.3418,3.3418,3.3652,0.0,3.4551,3.5059,3.5957,3.6016,3.6016,3.6016,3.6016,3.6016,3.6016,3.5898,3.5449,3.4707,3.457,3.4141,3.3418,3.3418,3.3418,3.3418,3.3418,3.3418,3.3418,3.3418,3.3418,3.3418,3.3418,3.3418,3.3481,3.4403,3.4465,3.4403,3.7467,3.8328,3.8149,3.9966,3.9966,3.9039,3.8268,3.8268,3.8625,3.8625,3.8862,3.9216,3.9216,3.9216,3.9098,3.8744,3.9216,3.9767,3.9451,4.0316,4.1,4.0281,4.0663,4.1182,4.1182,4.0854,4.0605,4.0839,4.0009,3.9312,3.9436,3.8841,3.8526,3.8893,3.8945,3.905,3.9258,3.9542,3.9697,3.9697,3.9697,3.9446,3.8944,3.8316,3.7764,3.7211,3.6707,3.6405,3.6405,3.6405,3.6405,3.6405,3.6405,3.6405,3.6405,3.6405,3.6405,0.0,3.1112,3.0898,3.0898,3.0898,0.0,0.0,3.1211,3.1641,3.207,3.25,3.293,3.334,3.3418,3.3418,3.3418,3.3418,0.0,0.0,0.0,0.0,3.3418,3.3418,3.375,3.4609,3.4707,3.5059,3.5957,3.6016,3.6016,3.6016,3.5879,3.5781,3.5781,3.5781,3.543,3.4707,3.4531,3.4101,3.3418,3.3418,3.3418,3.3418,3.3418,3.3418,3.3418,3.3418,3.3418,0.0,3.3418,3.3418,3.3481,3.434,3.4465,3.4528,3.7407,3.8268,3.8328,4.0455,4.0629,3.9884,3.9334,3.9216,3.9216,3.9216,3.9533,3.9966,3.9966,3.9966,3.9767,3.9003,3.9357,3.9826,3.9334,4.0199,4.1057,4.0571,4.1033,4.1549,4.1435,4.1362,4.1182,4.078,4.029,3.9798,3.9357,3.8945,3.8631,3.8631,3.8736,3.8893,3.9102,3.9465,3.9697,3.9697,3.9697,3.9546,3.9195,3.8642,3.809,3.7513,3.7008,3.6631,3.6405,3.6405,3.6405,3.6405,3.6405,3.6405,3.6405,3.6405,3.6405,0.0,3.1112,3.0898,3.0898,3.0898,3.0898,3.0937,3.1269,0.0,3.2129,3.2539,3.2969,3.334,3.3418,3.3418,3.3418,3.3418,3.3418,3.3418,3.3418,0.0,0.0,3.3418,3.375,3.457,3.4687,3.5059,3.5918,3.5976,3.5976,3.5976,3.5566,3.5351,3.5351,3.5312,3.5098,3.4668,3.4258,3.3848,3.3418,3.3418,3.3418,3.3418,3.3418,3.3418,3.3418,3.3418,3.3418,3.3418,3.3418,3.3418,3.3418,3.3418,3.4153,3.5438,3.6703,3.797,3.9298,4.0571,4.1115,4.1,3.9767,3.9334,3.9334,3.9334,4.0199,4.1172,4.1172,4.1115,4.1057,4.1057,4.1057,4.0745,3.9474,4.0141,4.0745,3.9592,4.0466,4.1378,4.123,4.1242,4.1096,4.0507,4.0045,3.9635,3.9305,3.8788,3.8421,3.8368,3.8631,3.8788,3.8788,3.931,3.9697,3.9697,3.9697,3.9697,3.9697,3.917,3.8617,3.809,3.7487,3.6983,3.648,3.643,3.6405,3.6405,3.6405,3.6405,3.6405,3.6405,3.6405,3.173,0.0,3.0898,3.0898,3.0898,3.0976,0.0,3.1699,3.2129,3.2559,3.2988,3.3301,3.3398,3.3418,3.3418,3.3418,3.3418,3.3418,3.3418,3.3418,3.3418,3.3418,3.3418,3.3633,3.416,3.4512,3.4941,3.5488,3.5547,3.5547,3.5547,3.5117,3.4863,3.4863,3.4551,3.4336,3.4219,3.4121,3.3848,3.3418,3.3418,3.3418,3.3418,3.3418,3.3418,3.3418,3.3418,3.3418,3.3418,3.3418,3.3418,3.3418,3.3418,3.3607,3.4027,3.5376,3.6642,3.791,3.9239,4.0316,4.1115,4.0826,4.0745,4.0745,4.0745,4.0942,4.1172,4.1172,4.0455,3.965,3.965,3.965,3.9592,3.9275,3.9474,3.9826,4.0571,4.0199,4.0059,4.1,4.1362,4.1289,4.0501,4.0365,3.9972,3.9041,3.8631,3.8315,3.8133,3.8526,3.8788,3.8788,3.931,3.9697,3.9697,3.9697,3.9697,3.9697,3.917,3.8869,3.8668,3.7713,3.7136,3.6985,3.6631,3.6405,3.6405,3.6405,3.6405,3.6405,3.6405,3.6405,3.1672,3.1344,3.1054,3.0957,3.1035,3.123,3.1465,3.2012,3.2519,3.2754,3.3125,3.3418,3.3418,3.3418,3.3418,3.3418,3.3418,3.3418,3.3418,0.0,3.3418,3.3418,3.3418,3.3594,3.4023,3.4277,3.459,3.5039,3.5078,3.5078,3.5078,3.4648,3.4414,3.4414,3.4004,3.3867,3.4082,3.3867,3.3652,3.3418,3.3418,3.3418,3.3418,3.3418,3.3418,3.3418,3.3418,3.3418,3.3418,3.3418,3.3418,3.3418,3.3418,3.3418,3.3607,3.554,3.6703,3.755,3.9474,4.0571,4.1172,4.1172,4.1172,4.1172,4.1172,4.1172,4.1172,4.1172,4.0687,4.0141,4.0141,4.0141,3.9943,3.9334,3.965,4.0141,4.0257,4.0199,4.0316,4.1057,4.1516,4.159,4.0734,4.0526,4.0139,3.912,3.8567,3.8133,3.8027,3.8473,3.8788,3.8788,3.931,3.9697,3.9697,3.9697,3.9697,3.9697,3.9421,3.9145,3.8919,3.8341,3.7713,3.7186,3.6681,3.6405,3.6405,3.6405,3.6405,3.6405,3.6405,3.6405,3.1556,3.1384,3.1327,3.1035,3.125,3.1543,3.168,3.2266,3.2812,3.2871,3.3184,3.3418,3.3418,3.3418,3.3418,3.3418,3.3418,3.3418,3.3418,3.3418,3.3418,3.3418,3.3418,3.3574,3.3945,3.4023,3.4219,3.457,3.4609,3.4609,3.4609,3.4199,3.3965,3.3965,3.3613,3.3594,3.3965,3.3613,3.3418,3.3418,3.3418,3.3418,3.3418,3.3418,3.3418,3.3418,3.3418,3.3418,3.3418,3.3418,3.3418,3.3418,3.3418,3.3418,3.367,3.5909,3.6946,3.767,4.0257,4.1172,4.1172,4.1172,4.1172,4.1172,4.1172,4.1172,4.1172,4.1172,4.1172,4.1172,4.1172,4.1172,4.0942,3.9767,4.0199,4.0629,3.9709,4.0257,4.0942,4.1172,4.1712,4.1801,4.0957,4.0642,4.0212,3.935,3.8548,3.7974,3.7974,3.8473,3.8788,3.8788,3.931,3.9697,3.9697,3.9697,3.9697,3.9697,3.9697,3.9446,3.8944,3.8919,3.8366,3.7337,3.6807,3.6531,3.6531,3.6455,3.6405,3.6405,3.6405,3.6405,3.1845,3.1836,3.1821,3.1485,3.1465,3.1699,3.2441,3.2695,3.2891,3.3242,3.3379,3.3418,3.3418,3.3418,3.3418,3.3418,3.3418,3.3418,3.3418,3.3418,3.3418,3.3418,3.3418,3.3437,3.3516,3.3848,3.4101,3.416,3.416,3.416,3.416,3.375,3.3516,3.3516,3.3457,3.3457,3.3516,3.3457,3.3418,3.3418,3.3418,3.3418,3.3418,3.3418,3.3418,3.3418,3.3418,3.3418,3.3418,3.3418,3.3418,3.3418,3.3418,3.3418,3.3418,3.3839,3.5417,3.767,4.0257,4.1172,4.1172,4.1172,4.1172,4.1172,4.1172,4.1172,4.1172,4.1172,4.1172,4.1172,4.1172,4.1172,4.1115,4.0942,4.0199,3.9767,4.0687,4.0141,3.9826,4.1,4.1712,4.1801,4.0957,4.0642,4.0212,3.935,3.8548,3.7974,3.7974,3.8473,3.8788,3.8788,3.931,3.9697,3.9697,3.9697,3.9697,3.9697,3.9697,3.9446,3.8944,3.8919,3.8567,3.7889,3.7337,3.7061,3.7061,3.6631,3.6405,3.6405,3.6405,3.6405,3.1903,3.1896,3.1979,3.1936,3.2031,3.2305,3.2715,3.2969,3.3184,3.3379,3.3418,3.3418,3.3418,3.3418,3.3418,3.3418,3.3418,3.3418,3.3418,3.3418,3.3418,3.3418,3.3418,3.3418,3.3418,3.3613,3.373,3.373,3.373,3.373,3.373,3.3535,3.3418,3.3418,3.3418,3.3418,3.3418,3.3418,3.3418,3.3418,3.3418,3.3418,3.3418,3.3418,3.3418,3.3418,3.3418,3.3418,3.3418,3.3418,3.3418,3.3418,3.3418,3.3418,3.3544,3.5005,3.6682,3.8625,4.0513,4.1172,4.1172,4.1172,4.1172,4.1172,4.1172,4.1172,4.1172,4.1172,4.1172,4.1172,4.1172,4.0629,4.0316,4.1057,4.0199,3.9592,4.0942,4.0687,4.0455,4.1057,4.1516,4.1672,4.112,4.0561,4.0038,3.9467,3.8634,3.7974,3.7974,3.8473,3.8788,3.8788,3.931,3.9697,3.9697,3.9697,3.9697,3.9697,3.9697,3.9572,3.932,3.9019,3.8743,3.8492,3.7914,3.7638,3.7638,3.7086,3.6857,3.6857,3.6556,3.6405,3.1908,3.1977,3.2177,3.2329,3.2559,3.2812,3.293,3.3184,3.3418,3.3418,3.3418,3.3418,3.3418,3.3418,3.3418,3.3418,3.3418,3.3418,3.3418,3.3418,3.3418,3.3418,3.3418,3.3418,3.3418,3.3418,3.3418,3.3418,3.3418,3.3418,3.3418,3.3418,3.3418,3.3418,3.3418,3.3418,3.3418,3.3418,3.3418,3.3418,3.3418,3.3418,3.3418,3.3418,3.3418,3.3418,3.3418,3.3418,3.3418,3.3418,3.3418,3.3418,3.3418,3.3418,3.3733,3.6338,3.791,3.898,4.0629,4.1172,4.1172,4.1172,4.1172,4.1172,4.1172,4.1172,4.1172,4.1172,4.1172,4.1172,4.1172,4.0455,3.9966,4.0942,4.0455,3.9966,4.1,4.1172,4.1172,4.1172,4.1459,4.1492,4.123,4.0604,4.0037,3.9664,3.8791,3.8142,3.7998,3.8421,3.8736,3.8788,3.9258,3.9645,3.9697,3.9697,3.9697,3.9697,3.9697,3.9697,3.9697,3.9295,3.912,3.912,3.8492,3.8216,3.8216,3.7638,3.7387,3.7362,3.6983,3.6782,3.2056,3.2256,3.2571,3.2698,3.2773,3.2891,3.3281,3.3398,3.3418,3.3418,3.3418,3.3418,3.3418,3.3418,3.3418,3.3418,3.3418,3.3418,3.3418,3.3418,3.3418,3.3418,3.3418,3.3418,3.3418,3.3418,3.3418,3.3418,3.3418,3.3418,3.3418,3.3418,3.3418,3.3418,3.3418,3.3418,3.3418,3.3418,3.3418,3.3418,3.3418,3.3418,3.3418,3.3418,3.3418,3.3418,3.3418,3.3418,3.3418,3.3418,3.3418,3.3418,3.3418,3.3418,3.3733,3.6338,3.7369,3.779,4.0339,4.1172,4.1172,4.1172,4.1172,4.1172,4.1172,4.1172,4.1172,4.1172,4.1172,4.1172,4.1172,4.1115,4.1057,4.1172,4.1115,4.1057,4.1172,4.1172,4.1172,4.1172,4.1459,4.1492,4.123,4.0975,4.0474,3.9737,3.9128,3.8575,3.8046,3.8238,3.8526,3.8788,3.9102,3.9413,3.9697,3.9697,3.9697,3.9697,3.9697,3.9697,3.9697,3.9647,3.9647,3.9647,3.9094,3.8869,3.8818,3.8216,3.7939,3.7939,3.7914,3.7889,3.2614,3.2712,3.2721,3.2816,3.2988,3.3223,3.3379,3.3418,3.3418,3.3418,3.3418,3.3418,3.3418,3.3418,3.3418,3.3418,3.3418,3.3418,3.3418,3.3418,3.3418,3.3418,3.3418,3.3418,3.3418,3.3418,3.3418,3.3418,3.3418,3.3418,3.3418,3.3418,3.3418,3.3418,3.3418,3.3418,3.3418,3.3418,3.3418,3.3418,3.3418,3.3418,3.3418,3.3418,3.3418,3.3418,3.3418,3.3418,3.3418,3.3418,3.3418,3.3418,3.3418,3.3902,3.4881,3.6642,3.779,3.8744,4.0571,4.1172,4.1172,4.1172,4.1172,4.1172,4.1172,4.1172,4.1172,4.1172,4.1172,4.1172,4.1172,4.0571,4.0141,4.1,4.0571,4.0199,4.1,4.1172,4.1172,4.1172,4.1287,4.1344,4.123,4.0853,4.0322,3.9681,3.9152,3.8623,3.8046,3.8238,3.8473,3.8526,3.8998,3.9413,3.9697,3.9697,3.9697,3.9697,3.9697,3.9697,3.9697,3.9697,3.9697,3.9697,3.9496,3.9371,3.9371,3.8818,3.8542,3.8542,3.8165,3.8015,3.2954,3.2988,3.2956,3.2949,3.3203,3.3418,3.3418,3.3418,3.3418,3.3418,3.3418,3.3418,3.3418,3.3418,3.3418,3.3418,3.3418,3.3418,3.3418,3.3418,3.3418,3.3418,3.3418,3.3418,3.3418,3.3418,3.3418,3.3418,3.3418,3.3418,3.3418,3.3418,3.3418,3.3418,3.3418,3.3418,3.3418,3.3418,3.3418,3.3418,3.3418,3.3418,3.3418,3.3418,3.3418,3.3418,3.3418,3.3418,3.3418,3.3418,3.3418,3.3418,3.3418,3.4215,3.5561,3.6824,3.8089,3.9416,4.0745,4.1172,4.1172,4.1172,4.1172,4.1172,4.1172,4.1172,4.1172,4.1172,4.1172,4.1172,4.1172,4.0513,4.0083,4.1,4.0513,4.0083,4.1,4.1172,4.1172,4.1172,4.1172,4.1172,4.1172,4.0884,4.0475,3.9946,3.9417,3.8864,3.831,3.8359,3.8473,3.8684,3.905,3.9413,3.9697,3.9697,3.9697,3.9697,3.9697,3.9697,3.9697,3.9697,3.9697,3.9697,3.9697,3.9697,3.9697,3.932,3.912,3.912,3.8718,3.8542,3.2922,3.304,3.3325,3.3383,3.3418,3.3418,3.3418,3.3418,3.3418,3.3418,3.3418,3.3418,3.3418,3.3418,3.3418,3.3418,3.3418,3.3418,3.3418,3.3418,3.3418,3.3418,3.3418,3.3418,3.3418,3.3418,3.3418,3.3418,3.3418,3.3418,3.3418,3.3418,3.3418,3.3418,3.3418,3.3418,3.3418,3.3418,3.3418,3.3418,3.3418,3.3418,3.3418,3.3418,3.3418,3.3418,3.3418,3.3418,3.3418,3.3418,3.3418,3.3418,3.3418,3.4215,3.5561,3.6824,3.8149,3.9416,4.0745,4.1172,4.1172,4.1172,4.1172,4.1172,4.1172,4.1172,4.1172,4.1172,4.1172,4.1172,4.1172,4.1172,4.1172,4.1172,4.1172,4.1172,4.1172,4.1172,4.1172,4.1172,4.1172,4.1172,4.1172,4.1172,4.1004,4.0475,3.9946,3.9417,3.8888,3.8548,3.8631,3.9258,3.931,3.9413,3.9697,3.9697,3.9697,3.9697,3.9697,3.9697,3.9697,3.9697,3.9697,3.9697,3.9697,3.9697,3.9697,3.9697,3.9697,3.9697,3.9697,3.9697,3.3624,3.3473,3.3387,3.3398,3.3418,3.3418,3.3418,3.3418,3.3418,3.3418,3.3418,3.3418,3.3418,3.3418,3.3418,3.3418,3.3418,3.3418,3.3418,3.3418,3.3418,3.3418,3.3418,3.3418,3.3418,3.3418,3.3418,3.3418,3.3418,3.3418,3.3418,3.3418,3.3418,3.3418,3.3418,3.3418,3.3418,3.3418,3.3418,3.3418,3.3418,3.3418,3.3418,3.3418,3.3418,3.3418,3.3418,3.3418,3.3418,3.3418,3.3418,3.3481,3.4465,3.5602,3.6885,3.8149,3.9474,4.0629,4.1057,4.1172,4.1172,4.1172,4.1172,4.1172,4.1172,4.1172,4.1172,4.1172,4.1172,4.1172,4.1172,4.1172,4.1172,4.1172,4.1172,4.1172,4.1172,4.1172,4.1172,4.1172,4.1172,4.123,4.1435,4.1344,4.1061,4.0733,4.0371,3.9881,3.9183,3.8684,3.8631,3.9258,3.931,3.9413,3.9697,3.9697,3.9697,3.9697,3.9697,3.9697,3.9697,3.9697,3.9697,3.9697,3.9697,3.9697,3.9697,3.9697,3.9697,3.9697,3.9697,3.9697,3.378,3.3544,3.3418,3.3418,3.3418,3.3418,3.3418,3.3418,3.3418,3.3418,3.3418,3.3418,3.3418,3.3418,3.3418,3.3418,3.3418,3.3418,3.3418,3.3418,3.3418,3.3418,3.3418,3.3418,3.3418,3.3418,3.3418,3.3418,3.3418,3.3418,3.3418,3.3418,3.3418,3.3418,3.3418,3.3418,3.3418,3.3418,3.3418,3.3418,3.3418,3.3418,3.3418,3.3418,3.3418,3.3418,3.3418,3.3418,3.3418,3.3418,3.3418,3.3481,3.4278,3.5725,3.7369,3.8149,3.9592,4.1172,4.1172,4.1172,4.1172,4.1172,4.1172,4.1172,4.1172,4.1172,4.1172,4.1172,4.1172,4.1172,4.1172,4.1172,4.1172,4.1172,4.1172,4.1172,4.1172,4.1172,4.1172,4.1172,4.1287,4.1402,4.1549,4.1435,4.1281,4.1112,4.0781,4.0401,3.9908,3.9291,3.9108,3.971,3.9486,3.9413,3.9697,3.9697,3.9697,3.9697,3.9697,3.9697,3.9697,3.9697,3.9697,3.9697,3.9697,3.9697,3.9697,3.9697,3.9697,3.9697,3.9697,3.9697,3.3607,3.3418,3.3418,3.3418,3.3418,3.3418,3.3418,3.3418,3.3418,3.3418,3.3418,3.3418,3.3418,3.3418,3.3418,3.3418,3.3418,3.3418,3.3418,3.3418,3.3418,3.3418,3.3418,3.3418,3.3418,3.3418,3.3418,3.3418,3.3418,3.3418,3.3418,3.3418,3.3418,3.3418,3.3418,3.3418,3.3418,3.3418,3.3418,3.3418,3.3418,3.3418,3.3418,3.3418,3.3418,3.3418,3.3418,3.3418,3.3418,3.3418,3.3418,3.3418,3.3544,3.5129,3.7309,3.7429,3.9062,4.1172,4.1172,4.1172,4.1172,4.1172,4.1172,4.1172,4.1172,4.1172,4.1172,4.1172,4.1172,4.1172,4.1172,4.1172,4.1172,4.1172,4.1172,4.1172,4.1172,4.1172,4.1172,4.1172,4.1402,4.1606,4.1663,4.1606,4.1606,4.1663,4.1201,4.0856,4.0968,4.0285,4.0017,4.0548,3.9865,3.9488,3.9772,3.9722,3.9697,3.9697,3.9697,3.9697,3.9697,3.9697,3.9697,3.9697,3.9697,3.9697,3.9697,3.9697,3.9697,3.9697,3.9697,3.9697,3.3922,3.3607,0.0,3.3418,3.3418,3.3418,3.3418,3.3418,3.3418,3.3418,3.3418,3.3418,3.3418,3.3418,3.3418,3.3418,3.3418,3.3418,3.3418,3.3418,3.3418,3.3418,3.3418,3.3418,3.3418,3.3418,3.3418,3.3418,3.3418,3.3418,3.3418,3.3418,3.3418,3.3418,3.3418,3.3418,3.3418,3.3418,3.3418,3.3418,3.3418,3.3418,3.3418,3.3418,3.3418,3.3418,3.3418,3.3418,3.3418,3.3418,3.3418,3.3481,3.459,3.5909,3.7429,3.8447,3.9826,4.1172,4.1172,4.1172,4.1172,4.1172,4.1172,4.1172,4.1172,4.1172,4.1172,4.1172,4.1172,4.1172,4.1172,4.1172,4.1172,4.1172,4.1172,4.1172,4.1172,4.1172,4.1172,4.1172,4.123,4.1459,4.1915,4.1777,4.1663,4.1972,4.1531,4.1305,4.1489,4.1017,4.0778,4.11,4.0623,4.0297,4.035,3.9948,3.9697,3.9697,3.9697,3.9697,3.9697,3.9697,3.9697,3.9697,3.9697,3.9697,3.9697,3.9697,3.9697,3.9697,3.9697,3.9697,3.3985,0.0,0.0,3.3418,0.0,3.3418,3.3418,3.3418,3.3418,3.3418,3.3418,3.3418,3.3418,3.3418,3.3418,3.3418,3.3418,3.3418,3.3418,3.3418,3.3418,3.3418,3.3418,3.3418,3.3418,3.3418,3.3418,3.3418,3.3418,3.3418,3.3418,3.3418,3.3418,3.3418,3.3418,3.3418,3.3418,3.3418,3.3418,3.3418,3.3418,3.3418,3.3418,3.3418,3.3418,3.3418,3.3418,3.3418,3.3418,3.3418,3.3418,3.3481,3.4153,3.5253,3.652,3.7828,3.9098,4.0316,4.1,4.1172,4.1172,4.1172,4.1172,4.1172,4.1172,4.1172,4.1172,4.1172,4.1172,4.1172,4.1172,4.1172,4.1172,4.1172,4.1172,4.1172,4.1172,4.1172,4.1172,4.1172,4.1287,4.1516,4.1802,4.1859,4.1915,4.2054,4.1977,4.2004,4.2257,4.1838,4.1568,4.1731,4.1229,4.0849,4.0849,4.0651,4.0375,4.0099,4.0099,3.9973,3.9697,3.9697,3.9697,3.9697,3.9697,3.9697,3.9697,3.9697,3.9697,3.9697,3.9697,3.9697,3.411,0.0,3.3418,3.3418,3.3418,0.0,3.3418,3.3418,3.3418,3.3418,3.3418,3.3418,3.3418,3.3418,3.3418,3.3418,3.3418,3.3418,3.3418,3.3418,3.3418,3.3418,3.3418,3.3418,3.3418,3.3418,3.3418,3.3418,3.3418,3.3418,3.3418,3.3418,3.3418,3.3418,3.3418,3.3418,3.3418,3.3418,3.3418,3.3418,3.3418,3.3418,3.3418,3.3418,3.3418,3.3418,3.3418,3.3418,3.3418,3.3418,3.3418,3.3418,3.3418,3.4215,3.5561,3.6642,3.8029,3.9451,4.0571,4.1115,4.123,4.123,4.1172,4.1172,4.1172,4.1172,4.1172,4.1172,4.1172,4.1172,4.1172,4.1172,4.1172,4.1172,4.1172,4.1172,4.1172,4.1172,4.1172,4.1172,4.1459,4.1606,4.1606,4.1859,4.211,4.211,4.2312,4.2569,4.2874,4.2585,4.2363,4.2363,4.1806,4.148,4.148,4.1351,4.11,4.0701,4.0651,4.04,3.9848,3.9771,3.9746,3.9697,3.9697,3.9697,3.9697,3.9697,3.9697,3.9697,3.9697,3.9697,0.0,0.0,3.3418,0.0,3.3418,3.3418,0.0,0.0,3.3418,0.0,3.3418,3.3418,3.3418,3.3418,3.3418,3.3418,3.3418,3.3418,3.3418,3.3418,3.3418,3.3418,3.3418,3.3418,3.3418,3.3418,3.3418,3.3418,3.3418,3.3418,3.3418,3.3418,3.3418,3.3418,3.3418,3.3418,3.3418,3.3418,3.3418,3.3418,3.3418,3.3418,3.3418,3.3418,3.3418,3.3418,3.3418,3.3418,3.3418,3.3418,3.3418,3.3418,3.3418,3.4215,3.5438,3.593,3.761,3.9686,3.9826,4.0605,4.1492,4.1287,4.1172,4.1172,4.1172,4.1172,4.1172,4.1172,4.1172,4.1172,4.1172,4.1172,4.1172,4.1172,4.1172,4.1172,4.1172,4.1172,4.1172,4.1172,4.1459,4.1606,4.1606,4.1859,4.211,4.211,4.2312,4.2513,4.2569,4.2743,4.2861,4.2861,4.2439,4.2112,4.2112,4.1605,4.125,4.1175,4.1175,4.0924,4.0425,4.019,3.9965,3.9697,3.9697,3.9697,3.9697,3.9697,3.9697,3.9697,3.9697,3.9697,3.4235,3.3796,3.3418,0.0,3.3418,3.3418,3.3418,3.3418,3.3418,3.3418,3.3418,3.3418,3.3418,3.3418,3.3418,3.3418,3.3418,3.3418,3.3418,3.3418,3.3418,3.3418,3.3418,3.3418,3.3418,3.3418,3.3418,3.3418,3.3418,3.3418,3.3418,3.3418,3.3418,3.3418,3.3418,3.3418,3.3418,3.3418,3.3418,3.3418,3.3418,3.3418,3.3418,3.3418,3.3418,3.3418,3.3418,3.3418,3.3418,3.3418,3.3418,3.3418,3.3418,3.3796,3.4403,3.5314,3.6864,3.8721,3.9216,4.035,4.1549,4.1287,4.1172,4.1172,4.1172,4.1172,4.1172,4.1172,4.1172,4.1172,4.1172,4.1172,4.1172,4.1172,4.1172,4.1172,4.1172,4.1172,4.1172,4.1172,4.1287,4.1402,4.1402,4.1631,4.1802,4.1802,4.2086,4.2312,4.2457,4.2625,4.2818,4.2986,4.276,4.2665,4.2665,4.2409,4.2133,4.1806,4.1781,4.1555,4.0949,4.057,4.019,3.994,3.964,3.9542,3.9697,3.9697,3.9697,3.9697,3.9697,3.9697,0.0,0.0,3.3418,3.3418,3.3418,3.3418,0.0,0.0,3.3418,0.0,3.3418,3.3418,3.3418,3.3418,3.3418,3.3418,3.3418,3.3418,3.3418,3.3418,3.3418,3.3418,3.3418,3.3418,3.3418,3.3418,3.3418,3.3418,3.3418,3.3418,3.3418,3.3418,3.3418,3.3418,3.3418,3.3418,3.3418,3.3418,3.3418,3.3418,3.3418,3.3418,3.3418,3.3418,3.3418,3.3418,3.3418,3.3418,3.3418,3.3418,3.3418,3.3418,3.3418,3.3418,3.3544,3.4652,3.6194,3.7925,3.8684,4.0118,4.1549,4.1402,4.123,4.1172,4.1172,4.1172,4.1172,4.1172,4.1172,4.1172,4.1172,4.1172,4.1172,4.1172,4.1172,4.1172,4.1172,4.1172,4.1172,4.1172,4.123,4.1287,4.1287,4.1435,4.1606,4.172,4.1915,4.2199,4.2457,4.2513,4.2625,4.2986,4.293,4.293,4.2986,4.2986,4.2811,4.2439,4.2414,4.2108,4.1555,4.1046,4.0693,4.0408,3.9755,3.9459,3.9594,3.9697,3.9697,3.9697,3.9697,3.9697,0.0,3.3922,0.0,3.3418,0.0,0.0,0.0,0.0,3.3418,3.3418,3.3418,3.3418,3.3418,3.3418,3.3418,3.3418,3.3418,3.3418,3.3418,3.3418,3.3418,3.3418,3.3418,3.3418,3.3418,3.3418,3.3418,3.3418,3.3418,3.3418,3.3418,3.3418,3.3418,3.3418,3.3418,3.3418,3.3418,3.3418,3.3418,3.3418,3.3418,3.3418,3.3418,3.3418,3.3418,3.3418,3.3418,3.3418,3.3418,3.3418,3.3418,3.3418,3.3418,3.3418,3.3418,3.3859,3.5602,3.7865,3.8186,3.9744,4.1606,4.1606,4.1402,4.1172,4.1172,4.1172,4.1172,4.1172,4.1172,4.1172,4.1172,4.1172,4.1172,4.1172,4.1172,4.1172,4.1172,4.1172,4.1172,4.1172,4.1402,4.1606,4.1606,4.1606,4.172,4.2029,4.211,4.2199,4.2457,4.2513,4.2625,4.2986,4.2706,4.2625,4.2986,4.2986,4.2961,4.2936,4.2936,4.274,4.2187,4.1808,4.1504,4.125,4.0219,3.9541,3.931,3.9594,3.9697,3.9697,3.9697,3.9697,0.0,0.0,0.0,3.3796,3.3733,3.367,3.3418,3.3418,3.3418,3.3418,3.3418,3.3418,3.3418,3.3418,3.3418,3.3418,3.3418,3.3418,3.3418,3.3418,3.3418,3.3418,3.3418,3.3418,3.3418,3.3418,3.3418,3.3418,3.3418,3.3418,3.3418,3.3418,3.3418,3.3418,3.3418,3.3418,3.3418,3.3418,3.3418,3.3418,3.3418,3.3418,3.3418,3.3418,3.3418,3.3418,3.3418,3.3418,3.3418,3.3418,3.3418,3.3418,3.3418,3.3418,3.3418,3.3544,3.5355,3.7805,3.7947,3.9569,4.1606,4.1606,4.1459,4.1172,4.1172,4.1172,4.1172,4.1172,4.1172,4.1172,4.1172,4.1172,4.1172,4.1172,4.1172,4.1172,4.1172,4.1172,4.1172,4.1172,4.1287,4.1344,4.1344,4.1492,4.1663,4.1777,4.1972,4.2199,4.2457,4.2513,4.2625,4.2986,4.2874,4.2849,4.2986,4.2986,4.2986,4.2986,4.2986,4.2886,4.274,4.2278,4.1893,4.1529,4.1006,4.0458,3.978,3.9327,3.9206,3.9413,3.9413,3.9542,3.4922,0.0,0.0,0.0,0.0,3.367,3.3418,0.0,3.3418,3.3418,3.3418,3.3418,3.3418,3.3418,3.3418,3.3418,3.3418,3.3418,3.3418,3.3418,3.3418,3.3418,3.3418,3.3418,3.3418,3.3418,3.3418,3.3418,3.3418,3.3418,3.3418,3.3418,3.3418,3.3418,3.3418,3.3418,3.3418,3.3418,3.3418,3.3418,3.3418,3.3418,3.3418,3.3418,3.3418,3.3418,3.3418,3.3418,3.3418,3.3418,3.3418,3.3418,3.3418,3.3418,3.3418,3.3418,3.517,3.7648,3.7746,3.9393,4.1492,4.1549,4.1459,4.1172,4.1172,4.1172,4.1172,4.1172,4.1172,4.1172,4.1172,4.1172,4.1172,4.1172,4.1172,4.1172,4.1172,4.1172,4.1172,4.1172,4.1287,4.1344,4.1344,4.1492,4.1663,4.172,4.1859,4.2029,4.2312,4.2369,4.2481,4.2818,4.2793,4.2874,4.2986,4.2986,4.2986,4.2986,4.2986,4.2986,4.2986,4.269,4.2379,4.2157,4.1663,4.116,4.0624,3.9668,3.917,3.9154,3.9258,3.9413,0.0,0.0,0.0,0.0,0.0,0.0,3.3418,0.0,3.3418,3.3418,3.3418,3.3418,3.3418,3.3418,3.3418,3.3418,3.3418,3.3418,3.3418,3.3418,3.3418,3.3418,3.3418,3.3418,3.3418,3.3418,3.3418,3.3418,3.3418,3.3418,3.3418,3.3418,3.3418,3.3418,3.3418,3.3418,3.3418,3.3418,3.3418,3.3418,3.3418,3.3418,3.3418,3.3418,3.3418,3.3418,3.3418,3.3418,3.3418,3.3418,3.3418,3.3418,3.3418,3.3418,3.3418,3.3418,3.5067,3.7347,3.7708,3.9275,4.123,4.1492,4.1459,4.1172,4.1172,4.1172,4.1172,4.1172,4.1172,4.1172,4.1172,4.1172,4.1172,4.1172,4.1172,4.1172,4.1172,4.1172,4.1172,4.1172,4.1402,4.1606,4.1606,4.1606,4.172,4.2054,4.1802,4.172,4.2054,4.211,4.2199,4.2457,4.2513,4.2625,4.2986,4.2961,4.2986,4.2986,4.2986,4.2986,4.2986,4.2986,4.2986,4.2986,4.2157,4.1718,4.1718,4.0624,3.9671,3.889,3.9179,3.9438,3.5232,0.0,0.0,0.0,0.0,0.0,0.0,0.0,3.3418,3.3418,3.3418,3.3418,3.3418,3.3418,3.3418,3.3418,3.3418,3.3418,3.3418,3.3418,3.3418,3.3418,3.3418,3.3418,3.3418,3.3418,3.3418,0.0,3.3418,3.3418,3.3418,3.3418,3.3418,3.3418,3.3418,3.3418,3.3418,3.3418,3.3418,3.3418,3.3418,3.3418,3.3418,3.3418,3.3418,3.3418,3.3418,3.3418,3.3418,3.3418,3.3418,3.3418,3.3418,3.3418,3.3418,3.3418,3.5067,3.7347,3.7708,3.9275,4.123,4.1492,4.1459,4.1172,4.1172,4.1172,4.1172,4.1172,4.1172,4.1172,4.1172,4.1172,4.1172,4.1172,4.1172,4.1172,4.1172,4.1172,4.1172,4.1172,4.123,4.1287,4.1287,4.1435,4.1606,4.172,4.1859,4.1972,4.211,4.211,4.211,4.2199,4.2369,4.2513,4.2625,4.2874,4.2986,4.2986,4.2986,4.2874,4.2625,4.2625,4.2625,4.2625,4.2364,4.209,4.1718,4.0834,4.036,4.0319,4.0028,3.9683,0.0,0.0,0.0,0.0,0.0,0.0,3.4153,3.3796,3.3418,0.0,3.3418,3.3418,3.3418,3.3418,3.3418,3.3418,3.3418,3.3418,3.3418,3.3418,3.3418,3.3418,3.3418,3.3418,3.3418,3.3418,3.3418,3.3418,3.3418,3.3418,3.3418,3.3418,3.3418,3.3418,3.3418,3.3418,3.3418,3.3418,3.3418,3.3418,3.3418,3.3418,3.3418,3.3418,3.3418,3.3418,3.3418,3.3418,3.3418,3.3418,3.3418,3.3418,3.3418,3.3418,3.3418,3.3418,3.5067,3.7309,3.7528,3.918,4.123,4.1402,4.1344,4.1172,4.1172,4.1172,4.1172,4.1172,4.1172,4.1172,4.1172,4.1172,4.1172,4.1172,4.1172,4.1172,4.1172,4.1172,4.1172,4.1172,4.1172,4.1172,4.1172,4.1344,4.1435,4.1435,4.1573,4.1688,4.1688,4.1802,4.1915,4.1915,4.2142,4.2312,4.2312,4.2594,4.2818,4.2818,4.293,4.293,4.2706,4.2569,4.2513,4.2513,4.2369,4.2195,4.2041,4.1329,4.0958,4.0873,4.0575,4.0358,0.0,0.0,0.0,0.0,3.5087,0.0,3.5005,3.4278,3.3418,3.3418,3.3418,3.3418,3.3418,3.3544,3.3544,3.3418,3.3544,3.3544,3.3418,3.3418,3.3418,3.3418,3.3418,3.3418,3.3418,3.3418,3.3418,3.3418,3.3418,3.3418,3.3418,3.3418,3.3418,3.3418,3.3418,3.3418,3.3418,3.3418,3.3418,3.3418,3.3418,3.3418,3.3418,3.3418,3.3418,3.3418,3.3418,3.3418,3.3418,3.3418,3.3418,3.3418,3.3418,3.3418,3.3418,3.3544,3.517,3.7309,3.7489,3.9121,4.1172,4.1172,4.1172,4.1172,4.1172,4.1172,4.1172,4.1172,4.1172,4.1172,4.1172,4.1172,4.1172,4.1172,4.1172,4.1172,4.123,4.123,4.123,4.1287,4.1287,4.123,4.123,4.123,4.123,4.1172,4.123,4.123,4.123,4.1516,4.1663,4.1663,4.1972,4.211,4.211,4.2369,4.2457,4.2457,4.2762,4.2874,4.2874,4.2569,4.2457,4.24,4.2199,4.2199,4.2457,4.1985,4.1519,4.0972,4.0972,4.1056,0.0,0.0,3.4922,3.517,3.4548,0.0,3.4153,3.3796,3.3418,0.0,3.3418,3.3418,3.3418,3.4278,3.4652,3.3607,3.434,3.4652,3.3544,3.3418,3.3418,3.3418,3.3418,3.3418,3.3418,3.3418,3.3418,3.3418,3.3418,3.3418,3.3418,3.3418,3.3418,3.3418,3.3418,3.3418,3.3418,3.3418,3.3418,3.3418,3.3418,3.3418,3.3418,3.3418,3.3418,3.3418,3.3418,3.3418,3.3418,3.3418,3.3418,3.3418,3.3418,3.3418,3.3544,3.459,3.5971,3.7429,3.8447,3.9908,4.1172,4.1172,4.1172,4.1172,4.1172,4.1172,4.1172,4.1172,4.1172,4.1172,4.1172,4.1172,4.1172,4.1172,4.1172,4.123,4.1492,4.1492,4.1606,4.1859,4.1688,4.1492,4.1492,4.1492,4.1435,4.123,4.1402,4.1492,4.1492,4.1802,4.1972,4.1972,4.2256,4.2312,4.211,4.2369,4.2425,4.2199,4.2256,4.2142,4.1891,4.2086,4.2029,4.1777,4.1972,4.211,4.2142,4.2301,4.209,4.1544,4.1544,4.1375,3.5356,3.517,3.5046,3.552,3.4901,0.0,0.0,3.5129,3.4777,3.5253,3.5479,3.5581,3.5581,3.6255,3.6377,3.5046,3.5294,3.5108,3.3859,3.3481,3.3418,3.3418,3.3418,3.3418,3.3418,3.3418,3.3418,3.3418,3.3418,3.3418,3.3418,3.3418,3.3418,3.3418,3.3418,3.3418,3.3418,3.3418,3.3418,3.3418,3.3418,3.3418,3.3418,3.3418,3.3418,3.3418,3.3418,3.3418,3.3418,3.3418,3.3418,3.3418,3.3418,3.3418,3.3544,3.4881,3.6215,3.7489,3.8744,4.0083,4.1172,4.1172,4.1172,4.1172,4.1172,4.1172,4.1172,4.1172,4.1172,4.1172,4.1172,4.1172,4.1172,4.1172,4.1172,4.123,4.1402,4.1402,4.1516,4.1802,4.1859,4.1859,4.1859,4.1859,4.1802,4.1631,4.1745,4.1859,4.1859,4.1972,4.211,4.211,4.2199,4.2256,4.211,4.2369,4.2369,4.211,4.2199,4.2142,4.1859,4.1859,4.1777,4.1606,4.1915,4.2167,4.2312,4.2425,4.2276,4.1892,4.2059,4.1966,3.5294,3.517,3.517,3.589,3.5273,3.4777,0.0,0.0,0.0,3.6764,3.7347,3.7686,3.7805,3.8164,3.8082,0.0,0.0,0.0,0.0,3.4447,0.0,3.3544,3.3418,3.3418,3.3481,3.3481,3.3481,3.3418,3.3481,3.3481,3.3418,3.3418,3.3418,3.3418,3.3418,3.3418,3.3418,3.3418,3.3418,3.3418,3.3418,3.3418,3.3418,3.3418,3.3418,3.3418,3.3418,3.3418,3.3418,3.3418,3.3418,3.3418,3.3418,3.3418,3.3544,3.4881,3.6215,3.7489,3.8744,4.0083,4.1172,4.1172,4.1172,4.1172,4.1172,4.1172,4.1172,4.1172,4.1172,4.1172,4.1172,4.1172,4.1172,4.1172,4.1172,4.1172,4.1287,4.1287,4.1344,4.1663,4.1915,4.211,4.211,4.2167,4.2167,4.211,4.2167,4.2142,4.2142,4.2224,4.228,4.228,4.228,4.228,4.2142,4.2369,4.2369,4.211,4.2312,4.2312,4.2054,4.1663,4.1549,4.1606,4.1802,4.2029,4.2344,4.2344,4.2312,4.2142,4.2425,4.2457,0.0,0.0,3.5294,3.5108,3.4735,3.436,3.4278,0.0,3.55,3.5623,0.0,3.7467,3.7746,0.0,0.0,0.0,0.0,0.0,3.7229,3.7361,3.6721,3.4153,3.3607,3.3544,3.3796,3.3859,3.3733,3.3418,3.367,3.3733,3.3418,3.3418,3.3418,3.3418,3.3418,3.3418,3.3418,3.3418,3.3418,3.3418,3.3418,3.3418,3.3418,3.3418,3.3418,3.3418,3.3418,3.3418,3.3418,3.3418,3.3418,3.3418,3.3418,3.3418,3.3544,3.4881,3.6215,3.7489,3.8744,4.0083,4.1172,4.1172,4.1172,4.1172,4.1172,4.1172,4.1172,4.1172,4.1172,4.1172,4.1172,4.1172,4.1172,4.1172,4.1172,4.1287,4.1492,4.1549,4.1663,4.1972,4.2054,4.211,4.211,4.2312,4.2369,4.2167,4.2312,4.2481,4.2481,4.2706,4.293,4.293,4.293,4.2762,4.2481,4.2457,4.2369,4.211,4.211,4.1972,4.1663,4.1402,4.1344,4.1606,4.1402,4.1459,4.172,4.172,4.1948,4.2457,4.2457,4.2369,0.0,0.0,0.0,0.0,3.436,3.4465,3.5869,3.646,3.7188,3.8506,0.0,0.0,0.0,0.0,0.0,0.0,3.9698,0.0,0.0,0.0,3.7746,0.0,0.0,0.0,3.3985,3.3922,3.3733,3.3418,3.3733,3.3733,3.3418,3.3418,3.3418,3.3418,3.3418,3.3418,3.3418,3.3418,3.3418,3.3418,3.3418,3.3418,3.3418,3.3418,3.3418,3.3418,3.3418,3.3418,3.3418,3.3418,3.3418,3.3481,3.4278,3.409,3.367,3.5725,3.6824,3.761,3.965,4.0745,4.1172,4.1172,4.1172,4.1172,4.1172,4.1172,4.1172,4.1172,4.1172,4.1172,4.1172,4.1172,4.1172,4.1172,4.1172,4.123,4.1344,4.1402,4.1402,4.1516,4.1688,4.1802,4.1802,4.2086,4.2199,4.211,4.2312,4.2513,4.2513,4.2818,4.2986,4.2986,4.2986,4.293,4.2818,4.2818,4.265,4.2369,4.2199,4.2054,4.1915,4.1915,4.1915,4.1915,4.1915,4.1915,4.1915,4.1915,4.1891,4.2004,4.2344,4.2369,3.4735,0.0,0.0,0.0,3.4173,3.459,3.6642,3.7489,3.835,4.0257,4.1091,0.0,0.0,0.0,4.181,0.0,0.0,4.0626,0.0,0.0,0.0,0.0,0.0,0.0,0.0,3.4819,3.4507,3.407,3.4027,3.3859,3.3418,3.3418,3.3418,3.3418,3.3418,3.3607,3.3902,3.3965,3.4153,3.4445,3.409,3.3965,3.3902,3.3544,3.3418,3.3418,3.3418,3.3418,3.3418,3.3418,3.3607,3.4027,3.5005,3.5005,3.4694,3.6581,3.755,3.8089,3.9966,4.0884,4.1172,4.1172,4.1172,4.1172,4.1172,4.1172,4.1172,4.1172,4.1172,4.1172,4.1172,4.123,4.1287,4.1287,4.1344,4.1483,4.1483,4.1483,4.1483,4.1483,4.1631,4.172,4.172,4.1972,4.2199,4.2199,4.2481,4.2625,4.2625,4.2874,4.2986,4.2986,4.2986,4.2986,4.2986,4.2986,4.293,4.2625,4.2369,4.2199,4.2199,4.2312,4.2312,4.211,4.2199,4.2231,4.2199,4.2167,4.2029,4.1834,4.2118,4.2142,0.0,0.0,0.0,3.3985,0.0,0.0,3.5314,3.6642,3.8089,0.0,0.0,4.1287,4.1549,4.1859,0.0,0.0,0.0,0.0,0.0,0.0,0.0,0.0,0.0,0.0,0.0,3.7205,3.6438,0.0,3.4881,3.411,3.3418,3.3418,3.3418,3.3418,3.3418,3.4027,3.5314,3.5314,3.5971,3.7188,3.5909,3.5314,3.5314,3.3965,3.3418,3.3418,3.3418,3.3418,3.3418,3.3418,3.4153,3.5314,3.5376,3.6154,3.7188,3.7309,3.8089,3.9157,3.9216,4.0083,4.1172,4.1172,4.1172,4.1172,4.1172,4.1172,4.1172,4.1172,4.1172,4.1172,4.1172,4.1402,4.1606,4.1606,4.1859,4.2054,4.2054,4.2054,4.2054,4.2054,4.211,4.211,4.211,4.2312,4.2457,4.2457,4.2737,4.2986,4.2986,4.2986,4.2986,4.2986,4.2986,4.2986,4.2986,4.2986,4.2986,4.2986,4.2681,4.2457,4.2457,4.2256,4.211,4.211,4.1777,4.1891,4.2457,4.2199,4.2199,4.2457,4.1891,4.1606,0.0,0.0,3.4047,3.3922,0.0,0.0,0.0,0.0,0.0,0.0,0.0,0.0,0.0,0.0,0.0,0.0,0.0,0.0,0.0,0.0,0.0,0.0,0.0,0.0,0.0,0.0,0.0,0.0,3.554,0.0,3.4777,3.554,3.5971,3.5971,3.5191,3.5376,3.6642,3.5786,3.6032,3.7287,3.6885,3.6642,3.6642,3.6215,3.5971,3.5971,3.5971,3.5971,3.5971,3.5971,3.6276,3.6764,3.761,3.8209,3.8566,3.8566,3.8803,3.9357,4.0199,4.0826,4.1172,4.1172,4.1172,4.1172,4.1172,4.1172,4.1172,4.1172,4.1172,4.1172,4.1172,4.1287,4.1402,4.1549,4.1663,4.1859,4.2054,4.211,4.211,4.211,4.211,4.211,4.211,4.2312,4.2425,4.2256,4.2481,4.2681,4.2681,4.2874,4.2986,4.2986,4.2986,4.2986,4.2986,4.2986,4.2986,4.2986,4.2874,4.2818,4.2818,4.2762,4.2594,4.2369,4.2231,4.2199,4.2256,4.2167,4.2167,4.2199,4.2029,4.1802,3.3796,3.3733,0.0,3.3733,3.367,0.0,3.5376,0.0,3.7407,0.0,0.0,0.0,0.0,0.0,0.0,0.0,0.0,0.0,0.0,4.2986,0.0,0.0,0.0,0.0,0.0,0.0,0.0,0.0,0.0,0.0,0.0,3.6824,3.7309,3.7309,3.652,3.6703,3.797,3.7188,3.7429,3.8684,3.8209,3.797,3.797,3.7489,3.7309,3.7309,3.7309,3.7309,3.7309,3.7309,3.755,3.8089,3.8862,3.9474,3.9908,3.9908,3.9908,4.0024,4.0884,4.1172,4.1172,4.1172,4.1172,4.1172,4.1172,4.1172,4.1148,4.0956,4.1028,4.1148,4.0956,4.1142,4.1402,4.1745,4.1777,4.1915,4.2312,4.2312,4.2256,4.2369,4.2425,4.2425,4.2425,4.2594,4.2594,4.2256,4.2481,4.2706,4.2706,4.2874,4.2986,4.2986,4.2986,4.2986,4.2986,4.2986,4.2986,4.2986,4.2986,4.2986,4.2986,4.2986,4.293,4.2681,4.2569,4.2481,4.2425,4.2312,4.2256,4.2256,4.2256,4.2086]}]]